Wetterdaten: Donnerstag, 12.07.2018
Datum Zeit Temp. A. Feuchte A. Luftdruck Regen Wind Richtung Richtung Taupunkt Windben Empfang
12.07.2018 00:00 13,6 C 96 % 1014,8 hPa 0,0 l/m 0,0 km/h (0 Bft) O-NO 57 13,0 C 0,0 km/h (0 Bft) 100 %
12.07.2018 00:01 13,6 C 96 % 1014,8 hPa 0,0 l/m 0,1 km/h (0 Bft) N-NO 27 13,0 C 3,1 km/h (1 Bft) 100 %
12.07.2018 00:02 13,6 C 96 % 1014,7 hPa 0,0 l/m 0,0 km/h (0 Bft) N-NO 27 13,0 C 0,0 km/h (0 Bft) 100 %
12.07.2018 00:03 13,6 C 96 % 1014,7 hPa 0,0 l/m 0,0 km/h (0 Bft) N-NO 27 13,0 C 0,0 km/h (0 Bft) 100 %
12.07.2018 00:04 13,6 C 96 % 1014,8 hPa 0,0 l/m 0,0 km/h (0 Bft) W-NW 297 13,0 C 0,0 km/h (0 Bft) 100 %
12.07.2018 00:05 13,6 C 96 % 1014,8 hPa 0,0 l/m 0,1 km/h (0 Bft) W-NW 297 13,0 C 3,1 km/h (1 Bft) 100 %
12.07.2018 00:06 13,5 C 96 % 1014,8 hPa 0,0 l/m 0,0 km/h (0 Bft) W-NW 297 12,9 C 0,0 km/h (0 Bft) 100 %
12.07.2018 00:07 13,5 C 96 % 1014,8 hPa 0,0 l/m 0,1 km/h (0 Bft) W-NW 297 12,9 C 3,1 km/h (1 Bft) 100 %
12.07.2018 00:08 13,5 C 96 % 1014,7 hPa 0,0 l/m 0,0 km/h (0 Bft) W-NW 297 12,9 C 0,0 km/h (0 Bft) 100 %
12.07.2018 00:09 13,5 C 96 % 1014,7 hPa 0,0 l/m 0,0 km/h (0 Bft) W-NW 297 12,9 C 0,0 km/h (0 Bft) 100 %
12.07.2018 00:10 13,5 C 96 % 1014,7 hPa 0,0 l/m 0,0 km/h (0 Bft) W-NW 297 12,9 C 0,0 km/h (0 Bft) 100 %
12.07.2018 00:11 13,4 C 96 % 1014,7 hPa 0,0 l/m 0,1 km/h (0 Bft) W-NW 297 12,8 C 3,1 km/h (1 Bft) 100 %
12.07.2018 00:12 13,4 C 96 % 1014,8 hPa 0,0 l/m 0,0 km/h (0 Bft) W-NW 297 12,8 C 0,0 km/h (0 Bft) 100 %
12.07.2018 00:13 13,4 C 96 % 1014,7 hPa 0,0 l/m 0,0 km/h (0 Bft) W-NW 297 12,8 C 0,0 km/h (0 Bft) 100 %
12.07.2018 00:14 13,4 C 96 % 1014,8 hPa 0,0 l/m 1,2 km/h (1 Bft) NW 319 12,8 C 3,1 km/h (1 Bft) 100 %
12.07.2018 00:15 13,4 C 96 % 1014,7 hPa 0,0 l/m 0,0 km/h (0 Bft) NW 319 12,8 C 0,0 km/h (0 Bft) 100 %
12.07.2018 00:16 13,4 C 96 % 1014,8 hPa 0,0 l/m 0,0 km/h (0 Bft) NW 319 12,8 C 0,0 km/h (0 Bft) 100 %
12.07.2018 00:17 13,4 C 96 % 1014,8 hPa 0,0 l/m 0,0 km/h (0 Bft) N-NO 20 12,8 C 0,0 km/h (0 Bft) 100 %
12.07.2018 00:18 13,4 C 96 % 1014,8 hPa 0,0 l/m 0,0 km/h (0 Bft) N-NO 20 12,8 C 0,0 km/h (0 Bft) 100 %
12.07.2018 00:19 13,4 C 96 % 1014,8 hPa 0,0 l/m 0,0 km/h (0 Bft) N-NO 20 12,8 C 0,0 km/h (0 Bft) 100 %
12.07.2018 00:20 13,4 C 96 % 1014,7 hPa 0,0 l/m 0,0 km/h (0 Bft) N-NO 20 12,8 C 0,0 km/h (0 Bft) 100 %
12.07.2018 00:21 13,4 C 96 % 1014,7 hPa 0,0 l/m 0,1 km/h (0 Bft) N-NO 21 12,8 C 3,1 km/h (1 Bft) 100 %
12.07.2018 00:22 13,4 C 96 % 1014,7 hPa 0,0 l/m 0,3 km/h (0 Bft) NO 40 12,8 C 3,1 km/h (1 Bft) 100 %
12.07.2018 00:23 13,4 C 96 % 1014,7 hPa 0,0 l/m 0,0 km/h (0 Bft) NO 44 12,8 C 0,0 km/h (0 Bft) 100 %
12.07.2018 00:24 13,4 C 96 % 1014,8 hPa 0,0 l/m 0,2 km/h (0 Bft) NW 307 12,8 C 3,1 km/h (1 Bft) 100 %
12.07.2018 00:25 13,4 C 96 % 1014,8 hPa 0,0 l/m 0,0 km/h (0 Bft) NW 323 12,8 C 0,0 km/h (0 Bft) 100 %
12.07.2018 00:26 13,4 C 96 % 1014,8 hPa 0,0 l/m 0,0 km/h (0 Bft) N 359 12,8 C 0,0 km/h (0 Bft) 100 %
12.07.2018 00:27 13,4 C 96 % 1014,8 hPa 0,0 l/m 0,0 km/h (0 Bft) NO 49 12,8 C 0,0 km/h (0 Bft) 100 %
12.07.2018 00:28 13,4 C 96 % 1014,8 hPa 0,0 l/m 0,4 km/h (0 Bft) NW 307 12,8 C 3,1 km/h (1 Bft) 100 %
12.07.2018 00:29 13,3 C 96 % 1014,9 hPa 0,0 l/m 0,0 km/h (0 Bft) NW 315 12,7 C 0,0 km/h (0 Bft) 100 %
12.07.2018 00:30 13,4 C 96 % 1014,8 hPa 0,0 l/m 0,0 km/h (0 Bft) N-NW 338 12,8 C 0,0 km/h (0 Bft) 100 %
12.07.2018 00:31 13,3 C 96 % 1014,9 hPa 0,0 l/m 0,0 km/h (0 Bft) N-NW 338 12,7 C 0,0 km/h (0 Bft) 100 %
12.07.2018 00:32 13,3 C 96 % 1014,8 hPa 0,0 l/m 0,0 km/h (0 Bft) N-NW 338 12,7 C 0,0 km/h (0 Bft) 100 %
12.07.2018 00:33 13,3 C 96 % 1014,8 hPa 0,0 l/m 0,0 km/h (0 Bft) N-NW 338 12,7 C 0,0 km/h (0 Bft) 100 %
12.07.2018 00:34 13,3 C 96 % 1014,8 hPa 0,0 l/m 0,0 km/h (0 Bft) N-NW 337 12,7 C 0,0 km/h (0 Bft) 100 %
12.07.2018 00:35 13,3 C 96 % 1014,9 hPa 0,0 l/m 0,0 km/h (0 Bft) N-NW 337 12,7 C 0,0 km/h (0 Bft) 100 %
12.07.2018 00:36 13,3 C 96 % 1014,8 hPa 0,0 l/m 0,0 km/h (0 Bft) N-NW 338 12,7 C 0,0 km/h (0 Bft) 100 %
12.07.2018 00:37 13,3 C 96 % 1014,8 hPa 0,0 l/m 0,0 km/h (0 Bft) N-NW 338 12,7 C 0,0 km/h (0 Bft) 100 %
12.07.2018 00:38 13,2 C 96 % 1014,8 hPa 0,0 l/m 0,0 km/h (0 Bft) N-NW 338 12,6 C 0,0 km/h (0 Bft) 100 %
12.07.2018 00:39 13,2 C 96 % 1014,8 hPa 0,0 l/m 0,0 km/h (0 Bft) N-NW 338 12,6 C 0,0 km/h (0 Bft) 100 %
12.07.2018 00:40 13,2 C 96 % 1014,9 hPa 0,0 l/m 0,0 km/h (0 Bft) N-NW 338 12,6 C 0,0 km/h (0 Bft) 100 %
12.07.2018 00:41 13,2 C 96 % 1014,9 hPa 0,0 l/m 0,0 km/h (0 Bft) N-NW 338 12,6 C 0,0 km/h (0 Bft) 100 %
12.07.2018 00:42 13,2 C 96 % 1014,9 hPa 0,0 l/m 0,0 km/h (0 Bft) N-NW 338 12,6 C 0,0 km/h (0 Bft) 100 %
12.07.2018 00:43 13,1 C 96 % 1014,9 hPa 0,0 l/m 0,0 km/h (0 Bft) N-NW 338 12,5 C 0,0 km/h (0 Bft) 100 %
12.07.2018 00:44 13,1 C 96 % 1014,9 hPa 0,0 l/m 0,0 km/h (0 Bft) N-NW 338 12,5 C 0,0 km/h (0 Bft) 100 %
12.07.2018 00:45 13,1 C 96 % 1015,0 hPa 0,0 l/m 0,0 km/h (0 Bft) N-NW 338 12,5 C 0,0 km/h (0 Bft) 100 %
12.07.2018 00:46 13,1 C 96 % 1015,0 hPa 0,0 l/m 0,0 km/h (0 Bft) N-NW 338 12,5 C 0,0 km/h (0 Bft) 100 %
12.07.2018 00:47 13,1 C 96 % 1015,0 hPa 0,0 l/m 0,0 km/h (0 Bft) N-NW 338 12,5 C 0,0 km/h (0 Bft) 100 %
12.07.2018 00:48 13,1 C 96 % 1015,0 hPa 0,0 l/m 0,0 km/h (0 Bft) N-NW 338 12,5 C 0,0 km/h (0 Bft) 100 %
12.07.2018 00:49 13,0 C 96 % 1015,0 hPa 0,0 l/m 0,0 km/h (0 Bft) N-NW 338 12,4 C 0,0 km/h (0 Bft) 100 %
12.07.2018 00:50 13,0 C 96 % 1015,0 hPa 0,0 l/m 0,1 km/h (0 Bft) N 350 12,4 C 3,1 km/h (1 Bft) 100 %
12.07.2018 00:51 13,0 C 96 % 1015,0 hPa 0,0 l/m 0,0 km/h (0 Bft) N 350 12,4 C 0,0 km/h (0 Bft) 100 %
12.07.2018 00:52 13,0 C 96 % 1015,0 hPa 0,0 l/m 0,0 km/h (0 Bft) N 350 12,4 C 0,0 km/h (0 Bft) 100 %
12.07.2018 00:53 13,0 C 96 % 1014,9 hPa 0,0 l/m 0,0 km/h (0 Bft) N 350 12,4 C 0,0 km/h (0 Bft) 100 %
12.07.2018 00:54 13,0 C 96 % 1015,0 hPa 0,0 l/m 0,0 km/h (0 Bft) N 350 12,4 C 0,0 km/h (0 Bft) 96 %
12.07.2018 00:55 13,0 C 96 % 1014,9 hPa 0,0 l/m 0,0 km/h (0 Bft) N 350 12,4 C 0,0 km/h (0 Bft) 96 %
12.07.2018 00:56 12,9 C 96 % 1015,0 hPa 0,0 l/m 0,0 km/h (0 Bft) N 350 12,3 C 0,0 km/h (0 Bft) 100 %
12.07.2018 00:57 12,9 C 96 % 1014,9 hPa 0,0 l/m 0,0 km/h (0 Bft) N 350 12,3 C 0,0 km/h (0 Bft) 100 %
12.07.2018 00:58 12,9 C 96 % 1014,9 hPa 0,0 l/m 0,0 km/h (0 Bft) N 350 12,3 C 0,0 km/h (0 Bft) 100 %
12.07.2018 00:59 12,9 C 96 % 1015,0 hPa 0,0 l/m 0,0 km/h (0 Bft) N 350 12,3 C 0,0 km/h (0 Bft) 96 %
12.07.2018 01:00 12,9 C 96 % 1015,0 hPa 0,0 l/m 0,0 km/h (0 Bft) N 350 12,3 C 0,0 km/h (0 Bft) 100 %
12.07.2018 01:01 12,9 C 96 % 1015,0 hPa 0,0 l/m 0,0 km/h (0 Bft) N 350 12,3 C 0,0 km/h (0 Bft) 96 %
12.07.2018 01:02 12,9 C 96 % 1015,0 hPa 0,0 l/m 0,0 km/h (0 Bft) N 350 12,3 C 0,0 km/h (0 Bft) 96 %
12.07.2018 01:03 12,9 C 96 % 1015,1 hPa 0,0 l/m 0,0 km/h (0 Bft) N-NW 348 12,3 C 0,0 km/h (0 Bft) 96 %
12.07.2018 01:04 12,9 C 96 % 1015,1 hPa 0,0 l/m 0,0 km/h (0 Bft) N-NW 348 12,3 C 0,0 km/h (0 Bft) 96 %
12.07.2018 01:05 12,9 C 96 % 1015,0 hPa 0,0 l/m 0,0 km/h (0 Bft) N-NW 348 12,3 C 0,0 km/h (0 Bft) 100 %
12.07.2018 01:06 12,9 C 96 % 1015,1 hPa 0,0 l/m 0,0 km/h (0 Bft) N-NW 348 12,3 C 0,0 km/h (0 Bft) 96 %
12.07.2018 01:07 12,8 C 96 % 1015,1 hPa 0,0 l/m 0,0 km/h (0 Bft) N-NW 348 12,2 C 0,0 km/h (0 Bft) 100 %
12.07.2018 01:08 12,8 C 97 % 1015,1 hPa 0,0 l/m 0,0 km/h (0 Bft) N-NW 348 12,3 C 0,0 km/h (0 Bft) 92 %
12.07.2018 01:09 12,8 C 97 % 1015,2 hPa 0,0 l/m 0,0 km/h (0 Bft) N 349 12,3 C 0,0 km/h (0 Bft) 100 %
12.07.2018 01:10 12,8 C 97 % 1015,1 hPa 0,0 l/m 0,0 km/h (0 Bft) N 349 12,3 C 0,0 km/h (0 Bft) 96 %
12.07.2018 01:11 12,8 C 97 % 1015,2 hPa 0,0 l/m 0,0 km/h (0 Bft) N 349 12,3 C 0,0 km/h (0 Bft) 100 %
12.07.2018 01:12 12,8 C 97 % 1015,1 hPa 0,0 l/m 0,0 km/h (0 Bft) N 349 12,3 C 0,0 km/h (0 Bft) 100 %
12.07.2018 01:13 12,8 C 97 % 1015,1 hPa 0,0 l/m 0,0 km/h (0 Bft) N 349 12,3 C 0,0 km/h (0 Bft) 100 %
12.07.2018 01:14 12,8 C 97 % 1015,1 hPa 0,0 l/m 0,0 km/h (0 Bft) N 349 12,3 C 0,0 km/h (0 Bft) 100 %
12.07.2018 01:15 12,8 C 97 % 1015,1 hPa 0,0 l/m 0,0 km/h (0 Bft) N 349 12,3 C 0,0 km/h (0 Bft) 100 %
12.07.2018 01:16 12,8 C 97 % 1015,1 hPa 0,0 l/m 0,0 km/h (0 Bft) N 349 12,3 C 0,0 km/h (0 Bft) 100 %
12.07.2018 01:17 12,8 C 97 % 1015,1 hPa 0,0 l/m 0,0 km/h (0 Bft) N 349 12,3 C 0,0 km/h (0 Bft) 100 %
12.07.2018 01:18 12,8 C 97 % 1015,1 hPa 0,0 l/m 0,0 km/h (0 Bft) N 349 12,3 C 0,0 km/h (0 Bft) 100 %
12.07.2018 01:19 12,7 C 97 % 1015,1 hPa 0,0 l/m 0,0 km/h (0 Bft) N 349 12,2 C 0,0 km/h (0 Bft) 100 %
12.07.2018 01:20 12,7 C 97 % 1015,1 hPa 0,0 l/m 0,0 km/h (0 Bft) N 349 12,2 C 0,0 km/h (0 Bft) 100 %
12.07.2018 01:21 12,7 C 97 % 1015,1 hPa 0,0 l/m 0,0 km/h (0 Bft) N 349 12,2 C 0,0 km/h (0 Bft) 100 %
12.07.2018 01:22 12,8 C 97 % 1015,0 hPa 0,0 l/m 0,0 km/h (0 Bft) N 349 12,3 C 0,0 km/h (0 Bft) 100 %
12.07.2018 01:23 12,8 C 97 % 1015,0 hPa 0,0 l/m 0,0 km/h (0 Bft) N 349 12,3 C 0,0 km/h (0 Bft) 100 %
12.07.2018 01:24 12,8 C 97 % 1015,0 hPa 0,0 l/m 0,0 km/h (0 Bft) N 349 12,3 C 0,0 km/h (0 Bft) 100 %
12.07.2018 01:25 12,8 C 97 % 1015,1 hPa 0,0 l/m 0,0 km/h (0 Bft) N 349 12,3 C 0,0 km/h (0 Bft) 100 %
12.07.2018 01:26 12,8 C 97 % 1015,0 hPa 0,0 l/m 0,0 km/h (0 Bft) N 349 12,3 C 0,0 km/h (0 Bft) 100 %
12.07.2018 01:27 12,7 C 97 % 1015,0 hPa 0,0 l/m 0,0 km/h (0 Bft) N 349 12,2 C 0,0 km/h (0 Bft) 100 %
12.07.2018 01:28 12,7 C 97 % 1015,0 hPa 0,0 l/m 0,0 km/h (0 Bft) N 349 12,2 C 0,0 km/h (0 Bft) 100 %
12.07.2018 01:29 12,7 C 97 % 1015,0 hPa 0,0 l/m 0,0 km/h (0 Bft) N 349 12,2 C 0,0 km/h (0 Bft) 100 %
12.07.2018 01:30 12,7 C 97 % 1015,0 hPa 0,0 l/m 0,0 km/h (0 Bft) N 349 12,2 C 0,0 km/h (0 Bft) 100 %
12.07.2018 01:31 12,7 C 97 % 1015,1 hPa 0,0 l/m 0,0 km/h (0 Bft) N 349 12,2 C 0,0 km/h (0 Bft) 100 %
12.07.2018 01:32 12,7 C 97 % 1015,0 hPa 0,0 l/m 0,0 km/h (0 Bft) N 349 12,2 C 0,0 km/h (0 Bft) 100 %
12.07.2018 01:33 12,7 C 97 % 1015,1 hPa 0,0 l/m 0,0 km/h (0 Bft) N 349 12,2 C 0,0 km/h (0 Bft) 100 %
12.07.2018 01:34 12,7 C 97 % 1015,1 hPa 0,0 l/m 0,0 km/h (0 Bft) N 349 12,2 C 0,0 km/h (0 Bft) 100 %
12.07.2018 01:35 12,6 C 97 % 1015,0 hPa 0,0 l/m 0,0 km/h (0 Bft) N 349 12,1 C 0,0 km/h (0 Bft) 100 %
12.07.2018 01:36 12,6 C 97 % 1015,0 hPa 0,0 l/m 0,0 km/h (0 Bft) N 349 12,1 C 0,0 km/h (0 Bft) 100 %
12.07.2018 01:37 12,6 C 97 % 1015,0 hPa 0,0 l/m 0,0 km/h (0 Bft) N 349 12,1 C 0,0 km/h (0 Bft) 100 %
12.07.2018 01:38 12,6 C 97 % 1015,0 hPa 0,0 l/m 0,0 km/h (0 Bft) N 349 12,1 C 0,0 km/h (0 Bft) 100 %
12.07.2018 01:39 12,6 C 97 % 1015,0 hPa 0,0 l/m 0,0 km/h (0 Bft) N 349 12,1 C 0,0 km/h (0 Bft) 100 %
12.07.2018 01:40 12,6 C 97 % 1015,0 hPa 0,0 l/m 0,0 km/h (0 Bft) N 349 12,1 C 0,0 km/h (0 Bft) 100 %
12.07.2018 01:41 12,6 C 97 % 1014,9 hPa 0,0 l/m 0,0 km/h (0 Bft) N 349 12,1 C 0,0 km/h (0 Bft) 100 %
12.07.2018 01:42 12,6 C 97 % 1014,9 hPa 0,0 l/m 0,0 km/h (0 Bft) N 349 12,1 C 0,0 km/h (0 Bft) 100 %
12.07.2018 01:43 12,5 C 97 % 1014,9 hPa 0,0 l/m 0,0 km/h (0 Bft) N 349 12,0 C 0,0 km/h (0 Bft) 100 %
12.07.2018 01:44 12,5 C 97 % 1014,9 hPa 0,0 l/m 0,0 km/h (0 Bft) N 349 12,0 C 0,0 km/h (0 Bft) 100 %
12.07.2018 01:45 12,5 C 97 % 1014,9 hPa 0,0 l/m 0,0 km/h (0 Bft) N 349 12,0 C 0,0 km/h (0 Bft) 100 %
12.07.2018 01:46 12,5 C 97 % 1014,9 hPa 0,0 l/m 0,0 km/h (0 Bft) N 349 12,0 C 0,0 km/h (0 Bft) 100 %
12.07.2018 01:47 12,4 C 97 % 1014,9 hPa 0,0 l/m 0,0 km/h (0 Bft) N 349 11,9 C 0,0 km/h (0 Bft) 100 %
12.07.2018 01:48 12,4 C 97 % 1014,9 hPa 0,0 l/m 0,0 km/h (0 Bft) N 349 11,9 C 0,0 km/h (0 Bft) 100 %
12.07.2018 01:49 12,4 C 97 % 1015,0 hPa 0,0 l/m 0,0 km/h (0 Bft) N 349 11,9 C 0,0 km/h (0 Bft) 100 %
12.07.2018 01:50 12,4 C 97 % 1014,9 hPa 0,0 l/m 0,0 km/h (0 Bft) N 349 11,9 C 0,0 km/h (0 Bft) 100 %
12.07.2018 01:51 12,4 C 97 % 1014,9 hPa 0,0 l/m 0,0 km/h (0 Bft) N 349 11,9 C 0,0 km/h (0 Bft) 100 %
12.07.2018 01:52 12,3 C 97 % 1014,9 hPa 0,0 l/m 0,0 km/h (0 Bft) N 349 11,8 C 0,0 km/h (0 Bft) 100 %
12.07.2018 01:53 12,3 C 97 % 1014,9 hPa 0,0 l/m 0,0 km/h (0 Bft) N 349 11,8 C 0,0 km/h (0 Bft) 100 %
12.07.2018 01:54 12,3 C 97 % 1014,9 hPa 0,0 l/m 0,0 km/h (0 Bft) N 349 11,8 C 0,0 km/h (0 Bft) 100 %
12.07.2018 01:55 12,3 C 97 % 1014,9 hPa 0,0 l/m 0,0 km/h (0 Bft) N 349 11,8 C 0,0 km/h (0 Bft) 100 %
12.07.2018 01:56 12,2 C 97 % 1014,9 hPa 0,0 l/m 0,0 km/h (0 Bft) N 349 11,7 C 0,0 km/h (0 Bft) 100 %
12.07.2018 01:57 12,2 C 97 % 1014,9 hPa 0,0 l/m 0,0 km/h (0 Bft) N 349 11,7 C 0,0 km/h (0 Bft) 100 %
12.07.2018 01:58 12,2 C 97 % 1014,9 hPa 0,0 l/m 0,0 km/h (0 Bft) N 349 11,7 C 0,0 km/h (0 Bft) 100 %
12.07.2018 01:59 12,1 C 97 % 1014,9 hPa 0,0 l/m 0,0 km/h (0 Bft) N 349 11,6 C 0,0 km/h (0 Bft) 100 %
12.07.2018 02:00 12,1 C 97 % 1014,9 hPa 0,0 l/m 0,0 km/h (0 Bft) N 349 11,6 C 0,0 km/h (0 Bft) 100 %
12.07.2018 02:01 12,2 C 97 % 1015,0 hPa 0,0 l/m 0,0 km/h (0 Bft) N 349 11,7 C 0,0 km/h (0 Bft) 100 %
12.07.2018 02:02 12,2 C 97 % 1014,9 hPa 0,0 l/m 0,0 km/h (0 Bft) N 349 11,7 C 0,0 km/h (0 Bft) 100 %
12.07.2018 02:03 12,2 C 98 % 1014,9 hPa 0,0 l/m 0,0 km/h (0 Bft) N 349 11,9 C 0,0 km/h (0 Bft) 100 %
12.07.2018 02:04 12,3 C 98 % 1014,9 hPa 0,0 l/m 0,0 km/h (0 Bft) W 276 12,0 C 0,0 km/h (0 Bft) 100 %
12.07.2018 02:05 12,3 C 98 % 1014,9 hPa 0,0 l/m 0,0 km/h (0 Bft) W 276 12,0 C 0,0 km/h (0 Bft) 100 %
12.07.2018 02:06 12,3 C 98 % 1014,9 hPa 0,0 l/m 0,0 km/h (0 Bft) W 276 12,0 C 0,0 km/h (0 Bft) 100 %
12.07.2018 02:07 12,3 C 98 % 1014,9 hPa 0,0 l/m 0,0 km/h (0 Bft) W 276 12,0 C 0,0 km/h (0 Bft) 100 %
12.07.2018 02:08 12,4 C 98 % 1014,9 hPa 0,0 l/m 0,0 km/h (0 Bft) W 276 12,1 C 0,0 km/h (0 Bft) 96 %
12.07.2018 02:09 12,4 C 98 % 1014,9 hPa 0,0 l/m 0,0 km/h (0 Bft) W-NW 288 12,1 C 0,0 km/h (0 Bft) 100 %
12.07.2018 02:10 12,4 C 98 % 1014,9 hPa 0,0 l/m 0,0 km/h (0 Bft) W-NW 288 12,1 C 0,0 km/h (0 Bft) 100 %
12.07.2018 02:11 12,4 C 98 % 1014,9 hPa 0,0 l/m 0,0 km/h (0 Bft) W-NW 288 12,1 C 0,0 km/h (0 Bft) 100 %
12.07.2018 02:12 12,4 C 98 % 1015,0 hPa 0,0 l/m 0,0 km/h (0 Bft) W-NW 288 12,1 C 0,0 km/h (0 Bft) 96 %
12.07.2018 02:13 12,4 C 98 % 1014,9 hPa 0,0 l/m 0,0 km/h (0 Bft) W-NW 288 12,1 C 0,0 km/h (0 Bft) 100 %
12.07.2018 02:14 12,4 C 98 % 1014,9 hPa 0,0 l/m 0,0 km/h (0 Bft) W-NW 288 12,1 C 0,0 km/h (0 Bft) 96 %
12.07.2018 02:15 12,4 C 98 % 1014,9 hPa 0,0 l/m 0,0 km/h (0 Bft) W-NW 288 12,1 C 0,0 km/h (0 Bft) 100 %
12.07.2018 02:16 12,4 C 97 % 1014,9 hPa 0,0 l/m 0,0 km/h (0 Bft) W-NW 288 11,9 C 0,0 km/h (0 Bft) 96 %
12.07.2018 02:17 12,3 C 97 % 1014,9 hPa 0,0 l/m 0,0 km/h (0 Bft) W-NW 288 11,8 C 0,0 km/h (0 Bft) 100 %
12.07.2018 02:18 12,3 C 97 % 1014,9 hPa 0,0 l/m 0,0 km/h (0 Bft) W-NW 288 11,8 C 0,0 km/h (0 Bft) 96 %
12.07.2018 02:19 12,3 C 97 % 1014,9 hPa 0,0 l/m 0,0 km/h (0 Bft) W-NW 288 11,8 C 0,0 km/h (0 Bft) 100 %
12.07.2018 02:20 12,3 C 97 % 1015,0 hPa 0,0 l/m 0,0 km/h (0 Bft) W-NW 288 11,8 C 0,0 km/h (0 Bft) 96 %
12.07.2018 02:21 12,2 C 97 % 1015,0 hPa 0,0 l/m 0,0 km/h (0 Bft) W-NW 288 11,7 C 0,0 km/h (0 Bft) 96 %
12.07.2018 02:22 12,2 C 97 % 1015,0 hPa 0,0 l/m 0,0 km/h (0 Bft) W-NW 288 11,7 C 0,0 km/h (0 Bft) 100 %
12.07.2018 02:23 12,2 C 97 % 1015,0 hPa 0,0 l/m 0,0 km/h (0 Bft) W-NW 288 11,7 C 0,0 km/h (0 Bft) 96 %
12.07.2018 02:24 12,1 C 97 % 1014,9 hPa 0,0 l/m 0,0 km/h (0 Bft) W-NW 288 11,6 C 0,0 km/h (0 Bft) 100 %
12.07.2018 02:25 12,1 C 97 % 1014,9 hPa 0,0 l/m 0,0 km/h (0 Bft) W-NW 288 11,6 C 0,0 km/h (0 Bft) 100 %
12.07.2018 02:26 12,0 C 97 % 1014,9 hPa 0,0 l/m 0,0 km/h (0 Bft) W-NW 288 11,5 C 0,0 km/h (0 Bft) 100 %
12.07.2018 02:27 11,9 C 97 % 1015,0 hPa 0,0 l/m 0,0 km/h (0 Bft) W-NW 288 11,4 C 0,0 km/h (0 Bft) 100 %
12.07.2018 02:28 11,9 C 97 % 1014,9 hPa 0,0 l/m 0,0 km/h (0 Bft) W-NW 288 11,4 C 0,0 km/h (0 Bft) 100 %
12.07.2018 02:29 11,9 C 97 % 1014,9 hPa 0,0 l/m 0,0 km/h (0 Bft) W-NW 288 11,4 C 0,0 km/h (0 Bft) 100 %
12.07.2018 02:30 11,9 C 97 % 1014,9 hPa 0,0 l/m 0,0 km/h (0 Bft) W-NW 288 11,4 C 0,0 km/h (0 Bft) 100 %
12.07.2018 02:31 11,9 C 97 % 1014,9 hPa 0,0 l/m 0,0 km/h (0 Bft) W-NW 288 11,4 C 0,0 km/h (0 Bft) 100 %
12.07.2018 02:32 11,8 C 97 % 1014,9 hPa 0,0 l/m 0,0 km/h (0 Bft) W-NW 288 11,3 C 0,0 km/h (0 Bft) 100 %
12.07.2018 02:33 11,8 C 97 % 1014,9 hPa 0,0 l/m 0,0 km/h (0 Bft) W-NW 288 11,3 C 0,0 km/h (0 Bft) 100 %
12.07.2018 02:34 11,8 C 97 % 1014,8 hPa 0,0 l/m 0,0 km/h (0 Bft) W-NW 288 11,3 C 0,0 km/h (0 Bft) 100 %
12.07.2018 02:35 11,8 C 97 % 1014,8 hPa 0,0 l/m 0,0 km/h (0 Bft) W-NW 288 11,3 C 0,0 km/h (0 Bft) 100 %
12.07.2018 02:36 11,8 C 97 % 1014,8 hPa 0,0 l/m 0,0 km/h (0 Bft) W-NW 288 11,3 C 0,0 km/h (0 Bft) 100 %
12.07.2018 02:37 11,8 C 97 % 1014,8 hPa 0,0 l/m 0,0 km/h (0 Bft) W-NW 288 11,3 C 0,0 km/h (0 Bft) 100 %
12.07.2018 02:38 11,7 C 97 % 1014,9 hPa 0,0 l/m 0,0 km/h (0 Bft) W-NW 288 11,2 C 0,0 km/h (0 Bft) 100 %
12.07.2018 02:39 11,7 C 97 % 1014,9 hPa 0,0 l/m 0,0 km/h (0 Bft) W-NW 288 11,2 C 0,0 km/h (0 Bft) 100 %
12.07.2018 02:40 11,7 C 97 % 1014,9 hPa 0,0 l/m 0,0 km/h (0 Bft) W-NW 288 11,2 C 0,0 km/h (0 Bft) 100 %
12.07.2018 02:41 11,6 C 97 % 1014,9 hPa 0,0 l/m 0,0 km/h (0 Bft) W-NW 288 11,1 C 0,0 km/h (0 Bft) 100 %
12.07.2018 02:42 11,6 C 97 % 1014,9 hPa 0,0 l/m 0,0 km/h (0 Bft) W-NW 288 11,1 C 0,0 km/h (0 Bft) 100 %
12.07.2018 02:43 11,6 C 97 % 1014,9 hPa 0,0 l/m 0,0 km/h (0 Bft) W-NW 288 11,1 C 0,0 km/h (0 Bft) 100 %
12.07.2018 02:44 11,6 C 97 % 1014,9 hPa 0,0 l/m 0,0 km/h (0 Bft) W-NW 288 11,1 C 0,0 km/h (0 Bft) 100 %
12.07.2018 02:45 11,6 C 97 % 1015,0 hPa 0,0 l/m 0,0 km/h (0 Bft) W-NW 288 11,1 C 0,0 km/h (0 Bft) 100 %
12.07.2018 02:46 11,5 C 97 % 1015,0 hPa 0,0 l/m 0,0 km/h (0 Bft) W-NW 288 11,0 C 0,0 km/h (0 Bft) 100 %
12.07.2018 02:47 11,5 C 97 % 1015,0 hPa 0,0 l/m 0,0 km/h (0 Bft) W-NW 288 11,0 C 0,0 km/h (0 Bft) 100 %
12.07.2018 02:48 11,4 C 97 % 1015,0 hPa 0,0 l/m 0,0 km/h (0 Bft) W-NW 288 10,9 C 0,0 km/h (0 Bft) 100 %
12.07.2018 02:49 11,4 C 97 % 1015,0 hPa 0,0 l/m 0,0 km/h (0 Bft) W-NW 288 10,9 C 0,0 km/h (0 Bft) 100 %
12.07.2018 02:50 11,4 C 97 % 1015,0 hPa 0,0 l/m 0,0 km/h (0 Bft) W-NW 288 10,9 C 0,0 km/h (0 Bft) 100 %
12.07.2018 02:51 11,3 C 97 % 1015,0 hPa 0,0 l/m 0,0 km/h (0 Bft) W-NW 288 10,8 C 0,0 km/h (0 Bft) 100 %
12.07.2018 02:52 11,3 C 97 % 1015,0 hPa 0,0 l/m 0,0 km/h (0 Bft) W-NW 288 10,8 C 0,0 km/h (0 Bft) 100 %
12.07.2018 02:53 11,3 C 97 % 1015,0 hPa 0,0 l/m 0,0 km/h (0 Bft) W-NW 288 10,8 C 0,0 km/h (0 Bft) 100 %
12.07.2018 02:54 11,3 C 97 % 1015,0 hPa 0,0 l/m 0,0 km/h (0 Bft) W-NW 288 10,8 C 0,0 km/h (0 Bft) 100 %
12.07.2018 02:55 11,3 C 97 % 1015,0 hPa 0,0 l/m 0,0 km/h (0 Bft) W-NW 288 10,8 C 0,0 km/h (0 Bft) 100 %
12.07.2018 02:56 11,3 C 97 % 1015,0 hPa 0,0 l/m 0,0 km/h (0 Bft) W-NW 288 10,8 C 0,0 km/h (0 Bft) 100 %
12.07.2018 02:57 11,3 C 97 % 1015,0 hPa 0,0 l/m 0,0 km/h (0 Bft) W-NW 288 10,8 C 0,0 km/h (0 Bft) 100 %
12.07.2018 02:58 11,2 C 97 % 1015,0 hPa 0,0 l/m 0,0 km/h (0 Bft) W-NW 288 10,7 C 0,0 km/h (0 Bft) 100 %
12.07.2018 02:59 11,2 C 97 % 1014,9 hPa 0,0 l/m 0,0 km/h (0 Bft) W-NW 288 10,7 C 0,0 km/h (0 Bft) 100 %
12.07.2018 03:00 11,2 C 97 % 1014,9 hPa 0,0 l/m 0,0 km/h (0 Bft) W-NW 288 10,7 C 0,0 km/h (0 Bft) 100 %
12.07.2018 03:01 11,2 C 97 % 1014,8 hPa 0,0 l/m 0,0 km/h (0 Bft) W-NW 288 10,7 C 0,0 km/h (0 Bft) 100 %
12.07.2018 03:02 11,2 C 97 % 1014,8 hPa 0,0 l/m 0,0 km/h (0 Bft) W-NW 288 10,7 C 0,0 km/h (0 Bft) 100 %
12.07.2018 03:03 11,2 C 97 % 1014,8 hPa 0,0 l/m 0,0 km/h (0 Bft) W-NW 288 10,7 C 0,0 km/h (0 Bft) 100 %
12.07.2018 03:04 11,2 C 98 % 1014,8 hPa 0,0 l/m 0,0 km/h (0 Bft) W-NW 288 10,9 C 0,0 km/h (0 Bft) 100 %
12.07.2018 03:05 11,2 C 98 % 1014,8 hPa 0,0 l/m 0,0 km/h (0 Bft) W-NW 288 10,9 C 0,0 km/h (0 Bft) 100 %
12.07.2018 03:06 11,2 C 98 % 1014,9 hPa 0,0 l/m 0,0 km/h (0 Bft) W-NW 288 10,9 C 0,0 km/h (0 Bft) 100 %
12.07.2018 03:07 11,2 C 98 % 1014,9 hPa 0,0 l/m 0,0 km/h (0 Bft) W-NW 288 10,9 C 0,0 km/h (0 Bft) 100 %
12.07.2018 03:08 11,2 C 98 % 1015,0 hPa 0,0 l/m 0,0 km/h (0 Bft) W-NW 288 10,9 C 0,0 km/h (0 Bft) 100 %
12.07.2018 03:09 11,2 C 98 % 1015,0 hPa 0,0 l/m 0,0 km/h (0 Bft) W-NW 288 10,9 C 0,0 km/h (0 Bft) 100 %
12.07.2018 03:10 11,2 C 98 % 1015,0 hPa 0,0 l/m 0,0 km/h (0 Bft) W-NW 288 10,9 C 0,0 km/h (0 Bft) 100 %
12.07.2018 03:11 11,2 C 98 % 1015,0 hPa 0,0 l/m 0,0 km/h (0 Bft) W-NW 288 10,9 C 0,0 km/h (0 Bft) 100 %
12.07.2018 03:12 11,2 C 98 % 1015,0 hPa 0,0 l/m 0,0 km/h (0 Bft) W-NW 288 10,9 C 0,0 km/h (0 Bft) 100 %
12.07.2018 03:13 11,2 C 98 % 1015,0 hPa 0,0 l/m 0,0 km/h (0 Bft) W-NW 288 10,9 C 0,0 km/h (0 Bft) 100 %
12.07.2018 03:14 11,2 C 98 % 1015,0 hPa 0,0 l/m 0,0 km/h (0 Bft) W-NW 288 10,9 C 0,0 km/h (0 Bft) 100 %
12.07.2018 03:15 11,2 C 98 % 1014,9 hPa 0,0 l/m 0,0 km/h (0 Bft) W-NW 288 10,9 C 0,0 km/h (0 Bft) 100 %
12.07.2018 03:16 11,2 C 98 % 1014,9 hPa 0,0 l/m 0,0 km/h (0 Bft) W-NW 288 10,9 C 0,0 km/h (0 Bft) 100 %
12.07.2018 03:17 11,3 C 98 % 1015,0 hPa 0,0 l/m 0,0 km/h (0 Bft) W-NW 288 11,0 C 0,0 km/h (0 Bft) 100 %
12.07.2018 03:18 11,3 C 98 % 1014,9 hPa 0,0 l/m 0,0 km/h (0 Bft) W-NW 288 11,0 C 0,0 km/h (0 Bft) 100 %
12.07.2018 03:19 11,3 C 98 % 1015,0 hPa 0,0 l/m 0,0 km/h (0 Bft) W-NW 288 11,0 C 0,0 km/h (0 Bft) 100 %
12.07.2018 03:20 11,3 C 98 % 1015,0 hPa 0,0 l/m 0,0 km/h (0 Bft) W-NW 288 11,0 C 0,0 km/h (0 Bft) 100 %
12.07.2018 03:21 11,3 C 98 % 1015,0 hPa 0,0 l/m 0,0 km/h (0 Bft) W-NW 288 11,0 C 0,0 km/h (0 Bft) 100 %
12.07.2018 03:22 11,3 C 98 % 1015,0 hPa 0,0 l/m 0,0 km/h (0 Bft) W-NW 288 11,0 C 0,0 km/h (0 Bft) 100 %
12.07.2018 03:23 11,3 C 98 % 1015,0 hPa 0,0 l/m 0,0 km/h (0 Bft) W-NW 288 11,0 C 0,0 km/h (0 Bft) 100 %
12.07.2018 03:24 11,3 C 98 % 1015,0 hPa 0,0 l/m 0,0 km/h (0 Bft) W-NW 288 11,0 C 0,0 km/h (0 Bft) 100 %
12.07.2018 03:25 11,3 C 98 % 1015,0 hPa 0,0 l/m 0,0 km/h (0 Bft) W-NW 288 11,0 C 0,0 km/h (0 Bft) 96 %
12.07.2018 03:26 11,3 C 98 % 1015,1 hPa 0,0 l/m 0,0 km/h (0 Bft) W-NW 288 11,0 C 0,0 km/h (0 Bft) 96 %
12.07.2018 03:27 11,3 C 98 % 1015,1 hPa 0,0 l/m 0,0 km/h (0 Bft) W-NW 288 11,0 C 0,0 km/h (0 Bft) 100 %
12.07.2018 03:28 11,3 C 98 % 1015,1 hPa 0,0 l/m 0,0 km/h (0 Bft) W-NW 288 11,0 C 0,0 km/h (0 Bft) 100 %
12.07.2018 03:29 11,3 C 98 % 1015,1 hPa 0,0 l/m 0,0 km/h (0 Bft) W-NW 288 11,0 C 0,0 km/h (0 Bft) 96 %
12.07.2018 03:30 11,3 C 98 % 1015,1 hPa 0,0 l/m 0,0 km/h (0 Bft) W-NW 288 11,0 C 0,0 km/h (0 Bft) 100 %
12.07.2018 03:31 11,3 C 98 % 1015,1 hPa 0,0 l/m 0,0 km/h (0 Bft) W-NW 288 11,0 C 0,0 km/h (0 Bft) 100 %
12.07.2018 03:32 11,3 C 98 % 1015,1 hPa 0,0 l/m 0,0 km/h (0 Bft) W-NW 288 11,0 C 0,0 km/h (0 Bft) 96 %
12.07.2018 03:33 11,3 C 98 % 1015,1 hPa 0,0 l/m 0,0 km/h (0 Bft) W-NW 288 11,0 C 0,0 km/h (0 Bft) 96 %
12.07.2018 03:34 11,3 C 98 % 1015,1 hPa 0,0 l/m 0,0 km/h (0 Bft) W-NW 288 11,0 C 0,0 km/h (0 Bft) 100 %
12.07.2018 03:35 11,3 C 98 % 1015,1 hPa 0,0 l/m 0,0 km/h (0 Bft) W-NW 288 11,0 C 0,0 km/h (0 Bft) 96 %
12.07.2018 03:36 11,2 C 98 % 1015,1 hPa 0,0 l/m 0,0 km/h (0 Bft) W-NW 288 10,9 C 0,0 km/h (0 Bft) 100 %
12.07.2018 03:37 11,3 C 98 % 1015,1 hPa 0,0 l/m 0,0 km/h (0 Bft) W-NW 288 11,0 C 0,0 km/h (0 Bft) 96 %
12.07.2018 03:38 11,3 C 98 % 1015,1 hPa 0,0 l/m 0,0 km/h (0 Bft) W-NW 288 11,0 C 0,0 km/h (0 Bft) 100 %
12.07.2018 03:39 11,3 C 98 % 1015,1 hPa 0,0 l/m 0,0 km/h (0 Bft) W-NW 288 11,0 C 0,0 km/h (0 Bft) 96 %
12.07.2018 03:40 11,3 C 98 % 1015,1 hPa 0,2 l/m 0,0 km/h (0 Bft) W-NW 288 11,0 C 0,0 km/h (0 Bft) 96 %
12.07.2018 03:41 11,3 C 98 % 1015,0 hPa 0,0 l/m 0,0 km/h (0 Bft) W-NW 288 11,0 C 0,0 km/h (0 Bft) 100 %
12.07.2018 03:42 11,3 C 98 % 1015,0 hPa 0,0 l/m 0,0 km/h (0 Bft) W-SW 250 11,0 C 0,0 km/h (0 Bft) 96 %
12.07.2018 03:43 11,3 C 98 % 1015,1 hPa 0,0 l/m 0,0 km/h (0 Bft) W-SW 250 11,0 C 0,0 km/h (0 Bft) 100 %
12.07.2018 03:44 11,4 C 98 % 1015,1 hPa 0,0 l/m 0,0 km/h (0 Bft) W-SW 250 11,1 C 0,0 km/h (0 Bft) 96 %
12.07.2018 03:45 11,4 C 98 % 1015,0 hPa 0,0 l/m 0,0 km/h (0 Bft) W-SW 250 11,1 C 0,0 km/h (0 Bft) 100 %
12.07.2018 03:46 11,4 C 98 % 1015,1 hPa 0,0 l/m 0,0 km/h (0 Bft) W-SW 249 11,1 C 0,0 km/h (0 Bft) 100 %
12.07.2018 03:47 11,4 C 98 % 1015,0 hPa 0,0 l/m 0,0 km/h (0 Bft) W-SW 249 11,1 C 0,0 km/h (0 Bft) 100 %
12.07.2018 03:48 11,3 C 98 % 1015,0 hPa 0,0 l/m 0,0 km/h (0 Bft) W-SW 249 11,0 C 0,0 km/h (0 Bft) 100 %
12.07.2018 03:49 11,3 C 98 % 1015,1 hPa 0,0 l/m 0,0 km/h (0 Bft) W-SW 249 11,0 C 0,0 km/h (0 Bft) 100 %
12.07.2018 03:50 11,3 C 98 % 1015,1 hPa 0,0 l/m 0,0 km/h (0 Bft) W-SW 249 11,0 C 0,0 km/h (0 Bft) 100 %
12.07.2018 03:51 11,3 C 98 % 1015,1 hPa 0,0 l/m 0,0 km/h (0 Bft) W-SW 249 11,0 C 0,0 km/h (0 Bft) 100 %
12.07.2018 03:52 11,3 C 98 % 1015,2 hPa 0,0 l/m 0,0 km/h (0 Bft) W-SW 249 11,0 C 0,0 km/h (0 Bft) 100 %
12.07.2018 03:53 11,3 C 98 % 1015,1 hPa 0,0 l/m 0,0 km/h (0 Bft) W-SW 249 11,0 C 0,0 km/h (0 Bft) 100 %
12.07.2018 03:54 11,3 C 98 % 1015,1 hPa 0,0 l/m 0,0 km/h (0 Bft) W-SW 249 11,0 C 0,0 km/h (0 Bft) 100 %
12.07.2018 03:55 11,3 C 98 % 1015,1 hPa 0,0 l/m 0,0 km/h (0 Bft) W-SW 249 11,0 C 0,0 km/h (0 Bft) 100 %
12.07.2018 03:56 11,3 C 98 % 1015,1 hPa 0,0 l/m 0,0 km/h (0 Bft) W-SW 249 11,0 C 0,0 km/h (0 Bft) 100 %
12.07.2018 03:57 11,3 C 98 % 1015,1 hPa 0,0 l/m 0,0 km/h (0 Bft) W-SW 249 11,0 C 0,0 km/h (0 Bft) 100 %
12.07.2018 03:58 11,3 C 98 % 1015,1 hPa 0,0 l/m 0,0 km/h (0 Bft) W-SW 249 11,0 C 0,0 km/h (0 Bft) 100 %
12.07.2018 03:59 11,3 C 98 % 1015,1 hPa 0,0 l/m 0,0 km/h (0 Bft) W-SW 249 11,0 C 0,0 km/h (0 Bft) 100 %
12.07.2018 04:00 11,4 C 98 % 1015,1 hPa 0,0 l/m 0,0 km/h (0 Bft) W-SW 249 11,1 C 0,0 km/h (0 Bft) 100 %
12.07.2018 04:01 11,4 C 98 % 1015,1 hPa 0,0 l/m 0,0 km/h (0 Bft) W-SW 249 11,1 C 0,0 km/h (0 Bft) 100 %
12.07.2018 04:02 11,4 C 98 % 1015,1 hPa 0,0 l/m 0,0 km/h (0 Bft) W-SW 249 11,1 C 0,0 km/h (0 Bft) 100 %
12.07.2018 04:03 11,4 C 98 % 1015,1 hPa 0,0 l/m 0,0 km/h (0 Bft) W-SW 249 11,1 C 0,0 km/h (0 Bft) 100 %
12.07.2018 04:04 11,4 C 98 % 1015,1 hPa 0,0 l/m 0,0 km/h (0 Bft) W-SW 249 11,1 C 0,0 km/h (0 Bft) 100 %
12.07.2018 04:05 11,4 C 98 % 1015,1 hPa 0,0 l/m 0,0 km/h (0 Bft) W-SW 249 11,1 C 0,0 km/h (0 Bft) 100 %
12.07.2018 04:06 11,5 C 98 % 1015,1 hPa 0,0 l/m 0,0 km/h (0 Bft) W-SW 249 11,2 C 0,0 km/h (0 Bft) 100 %
12.07.2018 04:07 11,5 C 98 % 1015,2 hPa 0,0 l/m 0,0 km/h (0 Bft) W-SW 249 11,2 C 0,0 km/h (0 Bft) 100 %
12.07.2018 04:08 11,6 C 98 % 1015,1 hPa 0,0 l/m 0,0 km/h (0 Bft) W-SW 249 11,3 C 0,0 km/h (0 Bft) 100 %
12.07.2018 04:09 11,6 C 98 % 1015,1 hPa 0,0 l/m 0,0 km/h (0 Bft) W-SW 249 11,3 C 0,0 km/h (0 Bft) 100 %
12.07.2018 04:10 11,6 C 98 % 1015,1 hPa 0,0 l/m 0,0 km/h (0 Bft) W-SW 249 11,3 C 0,0 km/h (0 Bft) 100 %
12.07.2018 04:11 11,6 C 98 % 1015,1 hPa 0,0 l/m 0,0 km/h (0 Bft) W-SW 249 11,3 C 0,0 km/h (0 Bft) 100 %
12.07.2018 04:12 11,6 C 98 % 1015,1 hPa 0,0 l/m 0,0 km/h (0 Bft) W-SW 249 11,3 C 0,0 km/h (0 Bft) 100 %
12.07.2018 04:13 11,6 C 98 % 1015,0 hPa 0,0 l/m 0,0 km/h (0 Bft) W-SW 249 11,3 C 0,0 km/h (0 Bft) 100 %
12.07.2018 04:14 11,7 C 98 % 1015,0 hPa 0,0 l/m 0,0 km/h (0 Bft) W-SW 249 11,4 C 0,0 km/h (0 Bft) 100 %
12.07.2018 04:15 11,7 C 98 % 1015,1 hPa 0,0 l/m 0,0 km/h (0 Bft) W-SW 249 11,4 C 0,0 km/h (0 Bft) 100 %
12.07.2018 04:16 11,7 C 98 % 1015,0 hPa 0,0 l/m 0,0 km/h (0 Bft) W-SW 249 11,4 C 0,0 km/h (0 Bft) 100 %
12.07.2018 04:17 11,7 C 98 % 1015,0 hPa 0,0 l/m 0,0 km/h (0 Bft) W-SW 249 11,4 C 0,0 km/h (0 Bft) 100 %
12.07.2018 04:18 11,7 C 98 % 1015,0 hPa 0,0 l/m 0,0 km/h (0 Bft) W-SW 249 11,4 C 0,0 km/h (0 Bft) 100 %
12.07.2018 04:19 11,7 C 98 % 1015,0 hPa 0,0 l/m 0,0 km/h (0 Bft) W-SW 249 11,4 C 0,0 km/h (0 Bft) 100 %
12.07.2018 04:20 11,7 C 98 % 1015,0 hPa 0,0 l/m 0,0 km/h (0 Bft) W-SW 249 11,4 C 0,0 km/h (0 Bft) 100 %
12.07.2018 04:21 11,7 C 98 % 1015,0 hPa 0,0 l/m 0,0 km/h (0 Bft) W-SW 249 11,4 C 0,0 km/h (0 Bft) 100 %
12.07.2018 04:22 11,7 C 98 % 1015,0 hPa 0,0 l/m 0,0 km/h (0 Bft) W-SW 249 11,4 C 0,0 km/h (0 Bft) 100 %
12.07.2018 04:23 11,7 C 98 % 1015,0 hPa 0,0 l/m 0,0 km/h (0 Bft) W-SW 249 11,4 C 0,0 km/h (0 Bft) 100 %
12.07.2018 04:24 11,7 C 98 % 1015,0 hPa 0,0 l/m 0,0 km/h (0 Bft) W-SW 249 11,4 C 0,0 km/h (0 Bft) 100 %
12.07.2018 04:25 11,7 C 98 % 1015,0 hPa 0,0 l/m 0,0 km/h (0 Bft) W-SW 249 11,4 C 0,0 km/h (0 Bft) 100 %
12.07.2018 04:26 11,7 C 98 % 1015,0 hPa 0,0 l/m 0,0 km/h (0 Bft) W-SW 249 11,4 C 0,0 km/h (0 Bft) 100 %
12.07.2018 04:27 11,7 C 98 % 1015,1 hPa 0,0 l/m 0,0 km/h (0 Bft) W-SW 249 11,4 C 0,0 km/h (0 Bft) 100 %
12.07.2018 04:28 11,7 C 98 % 1015,1 hPa 0,0 l/m 0,0 km/h (0 Bft) W-SW 249 11,4 C 0,0 km/h (0 Bft) 100 %
12.07.2018 04:29 11,7 C 98 % 1015,1 hPa 0,0 l/m 0,0 km/h (0 Bft) W-SW 249 11,4 C 0,0 km/h (0 Bft) 100 %
12.07.2018 04:30 11,7 C 98 % 1015,1 hPa 0,0 l/m 0,0 km/h (0 Bft) W-SW 249 11,4 C 0,0 km/h (0 Bft) 100 %
12.07.2018 04:31 11,7 C 98 % 1015,1 hPa 0,0 l/m 0,0 km/h (0 Bft) W-SW 249 11,4 C 0,0 km/h (0 Bft) 100 %
12.07.2018 04:32 11,7 C 98 % 1015,1 hPa 0,0 l/m 0,0 km/h (0 Bft) W-SW 249 11,4 C 0,0 km/h (0 Bft) 100 %
12.07.2018 04:33 11,7 C 98 % 1015,1 hPa 0,0 l/m 0,0 km/h (0 Bft) W-SW 249 11,4 C 0,0 km/h (0 Bft) 100 %
12.07.2018 04:34 11,8 C 98 % 1015,0 hPa 0,0 l/m 0,0 km/h (0 Bft) W-SW 249 11,5 C 0,0 km/h (0 Bft) 100 %
12.07.2018 04:35 11,8 C 98 % 1015,1 hPa 0,0 l/m 0,0 km/h (0 Bft) W-SW 249 11,5 C 0,0 km/h (0 Bft) 100 %
12.07.2018 04:36 11,8 C 98 % 1015,0 hPa 0,0 l/m 0,0 km/h (0 Bft) W-SW 249 11,5 C 0,0 km/h (0 Bft) 100 %
12.07.2018 04:37 11,8 C 98 % 1015,0 hPa 0,0 l/m 0,0 km/h (0 Bft) W-SW 249 11,5 C 0,0 km/h (0 Bft) 100 %
12.07.2018 04:38 11,8 C 98 % 1015,0 hPa 0,0 l/m 0,0 km/h (0 Bft) W-SW 249 11,5 C 0,0 km/h (0 Bft) 100 %
12.07.2018 04:39 11,8 C 98 % 1015,1 hPa 0,0 l/m 0,0 km/h (0 Bft) W-SW 249 11,5 C 0,0 km/h (0 Bft) 100 %
12.07.2018 04:40 11,8 C 98 % 1015,0 hPa 0,0 l/m 0,0 km/h (0 Bft) W-SW 249 11,5 C 0,0 km/h (0 Bft) 100 %
12.07.2018 04:41 11,9 C 98 % 1015,0 hPa 0,0 l/m 0,0 km/h (0 Bft) W-SW 249 11,6 C 0,0 km/h (0 Bft) 100 %
12.07.2018 04:42 11,8 C 98 % 1015,1 hPa 0,0 l/m 0,0 km/h (0 Bft) W-SW 249 11,5 C 0,0 km/h (0 Bft) 100 %
12.07.2018 04:43 11,9 C 98 % 1015,0 hPa 0,0 l/m 0,0 km/h (0 Bft) W-SW 249 11,6 C 0,0 km/h (0 Bft) 100 %
12.07.2018 04:44 11,9 C 98 % 1015,0 hPa 0,0 l/m 0,0 km/h (0 Bft) W-SW 249 11,6 C 0,0 km/h (0 Bft) 100 %
12.07.2018 04:45 11,9 C 98 % 1015,0 hPa 0,0 l/m 0,0 km/h (0 Bft) W-SW 249 11,6 C 0,0 km/h (0 Bft) 100 %
12.07.2018 04:46 11,9 C 98 % 1015,0 hPa 0,0 l/m 0,0 km/h (0 Bft) W-SW 249 11,6 C 0,0 km/h (0 Bft) 100 %
12.07.2018 04:47 11,9 C 98 % 1015,1 hPa 0,0 l/m 0,0 km/h (0 Bft) W-SW 249 11,6 C 0,0 km/h (0 Bft) 96 %
12.07.2018 04:48 11,9 C 98 % 1015,1 hPa 0,0 l/m 0,0 km/h (0 Bft) W-SW 249 11,6 C 0,0 km/h (0 Bft) 96 %
12.07.2018 04:49 11,9 C 98 % 1015,1 hPa 0,0 l/m 0,0 km/h (0 Bft) W-SW 249 11,6 C 0,0 km/h (0 Bft) 96 %
12.07.2018 04:50 11,9 C 98 % 1015,0 hPa 0,0 l/m 0,0 km/h (0 Bft) W-SW 249 11,6 C 0,0 km/h (0 Bft) 100 %
12.07.2018 04:51 11,9 C 98 % 1015,1 hPa 0,0 l/m 0,0 km/h (0 Bft) W-SW 249 11,6 C 0,0 km/h (0 Bft) 96 %
12.07.2018 04:52 11,9 C 98 % 1015,1 hPa 0,0 l/m 0,0 km/h (0 Bft) W-SW 249 11,6 C 0,0 km/h (0 Bft) 96 %
12.07.2018 04:53 11,9 C 98 % 1015,1 hPa 0,0 l/m 0,0 km/h (0 Bft) W-SW 249 11,6 C 0,0 km/h (0 Bft) 100 %
12.07.2018 04:54 11,9 C 98 % 1015,1 hPa 0,0 l/m 0,0 km/h (0 Bft) W-SW 249 11,6 C 0,0 km/h (0 Bft) 96 %
12.07.2018 04:55 11,9 C 98 % 1015,1 hPa 0,0 l/m 0,0 km/h (0 Bft) W-SW 249 11,6 C 0,0 km/h (0 Bft) 100 %
12.07.2018 04:56 11,9 C 98 % 1015,0 hPa 0,0 l/m 0,0 km/h (0 Bft) W-SW 249 11,6 C 0,0 km/h (0 Bft) 96 %
12.07.2018 04:57 12,0 C 98 % 1015,1 hPa 0,0 l/m 0,0 km/h (0 Bft) W-SW 249 11,7 C 0,0 km/h (0 Bft) 100 %
12.07.2018 04:58 11,9 C 98 % 1015,0 hPa 0,0 l/m 0,0 km/h (0 Bft) W-SW 249 11,6 C 0,0 km/h (0 Bft) 96 %
12.07.2018 04:59 12,0 C 98 % 1015,1 hPa 0,0 l/m 0,0 km/h (0 Bft) W-SW 249 11,7 C 0,0 km/h (0 Bft) 100 %
12.07.2018 05:00 12,0 C 98 % 1015,1 hPa 0,0 l/m 0,0 km/h (0 Bft) W-SW 249 11,7 C 0,0 km/h (0 Bft) 93 %
12.07.2018 05:01 12,1 C 98 % 1015,1 hPa 0,0 l/m 0,0 km/h (0 Bft) W-SW 249 11,8 C 0,0 km/h (0 Bft) 100 %
12.07.2018 05:02 12,1 C 98 % 1015,1 hPa 0,0 l/m 0,0 km/h (0 Bft) W-SW 249 11,8 C 0,0 km/h (0 Bft) 96 %
12.07.2018 05:03 12,1 C 98 % 1015,1 hPa 0,0 l/m 0,0 km/h (0 Bft) W-SW 249 11,8 C 0,0 km/h (0 Bft) 100 %
12.07.2018 05:04 12,1 C 98 % 1015,1 hPa 0,0 l/m 0,0 km/h (0 Bft) W-SW 249 11,8 C 0,0 km/h (0 Bft) 100 %
12.07.2018 05:05 12,1 C 98 % 1015,1 hPa 0,0 l/m 0,0 km/h (0 Bft) W-SW 249 11,8 C 0,0 km/h (0 Bft) 100 %
12.07.2018 05:06 12,1 C 98 % 1015,1 hPa 0,0 l/m 0,0 km/h (0 Bft) W-SW 249 11,8 C 0,0 km/h (0 Bft) 100 %
12.07.2018 05:07 12,1 C 98 % 1015,1 hPa 0,0 l/m 0,0 km/h (0 Bft) W-SW 249 11,8 C 0,0 km/h (0 Bft) 100 %
12.07.2018 05:08 12,1 C 98 % 1015,1 hPa 0,0 l/m 0,0 km/h (0 Bft) W-SW 249 11,8 C 0,0 km/h (0 Bft) 100 %
12.07.2018 05:09 12,1 C 98 % 1015,1 hPa 0,0 l/m 0,0 km/h (0 Bft) W-SW 249 11,8 C 0,0 km/h (0 Bft) 100 %
12.07.2018 05:10 12,1 C 98 % 1015,1 hPa 0,0 l/m 0,0 km/h (0 Bft) W-SW 249 11,8 C 0,0 km/h (0 Bft) 100 %
12.07.2018 05:11 12,1 C 98 % 1015,1 hPa 0,0 l/m 0,0 km/h (0 Bft) W-SW 249 11,8 C 0,0 km/h (0 Bft) 100 %
12.07.2018 05:12 12,1 C 98 % 1015,1 hPa 0,0 l/m 0,0 km/h (0 Bft) W-SW 249 11,8 C 0,0 km/h (0 Bft) 100 %
12.07.2018 05:13 12,2 C 98 % 1015,1 hPa 0,0 l/m 0,0 km/h (0 Bft) W-SW 249 11,9 C 0,0 km/h (0 Bft) 100 %
12.07.2018 05:14 12,2 C 98 % 1015,1 hPa 0,0 l/m 0,0 km/h (0 Bft) W-SW 249 11,9 C 0,0 km/h (0 Bft) 100 %
12.07.2018 05:15 12,2 C 99 % 1015,1 hPa 0,0 l/m 0,0 km/h (0 Bft) W-SW 249 12,0 C 0,0 km/h (0 Bft) 100 %
12.07.2018 05:16 12,2 C 99 % 1015,0 hPa 0,0 l/m 0,0 km/h (0 Bft) W-SW 249 12,0 C 0,0 km/h (0 Bft) 100 %
12.07.2018 05:17 12,2 C 99 % 1015,1 hPa 0,0 l/m 0,0 km/h (0 Bft) W-SW 249 12,0 C 0,0 km/h (0 Bft) 100 %
12.07.2018 05:18 12,3 C 99 % 1015,1 hPa 0,0 l/m 0,0 km/h (0 Bft) W-SW 249 12,1 C 0,0 km/h (0 Bft) 100 %
12.07.2018 05:19 12,3 C 99 % 1015,1 hPa 0,0 l/m 0,0 km/h (0 Bft) W-SW 249 12,1 C 0,0 km/h (0 Bft) 100 %
12.07.2018 05:20 12,3 C 99 % 1015,1 hPa 0,0 l/m 0,0 km/h (0 Bft) W-SW 249 12,1 C 0,0 km/h (0 Bft) 100 %
12.07.2018 05:21 12,3 C 99 % 1015,1 hPa 0,0 l/m 0,0 km/h (0 Bft) W-SW 249 12,1 C 0,0 km/h (0 Bft) 100 %
12.07.2018 05:22 12,3 C 99 % 1015,1 hPa 0,0 l/m 0,0 km/h (0 Bft) W-SW 249 12,1 C 0,0 km/h (0 Bft) 100 %
12.07.2018 05:23 12,3 C 99 % 1015,1 hPa 0,0 l/m 0,0 km/h (0 Bft) W-SW 249 12,1 C 0,0 km/h (0 Bft) 100 %
12.07.2018 05:24 12,3 C 99 % 1015,1 hPa 0,0 l/m 0,0 km/h (0 Bft) W-SW 249 12,1 C 0,0 km/h (0 Bft) 100 %
12.07.2018 05:25 12,4 C 99 % 1015,1 hPa 0,0 l/m 0,0 km/h (0 Bft) W-SW 249 12,2 C 0,0 km/h (0 Bft) 100 %
12.07.2018 05:26 12,4 C 99 % 1015,1 hPa 0,0 l/m 0,0 km/h (0 Bft) W-SW 249 12,2 C 0,0 km/h (0 Bft) 100 %
12.07.2018 05:27 12,4 C 99 % 1015,1 hPa 0,0 l/m 0,0 km/h (0 Bft) W-SW 238 12,2 C 0,0 km/h (0 Bft) 100 %
12.07.2018 05:28 12,4 C 99 % 1015,1 hPa 0,0 l/m 0,0 km/h (0 Bft) W-SW 238 12,2 C 0,0 km/h (0 Bft) 100 %
12.07.2018 05:29 12,4 C 99 % 1015,1 hPa 0,0 l/m 0,0 km/h (0 Bft) W-SW 238 12,2 C 0,0 km/h (0 Bft) 100 %
12.07.2018 05:30 12,4 C 98 % 1015,1 hPa 0,0 l/m 0,0 km/h (0 Bft) W-SW 238 12,1 C 0,0 km/h (0 Bft) 100 %
12.07.2018 05:32 12,3 C 98 % 1015,0 hPa 0,0 l/m 0,0 km/h (0 Bft) W-SW 238 12,0 C 0,0 km/h (0 Bft) 100 %
12.07.2018 05:33 12,3 C 98 % 1015,0 hPa 0,0 l/m 0,0 km/h (0 Bft) W-SW 238 12,0 C 0,0 km/h (0 Bft) 100 %
12.07.2018 05:34 12,3 C 98 % 1015,1 hPa 0,0 l/m 0,0 km/h (0 Bft) W-SW 238 12,0 C 0,0 km/h (0 Bft) 100 %
12.07.2018 05:35 12,3 C 98 % 1015,1 hPa 0,0 l/m 0,0 km/h (0 Bft) W-SW 238 12,0 C 0,0 km/h (0 Bft) 100 %
12.07.2018 05:36 12,3 C 98 % 1015,0 hPa 0,0 l/m 0,0 km/h (0 Bft) W-SW 238 12,0 C 0,0 km/h (0 Bft) 100 %
12.07.2018 05:37 12,2 C 98 % 1015,1 hPa 0,0 l/m 0,0 km/h (0 Bft) W-SW 238 11,9 C 0,0 km/h (0 Bft) 100 %
12.07.2018 05:38 12,2 C 98 % 1015,1 hPa 0,0 l/m 0,0 km/h (0 Bft) W-SW 238 11,9 C 0,0 km/h (0 Bft) 100 %
12.07.2018 05:39 12,2 C 98 % 1015,1 hPa 0,0 l/m 0,0 km/h (0 Bft) W-SW 238 11,9 C 0,0 km/h (0 Bft) 100 %
12.07.2018 05:40 12,2 C 98 % 1015,0 hPa 0,0 l/m 0,0 km/h (0 Bft) W-SW 238 11,9 C 0,0 km/h (0 Bft) 100 %
12.07.2018 05:41 12,2 C 98 % 1015,1 hPa 0,0 l/m 0,0 km/h (0 Bft) W-SW 238 11,9 C 0,0 km/h (0 Bft) 100 %
12.07.2018 05:42 12,2 C 98 % 1015,1 hPa 0,0 l/m 0,0 km/h (0 Bft) W-SW 238 11,9 C 0,0 km/h (0 Bft) 100 %
12.07.2018 05:43 12,1 C 98 % 1015,1 hPa 0,0 l/m 0,0 km/h (0 Bft) W-SW 238 11,8 C 0,0 km/h (0 Bft) 100 %
12.07.2018 05:44 12,1 C 98 % 1015,1 hPa 0,0 l/m 0,0 km/h (0 Bft) W-SW 238 11,8 C 0,0 km/h (0 Bft) 100 %
12.07.2018 05:45 12,1 C 98 % 1015,1 hPa 0,0 l/m 0,0 km/h (0 Bft) W-SW 238 11,8 C 0,0 km/h (0 Bft) 100 %
12.07.2018 05:46 12,1 C 98 % 1015,1 hPa 0,0 l/m 0,0 km/h (0 Bft) W-SW 238 11,8 C 0,0 km/h (0 Bft) 100 %
12.07.2018 05:47 12,1 C 98 % 1015,1 hPa 0,0 l/m 0,0 km/h (0 Bft) W-SW 238 11,8 C 0,0 km/h (0 Bft) 100 %
12.07.2018 05:48 12,2 C 98 % 1015,1 hPa 0,0 l/m 0,0 km/h (0 Bft) W-SW 238 11,9 C 0,0 km/h (0 Bft) 100 %
12.07.2018 05:49 12,2 C 98 % 1015,1 hPa 0,0 l/m 0,0 km/h (0 Bft) W-SW 238 11,9 C 0,0 km/h (0 Bft) 100 %
12.07.2018 05:50 12,2 C 98 % 1015,0 hPa 0,0 l/m 0,0 km/h (0 Bft) W-SW 238 11,9 C 0,0 km/h (0 Bft) 100 %
12.07.2018 05:51 12,2 C 98 % 1015,1 hPa 0,0 l/m 0,0 km/h (0 Bft) W-SW 238 11,9 C 0,0 km/h (0 Bft) 100 %
12.07.2018 05:52 12,2 C 99 % 1015,1 hPa 0,0 l/m 0,0 km/h (0 Bft) W-SW 238 12,0 C 0,0 km/h (0 Bft) 100 %
12.07.2018 05:53 12,2 C 99 % 1015,0 hPa 0,0 l/m 0,0 km/h (0 Bft) W-SW 238 12,0 C 0,0 km/h (0 Bft) 100 %
12.07.2018 05:54 12,2 C 99 % 1015,0 hPa 0,0 l/m 0,0 km/h (0 Bft) W-SW 238 12,0 C 0,0 km/h (0 Bft) 100 %
12.07.2018 05:55 12,3 C 99 % 1015,0 hPa 0,0 l/m 0,0 km/h (0 Bft) W-SW 238 12,1 C 0,0 km/h (0 Bft) 100 %
12.07.2018 05:56 12,3 C 99 % 1015,0 hPa 0,0 l/m 0,0 km/h (0 Bft) W-SW 238 12,1 C 0,0 km/h (0 Bft) 100 %
12.07.2018 05:57 12,3 C 99 % 1015,0 hPa 0,0 l/m 0,0 km/h (0 Bft) W-SW 238 12,1 C 0,0 km/h (0 Bft) 100 %
12.07.2018 05:58 12,3 C 99 % 1015,0 hPa 0,0 l/m 0,0 km/h (0 Bft) W-SW 238 12,1 C 0,0 km/h (0 Bft) 96 %
12.07.2018 05:59 12,3 C 99 % 1015,0 hPa 0,0 l/m 0,0 km/h (0 Bft) W-SW 238 12,1 C 0,0 km/h (0 Bft) 100 %
12.07.2018 06:00 12,3 C 99 % 1015,1 hPa 0,0 l/m 0,0 km/h (0 Bft) W-SW 238 12,1 C 0,0 km/h (0 Bft) 96 %
12.07.2018 06:01 12,4 C 99 % 1015,0 hPa 0,0 l/m 0,0 km/h (0 Bft) W-SW 238 12,2 C 0,0 km/h (0 Bft) 93 %
12.07.2018 06:02 12,4 C 99 % 1015,0 hPa 0,0 l/m 0,0 km/h (0 Bft) W-SW 238 12,2 C 0,0 km/h (0 Bft) 100 %
12.07.2018 06:03 12,4 C 99 % 1015,0 hPa 0,0 l/m 0,0 km/h (0 Bft) W-SW 238 12,2 C 0,0 km/h (0 Bft) 100 %
12.07.2018 06:04 12,4 C 99 % 1015,0 hPa 0,0 l/m 0,0 km/h (0 Bft) W-SW 238 12,2 C 0,0 km/h (0 Bft) 96 %
12.07.2018 06:05 12,4 C 99 % 1015,0 hPa 0,0 l/m 0,0 km/h (0 Bft) W-SW 238 12,2 C 0,0 km/h (0 Bft) 100 %
12.07.2018 06:06 12,4 C 99 % 1015,0 hPa 0,0 l/m 0,0 km/h (0 Bft) W-SW 238 12,2 C 0,0 km/h (0 Bft) 96 %
12.07.2018 06:07 12,4 C 99 % 1015,0 hPa 0,0 l/m 0,0 km/h (0 Bft) W-SW 238 12,2 C 0,0 km/h (0 Bft) 100 %
12.07.2018 06:08 12,5 C 99 % 1015,0 hPa 0,0 l/m 0,0 km/h (0 Bft) W-SW 238 12,3 C 0,0 km/h (0 Bft) 96 %
12.07.2018 06:09 12,5 C 99 % 1015,0 hPa 0,0 l/m 0,0 km/h (0 Bft) W-SW 238 12,3 C 0,0 km/h (0 Bft) 100 %
12.07.2018 06:10 12,5 C 99 % 1015,0 hPa 0,0 l/m 0,0 km/h (0 Bft) W-SW 238 12,3 C 0,0 km/h (0 Bft) 96 %
12.07.2018 06:11 12,5 C 99 % 1015,1 hPa 0,0 l/m 0,0 km/h (0 Bft) W-SW 238 12,3 C 0,0 km/h (0 Bft) 96 %
12.07.2018 06:12 12,5 C 99 % 1015,1 hPa 0,0 l/m 0,0 km/h (0 Bft) W-SW 238 12,3 C 0,0 km/h (0 Bft) 100 %
12.07.2018 06:13 12,5 C 99 % 1015,0 hPa 0,0 l/m 0,0 km/h (0 Bft) W-SW 238 12,3 C 0,0 km/h (0 Bft) 92 %
12.07.2018 06:14 12,6 C 99 % 1015,0 hPa 0,0 l/m 0,0 km/h (0 Bft) W-SW 238 12,4 C 0,0 km/h (0 Bft) 100 %
12.07.2018 06:15 12,6 C 99 % 1015,0 hPa 0,0 l/m 0,0 km/h (0 Bft) W-SW 238 12,4 C 0,0 km/h (0 Bft) 100 %
12.07.2018 06:16 12,6 C 99 % 1015,0 hPa 0,0 l/m 0,0 km/h (0 Bft) W-SW 238 12,4 C 0,0 km/h (0 Bft) 100 %
12.07.2018 06:17 12,6 C 99 % 1015,1 hPa 0,0 l/m 0,0 km/h (0 Bft) W-SW 238 12,4 C 0,0 km/h (0 Bft) 100 %
12.07.2018 06:18 12,6 C 99 % 1015,1 hPa 0,0 l/m 0,0 km/h (0 Bft) W-SW 238 12,4 C 0,0 km/h (0 Bft) 100 %
12.07.2018 06:19 12,6 C 99 % 1015,1 hPa 0,0 l/m 0,0 km/h (0 Bft) W-SW 238 12,4 C 0,0 km/h (0 Bft) 100 %
12.07.2018 06:20 12,7 C 99 % 1015,0 hPa 0,0 l/m 0,0 km/h (0 Bft) W-SW 238 12,5 C 0,0 km/h (0 Bft) 100 %
12.07.2018 06:21 12,7 C 99 % 1015,1 hPa 0,0 l/m 0,0 km/h (0 Bft) W-SW 238 12,5 C 0,0 km/h (0 Bft) 100 %
12.07.2018 06:22 12,7 C 99 % 1015,1 hPa 0,0 l/m 0,0 km/h (0 Bft) W-SW 238 12,5 C 0,0 km/h (0 Bft) 100 %
12.07.2018 06:23 12,7 C 99 % 1015,1 hPa 0,0 l/m 0,0 km/h (0 Bft) W-SW 238 12,5 C 0,0 km/h (0 Bft) 100 %
12.07.2018 06:24 12,7 C 99 % 1015,1 hPa 0,0 l/m 0,0 km/h (0 Bft) W-SW 238 12,5 C 0,0 km/h (0 Bft) 100 %
12.07.2018 06:25 12,7 C 99 % 1015,1 hPa 0,0 l/m 0,0 km/h (0 Bft) W-SW 238 12,5 C 0,0 km/h (0 Bft) 100 %
12.07.2018 06:26 12,8 C 99 % 1015,2 hPa 0,0 l/m 0,0 km/h (0 Bft) W-SW 238 12,6 C 0,0 km/h (0 Bft) 100 %
12.07.2018 06:27 12,8 C 99 % 1015,2 hPa 0,0 l/m 0,0 km/h (0 Bft) W-SW 238 12,6 C 0,0 km/h (0 Bft) 100 %
12.07.2018 06:28 12,8 C 99 % 1015,2 hPa 0,0 l/m 0,0 km/h (0 Bft) W-SW 238 12,6 C 0,0 km/h (0 Bft) 100 %
12.07.2018 06:29 12,8 C 99 % 1015,2 hPa 0,0 l/m 0,0 km/h (0 Bft) W-SW 238 12,6 C 0,0 km/h (0 Bft) 100 %
12.07.2018 06:30 12,9 C 99 % 1015,2 hPa 0,0 l/m 0,0 km/h (0 Bft) W-SW 238 12,7 C 0,0 km/h (0 Bft) 100 %
12.07.2018 06:31 12,9 C 99 % 1015,2 hPa 0,0 l/m 0,0 km/h (0 Bft) W-SW 238 12,7 C 0,0 km/h (0 Bft) 100 %
12.07.2018 06:32 12,9 C 99 % 1015,3 hPa 0,0 l/m 0,0 km/h (0 Bft) W-SW 238 12,7 C 0,0 km/h (0 Bft) 100 %
12.07.2018 06:33 12,9 C 99 % 1015,3 hPa 0,0 l/m 0,0 km/h (0 Bft) W-SW 238 12,7 C 0,0 km/h (0 Bft) 100 %
12.07.2018 06:34 12,9 C 99 % 1015,3 hPa 0,0 l/m 0,0 km/h (0 Bft) W-SW 238 12,7 C 0,0 km/h (0 Bft) 100 %
12.07.2018 06:35 12,9 C 99 % 1015,2 hPa 0,0 l/m 0,0 km/h (0 Bft) W-SW 238 12,7 C 0,0 km/h (0 Bft) 100 %
12.07.2018 06:36 12,9 C 99 % 1015,3 hPa 0,0 l/m 0,0 km/h (0 Bft) W-SW 238 12,7 C 0,0 km/h (0 Bft) 100 %
12.07.2018 06:37 13,0 C 99 % 1015,3 hPa 0,0 l/m 0,0 km/h (0 Bft) W-SW 238 12,8 C 0,0 km/h (0 Bft) 100 %
12.07.2018 06:38 13,0 C 99 % 1015,2 hPa 0,0 l/m 0,0 km/h (0 Bft) W-SW 238 12,8 C 0,0 km/h (0 Bft) 100 %
12.07.2018 06:39 13,1 C 99 % 1015,3 hPa 0,0 l/m 0,0 km/h (0 Bft) W-SW 238 12,9 C 0,0 km/h (0 Bft) 100 %
12.07.2018 06:40 13,1 C 99 % 1015,3 hPa 0,0 l/m 0,0 km/h (0 Bft) W-SW 238 12,9 C 0,0 km/h (0 Bft) 100 %
12.07.2018 06:41 13,1 C 99 % 1015,2 hPa 0,0 l/m 0,0 km/h (0 Bft) W-SW 238 12,9 C 0,0 km/h (0 Bft) 100 %
12.07.2018 06:42 13,1 C 99 % 1015,2 hPa 0,0 l/m 0,0 km/h (0 Bft) W-SW 238 12,9 C 0,0 km/h (0 Bft) 100 %
12.07.2018 06:43 13,1 C 99 % 1015,2 hPa 0,0 l/m 0,0 km/h (0 Bft) W-SW 238 12,9 C 0,0 km/h (0 Bft) 100 %
12.07.2018 06:44 13,1 C 99 % 1015,2 hPa 0,0 l/m 0,0 km/h (0 Bft) W-SW 238 12,9 C 0,0 km/h (0 Bft) 100 %
12.07.2018 06:45 13,2 C 99 % 1015,2 hPa 0,0 l/m 0,0 km/h (0 Bft) W-SW 238 13,0 C 0,0 km/h (0 Bft) 100 %
12.07.2018 06:46 13,2 C 99 % 1015,2 hPa 0,0 l/m 0,0 km/h (0 Bft) W-SW 238 13,0 C 0,0 km/h (0 Bft) 100 %
12.07.2018 06:47 13,2 C 99 % 1015,2 hPa 0,0 l/m 0,0 km/h (0 Bft) W-SW 238 13,0 C 0,0 km/h (0 Bft) 100 %
12.07.2018 06:48 13,2 C 99 % 1015,2 hPa 0,0 l/m 0,0 km/h (0 Bft) W-SW 238 13,0 C 0,0 km/h (0 Bft) 100 %
12.07.2018 06:49 13,2 C 99 % 1015,2 hPa 0,0 l/m 0,0 km/h (0 Bft) W-SW 238 13,0 C 0,0 km/h (0 Bft) 100 %
12.07.2018 06:50 13,2 C 99 % 1015,2 hPa 0,0 l/m 0,0 km/h (0 Bft) W-SW 238 13,0 C 0,0 km/h (0 Bft) 100 %
12.07.2018 06:51 13,2 C 99 % 1015,2 hPa 0,0 l/m 0,0 km/h (0 Bft) W-SW 238 13,0 C 0,0 km/h (0 Bft) 100 %
12.07.2018 06:52 13,3 C 99 % 1015,2 hPa 0,0 l/m 0,0 km/h (0 Bft) W-SW 238 13,1 C 0,0 km/h (0 Bft) 100 %
12.07.2018 06:53 13,3 C 99 % 1015,2 hPa 0,0 l/m 0,0 km/h (0 Bft) W-SW 238 13,1 C 0,0 km/h (0 Bft) 100 %
12.07.2018 06:54 13,3 C 99 % 1015,2 hPa 0,0 l/m 0,0 km/h (0 Bft) W-SW 238 13,1 C 0,0 km/h (0 Bft) 100 %
12.07.2018 06:55 13,3 C 99 % 1015,2 hPa 0,0 l/m 0,0 km/h (0 Bft) W-SW 238 13,1 C 0,0 km/h (0 Bft) 100 %
12.07.2018 06:56 13,3 C 99 % 1015,2 hPa 0,0 l/m 0,0 km/h (0 Bft) W-SW 238 13,1 C 0,0 km/h (0 Bft) 100 %
12.07.2018 06:57 13,4 C 99 % 1015,3 hPa 0,0 l/m 0,0 km/h (0 Bft) W-SW 238 13,2 C 0,0 km/h (0 Bft) 100 %
12.07.2018 06:58 13,4 C 99 % 1015,3 hPa 0,0 l/m 0,0 km/h (0 Bft) W-SW 238 13,2 C 0,0 km/h (0 Bft) 100 %
12.07.2018 06:59 13,4 C 99 % 1015,3 hPa 0,0 l/m 0,0 km/h (0 Bft) W-SW 238 13,2 C 0,0 km/h (0 Bft) 100 %
12.07.2018 07:00 13,4 C 99 % 1015,3 hPa 0,0 l/m 0,0 km/h (0 Bft) W-SW 238 13,2 C 0,0 km/h (0 Bft) 100 %
12.07.2018 07:01 13,4 C 99 % 1015,3 hPa 0,0 l/m 0,0 km/h (0 Bft) W-SW 238 13,2 C 0,0 km/h (0 Bft) 100 %
12.07.2018 07:02 13,4 C 99 % 1015,4 hPa 0,0 l/m 0,0 km/h (0 Bft) W-SW 238 13,2 C 0,0 km/h (0 Bft) 100 %
12.07.2018 07:03 13,4 C 99 % 1015,4 hPa 0,0 l/m 0,0 km/h (0 Bft) W-SW 238 13,2 C 0,0 km/h (0 Bft) 100 %
12.07.2018 07:04 13,4 C 99 % 1015,4 hPa 0,0 l/m 0,0 km/h (0 Bft) W-SW 238 13,2 C 0,0 km/h (0 Bft) 100 %
12.07.2018 07:05 13,4 C 99 % 1015,3 hPa 0,0 l/m 0,0 km/h (0 Bft) W-SW 238 13,2 C 0,0 km/h (0 Bft) 100 %
12.07.2018 07:06 13,4 C 99 % 1015,3 hPa 0,0 l/m 0,0 km/h (0 Bft) W-SW 238 13,2 C 0,0 km/h (0 Bft) 100 %
12.07.2018 07:07 13,4 C 99 % 1015,3 hPa 0,0 l/m 0,0 km/h (0 Bft) W-SW 238 13,2 C 0,0 km/h (0 Bft) 100 %
12.07.2018 07:08 13,4 C 98 % 1015,3 hPa 0,0 l/m 0,0 km/h (0 Bft) W-SW 238 13,1 C 0,0 km/h (0 Bft) 100 %
12.07.2018 07:09 13,4 C 99 % 1015,3 hPa 0,0 l/m 0,0 km/h (0 Bft) W-SW 238 13,2 C 0,0 km/h (0 Bft) 96 %
12.07.2018 07:10 13,4 C 99 % 1015,3 hPa 0,0 l/m 0,0 km/h (0 Bft) W-SW 238 13,2 C 0,0 km/h (0 Bft) 96 %
12.07.2018 07:11 13,4 C 99 % 1015,3 hPa 0,0 l/m 0,0 km/h (0 Bft) W-SW 238 13,2 C 0,0 km/h (0 Bft) 96 %
12.07.2018 07:12 13,4 C 98 % 1015,3 hPa 0,0 l/m 0,0 km/h (0 Bft) W-SW 238 13,1 C 0,0 km/h (0 Bft) 96 %
12.07.2018 07:13 13,4 C 98 % 1015,3 hPa 0,0 l/m 0,0 km/h (0 Bft) W-SW 238 13,1 C 0,0 km/h (0 Bft) 100 %
12.07.2018 07:14 13,4 C 98 % 1015,3 hPa 0,0 l/m 0,0 km/h (0 Bft) W-SW 238 13,1 C 0,0 km/h (0 Bft) 96 %
12.07.2018 07:15 13,4 C 98 % 1015,3 hPa 0,0 l/m 0,0 km/h (0 Bft) W-SW 238 13,1 C 0,0 km/h (0 Bft) 100 %
12.07.2018 07:16 13,5 C 99 % 1015,3 hPa 0,0 l/m 0,0 km/h (0 Bft) W-SW 238 13,3 C 0,0 km/h (0 Bft) 96 %
12.07.2018 07:17 13,5 C 98 % 1015,3 hPa 0,0 l/m 0,0 km/h (0 Bft) W-SW 238 13,2 C 0,0 km/h (0 Bft) 100 %
12.07.2018 07:18 13,5 C 99 % 1015,3 hPa 0,0 l/m 0,0 km/h (0 Bft) W-SW 238 13,3 C 0,0 km/h (0 Bft) 96 %
12.07.2018 07:19 13,5 C 99 % 1015,3 hPa 0,0 l/m 0,0 km/h (0 Bft) W-SW 238 13,3 C 0,0 km/h (0 Bft) 100 %
12.07.2018 07:20 13,6 C 99 % 1015,3 hPa 0,0 l/m 0,0 km/h (0 Bft) W-SW 238 13,4 C 0,0 km/h (0 Bft) 96 %
12.07.2018 07:21 13,6 C 99 % 1015,4 hPa 0,0 l/m 0,0 km/h (0 Bft) W-SW 238 13,4 C 0,0 km/h (0 Bft) 96 %
12.07.2018 07:22 13,6 C 99 % 1015,3 hPa 0,0 l/m 0,0 km/h (0 Bft) W-SW 238 13,4 C 0,0 km/h (0 Bft) 100 %
12.07.2018 07:23 13,6 C 99 % 1015,4 hPa 0,0 l/m 0,0 km/h (0 Bft) W-SW 238 13,4 C 0,0 km/h (0 Bft) 100 %
12.07.2018 07:24 13,6 C 99 % 1015,3 hPa 0,0 l/m 0,0 km/h (0 Bft) W-SW 238 13,4 C 0,0 km/h (0 Bft) 100 %
12.07.2018 07:25 13,7 C 99 % 1015,3 hPa 0,0 l/m 0,0 km/h (0 Bft) W-SW 238 13,5 C 0,0 km/h (0 Bft) 100 %
12.07.2018 07:26 13,7 C 99 % 1015,3 hPa 0,0 l/m 0,0 km/h (0 Bft) W-SW 238 13,5 C 0,0 km/h (0 Bft) 100 %
12.07.2018 07:27 13,7 C 99 % 1015,3 hPa 0,0 l/m 0,0 km/h (0 Bft) W-SW 238 13,5 C 0,0 km/h (0 Bft) 100 %
12.07.2018 07:28 13,7 C 99 % 1015,3 hPa 0,0 l/m 0,0 km/h (0 Bft) W-SW 238 13,5 C 0,0 km/h (0 Bft) 100 %
12.07.2018 07:29 13,7 C 99 % 1015,4 hPa 0,0 l/m 0,0 km/h (0 Bft) W-SW 238 13,5 C 0,0 km/h (0 Bft) 100 %
12.07.2018 07:30 13,7 C 99 % 1015,4 hPa 0,0 l/m 0,0 km/h (0 Bft) W-SW 238 13,5 C 0,0 km/h (0 Bft) 100 %
12.07.2018 07:31 13,7 C 99 % 1015,4 hPa 0,0 l/m 0,0 km/h (0 Bft) W-SW 238 13,5 C 0,0 km/h (0 Bft) 100 %
12.07.2018 07:32 13,8 C 99 % 1015,4 hPa 0,0 l/m 0,0 km/h (0 Bft) W-SW 238 13,6 C 0,0 km/h (0 Bft) 100 %
12.07.2018 07:33 13,8 C 99 % 1015,4 hPa 0,0 l/m 0,0 km/h (0 Bft) W-SW 238 13,6 C 0,0 km/h (0 Bft) 100 %
12.07.2018 07:34 13,8 C 99 % 1015,4 hPa 0,0 l/m 0,0 km/h (0 Bft) W-SW 238 13,6 C 0,0 km/h (0 Bft) 100 %
12.07.2018 07:35 13,8 C 99 % 1015,4 hPa 0,0 l/m 0,0 km/h (0 Bft) W-SW 238 13,6 C 0,0 km/h (0 Bft) 100 %
12.07.2018 07:36 13,8 C 99 % 1015,4 hPa 0,0 l/m 0,0 km/h (0 Bft) W-SW 238 13,6 C 0,0 km/h (0 Bft) 100 %
12.07.2018 07:37 13,8 C 99 % 1015,4 hPa 0,0 l/m 0,0 km/h (0 Bft) W-SW 238 13,6 C 0,0 km/h (0 Bft) 100 %
12.07.2018 07:38 13,9 C 99 % 1015,4 hPa 0,0 l/m 0,0 km/h (0 Bft) W-SW 238 13,7 C 0,0 km/h (0 Bft) 100 %
12.07.2018 07:39 13,9 C 99 % 1015,5 hPa 0,0 l/m 0,0 km/h (0 Bft) W-SW 238 13,7 C 0,0 km/h (0 Bft) 100 %
12.07.2018 07:40 13,9 C 99 % 1015,5 hPa 0,0 l/m 0,0 km/h (0 Bft) W-SW 238 13,7 C 0,0 km/h (0 Bft) 100 %
12.07.2018 07:41 13,9 C 98 % 1015,5 hPa 0,0 l/m 0,0 km/h (0 Bft) W-SW 238 13,6 C 0,0 km/h (0 Bft) 100 %
12.07.2018 07:42 13,9 C 99 % 1015,5 hPa 0,0 l/m 0,0 km/h (0 Bft) W-SW 244 13,7 C 0,0 km/h (0 Bft) 100 %
12.07.2018 07:43 13,9 C 99 % 1015,5 hPa 0,0 l/m 0,0 km/h (0 Bft) W-SW 244 13,7 C 0,0 km/h (0 Bft) 100 %
12.07.2018 07:44 14,0 C 99 % 1015,5 hPa 0,0 l/m 0,0 km/h (0 Bft) W-SW 244 13,8 C 0,0 km/h (0 Bft) 100 %
12.07.2018 07:45 14,1 C 99 % 1015,5 hPa 0,0 l/m 0,0 km/h (0 Bft) W-SW 244 13,9 C 0,0 km/h (0 Bft) 100 %
12.07.2018 07:46 14,1 C 99 % 1015,5 hPa 0,0 l/m 0,0 km/h (0 Bft) W-SW 244 13,9 C 0,0 km/h (0 Bft) 100 %
12.07.2018 07:47 14,1 C 99 % 1015,5 hPa 0,0 l/m 0,0 km/h (0 Bft) W-SW 244 13,9 C 0,0 km/h (0 Bft) 100 %
12.07.2018 07:48 14,2 C 99 % 1015,4 hPa 0,0 l/m 0,0 km/h (0 Bft) W-SW 244 14,0 C 0,0 km/h (0 Bft) 100 %
12.07.2018 07:49 14,2 C 99 % 1015,5 hPa 0,0 l/m 0,0 km/h (0 Bft) W-SW 244 14,0 C 0,0 km/h (0 Bft) 99 %
12.07.2018 07:50 14,3 C 99 % 1015,5 hPa 0,0 l/m 0,0 km/h (0 Bft) W-SW 244 14,1 C 0,0 km/h (0 Bft) 100 %
12.07.2018 07:51 14,3 C 99 % 1015,5 hPa 0,0 l/m 0,0 km/h (0 Bft) W-SW 240 14,1 C 0,0 km/h (0 Bft) 100 %
12.07.2018 07:52 14,3 C 99 % 1015,5 hPa 0,0 l/m 0,0 km/h (0 Bft) W-SW 240 14,1 C 0,0 km/h (0 Bft) 100 %
12.07.2018 07:53 14,4 C 99 % 1015,5 hPa 0,0 l/m 0,0 km/h (0 Bft) W-SW 238 14,2 C 0,0 km/h (0 Bft) 100 %
12.07.2018 07:54 14,4 C 99 % 1015,5 hPa 0,0 l/m 0,0 km/h (0 Bft) W-SW 255 14,2 C 0,0 km/h (0 Bft) 100 %
12.07.2018 07:55 14,4 C 99 % 1015,5 hPa 0,0 l/m 0,0 km/h (0 Bft) W-SW 255 14,2 C 0,0 km/h (0 Bft) 100 %
12.07.2018 07:56 14,5 C 99 % 1015,5 hPa 0,0 l/m 0,0 km/h (0 Bft) W 269 14,3 C 0,0 km/h (0 Bft) 100 %
12.07.2018 07:57 14,5 C 99 % 1015,5 hPa 0,0 l/m 0,0 km/h (0 Bft) W 274 14,3 C 0,0 km/h (0 Bft) 100 %
12.07.2018 07:58 14,6 C 99 % 1015,5 hPa 0,0 l/m 0,0 km/h (0 Bft) W 263 14,4 C 0,0 km/h (0 Bft) 100 %
12.07.2018 07:59 14,6 C 99 % 1015,5 hPa 0,0 l/m 0,0 km/h (0 Bft) W 260 14,4 C 0,0 km/h (0 Bft) 100 %
12.07.2018 08:00 14,6 C 99 % 1015,5 hPa 0,0 l/m 0,0 km/h (0 Bft) W 272 14,4 C 0,0 km/h (0 Bft) 100 %
12.07.2018 08:01 14,7 C 99 % 1015,5 hPa 0,0 l/m 0,0 km/h (0 Bft) W 266 14,5 C 0,0 km/h (0 Bft) 100 %
12.07.2018 08:02 14,7 C 99 % 1015,5 hPa 0,0 l/m 0,0 km/h (0 Bft) W 270 14,5 C 0,0 km/h (0 Bft) 100 %
12.07.2018 08:03 14,7 C 99 % 1015,5 hPa 0,0 l/m 1,0 km/h (0 Bft) W 265 14,5 C 6,3 km/h (2 Bft) 100 %
12.07.2018 08:04 14,8 C 99 % 1015,5 hPa 0,0 l/m 0,3 km/h (0 Bft) W-SW 241 14,6 C 3,1 km/h (1 Bft) 100 %
12.07.2018 08:05 14,8 C 99 % 1015,5 hPa 0,0 l/m 1,4 km/h (1 Bft) W 276 14,6 C 6,3 km/h (2 Bft) 100 %
12.07.2018 08:06 14,9 C 99 % 1015,6 hPa 0,0 l/m 4,7 km/h (1 Bft) W-SW 251 14,7 C 9,4 km/h (2 Bft) 100 %
12.07.2018 08:07 14,9 C 99 % 1015,6 hPa 0,0 l/m 1,4 km/h (1 Bft) W-SW 257 14,7 C 3,1 km/h (1 Bft) 100 %
12.07.2018 08:08 14,9 C 99 % 1015,6 hPa 0,0 l/m 1,1 km/h (1 Bft) W 262 14,7 C 6,3 km/h (2 Bft) 100 %
12.07.2018 08:09 14,9 C 99 % 1015,6 hPa 0,0 l/m 0,8 km/h (0 Bft) W 270 14,7 C 3,1 km/h (1 Bft) 100 %
12.07.2018 08:10 15,0 C 98 % 1015,7 hPa 0,0 l/m 0,3 km/h (0 Bft) W 264 14,7 C 3,1 km/h (1 Bft) 100 %
12.07.2018 08:11 15,0 C 98 % 1015,7 hPa 0,0 l/m 0,1 km/h (0 Bft) W 264 14,7 C 3,1 km/h (1 Bft) 96 %
12.07.2018 08:12 15,1 C 98 % 1015,7 hPa 0,0 l/m 0,0 km/h (0 Bft) W 264 14,8 C 0,0 km/h (0 Bft) 100 %
12.07.2018 08:13 15,1 C 98 % 1015,7 hPa 0,0 l/m 0,0 km/h (0 Bft) W 264 14,8 C 0,0 km/h (0 Bft) 96 %
12.07.2018 08:14 15,1 C 98 % 1015,7 hPa 0,0 l/m 0,3 km/h (0 Bft) SW 230 14,8 C 3,1 km/h (1 Bft) 96 %
12.07.2018 08:15 15,2 C 98 % 1015,7 hPa 0,0 l/m 0,0 km/h (0 Bft) SW 229 14,9 C 0,0 km/h (0 Bft) 100 %
12.07.2018 08:16 15,2 C 98 % 1015,7 hPa 0,0 l/m 0,0 km/h (0 Bft) SW 230 14,9 C 0,0 km/h (0 Bft) 100 %
12.07.2018 08:17 15,2 C 98 % 1015,7 hPa 0,0 l/m 0,0 km/h (0 Bft) SW 230 14,9 C 0,0 km/h (0 Bft) 96 %
12.07.2018 08:18 15,3 C 98 % 1015,7 hPa 0,0 l/m 0,3 km/h (0 Bft) W 266 15,0 C 3,1 km/h (1 Bft) 100 %
12.07.2018 08:19 15,3 C 98 % 1015,8 hPa 0,0 l/m 2,1 km/h (1 Bft) W-SW 258 15,0 C 9,4 km/h (2 Bft) 96 %
12.07.2018 08:20 15,3 C 97 % 1015,7 hPa 0,0 l/m 2,1 km/h (1 Bft) W-SW 257 14,8 C 3,1 km/h (1 Bft) 96 %
12.07.2018 08:21 15,3 C 97 % 1015,7 hPa 0,0 l/m 0,1 km/h (0 Bft) W-SW 252 14,8 C 3,1 km/h (1 Bft) 100 %
12.07.2018 08:22 15,3 C 97 % 1015,7 hPa 0,0 l/m 2,6 km/h (1 Bft) W 271 14,8 C 9,4 km/h (2 Bft) 96 %
12.07.2018 08:23 15,3 C 97 % 1015,7 hPa 0,0 l/m 0,7 km/h (0 Bft) W 280 14,8 C 3,1 km/h (1 Bft) 100 %
12.07.2018 08:24 15,3 C 97 % 1015,7 hPa 0,0 l/m 1,0 km/h (0 Bft) W 281 14,8 C 6,3 km/h (2 Bft) 96 %
12.07.2018 08:25 15,4 C 97 % 1015,8 hPa 0,0 l/m 1,8 km/h (1 Bft) W-SW 251 14,9 C 9,4 km/h (2 Bft) 100 %
12.07.2018 08:26 15,4 C 96 % 1015,8 hPa 0,0 l/m 7,7 km/h (2 Bft) W 281 14,8 C 12,6 km/h (3 Bft) 96 %
12.07.2018 08:27 15,4 C 96 % 1015,8 hPa 0,0 l/m 2,3 km/h (1 Bft) W 278 14,8 C 3,1 km/h (1 Bft) 100 %
12.07.2018 08:28 15,4 C 96 % 1015,8 hPa 0,0 l/m 1,3 km/h (1 Bft) W-SW 250 14,8 C 6,3 km/h (2 Bft) 100 %
12.07.2018 08:29 15,4 C 96 % 1015,8 hPa 0,0 l/m 2,4 km/h (1 Bft) W 281 14,8 C 6,3 km/h (2 Bft) 100 %
12.07.2018 08:30 15,4 C 96 % 1015,9 hPa 0,0 l/m 5,8 km/h (2 Bft) W-NW 282 14,8 C 12,6 km/h (3 Bft) 100 %
12.07.2018 08:31 15,5 C 96 % 1015,9 hPa 0,0 l/m 1,1 km/h (1 Bft) W-SW 257 14,9 C 3,1 km/h (1 Bft) 100 %
12.07.2018 08:32 15,5 C 96 % 1015,8 hPa 0,0 l/m 0,1 km/h (0 Bft) W 281 14,9 C 3,1 km/h (1 Bft) 100 %
12.07.2018 08:33 15,6 C 96 % 1015,9 hPa 0,0 l/m 0,3 km/h (0 Bft) W-SW 245 15,0 C 3,1 km/h (1 Bft) 100 %
12.07.2018 08:34 15,6 C 95 % 1015,8 hPa 0,0 l/m 6,3 km/h (2 Bft) W-NW 290 14,8 C 12,6 km/h (3 Bft) 100 %
12.07.2018 08:35 15,6 C 95 % 1015,9 hPa 0,0 l/m 5,8 km/h (2 Bft) W 271 14,8 C 9,4 km/h (2 Bft) 100 %
12.07.2018 08:36 15,6 C 95 % 1015,9 hPa 0,0 l/m 4,1 km/h (1 Bft) W 278 14,8 C 9,4 km/h (2 Bft) 100 %
12.07.2018 08:37 15,7 C 95 % 1015,9 hPa 0,0 l/m 1,0 km/h (0 Bft) W 269 14,9 C 6,3 km/h (2 Bft) 100 %
12.07.2018 08:38 15,7 C 95 % 1015,9 hPa 0,0 l/m 5,9 km/h (2 Bft) W 264 14,9 C 9,4 km/h (2 Bft) 100 %
12.07.2018 08:39 15,7 C 94 % 1015,9 hPa 0,0 l/m 2,2 km/h (1 Bft) W 278 14,7 C 6,3 km/h (2 Bft) 100 %
12.07.2018 08:40 15,8 C 95 % 1015,8 hPa 0,0 l/m 0,3 km/h (0 Bft) W 278 15,0 C 3,1 km/h (1 Bft) 100 %
12.07.2018 08:41 15,8 C 94 % 1015,9 hPa 0,0 l/m 2,2 km/h (1 Bft) W-SW 254 14,8 C 3,1 km/h (1 Bft) 100 %
12.07.2018 08:42 15,8 C 94 % 1015,9 hPa 0,0 l/m 2,1 km/h (1 Bft) W-SW 245 14,8 C 3,1 km/h (1 Bft) 100 %
12.07.2018 08:43 15,9 C 94 % 1015,9 hPa 0,0 l/m 2,2 km/h (1 Bft) W 264 14,9 C 3,1 km/h (1 Bft) 100 %
12.07.2018 08:44 15,9 C 94 % 1015,9 hPa 0,0 l/m 5,2 km/h (1 Bft) W-NW 288 14,9 C 9,4 km/h (2 Bft) 100 %
12.07.2018 08:45 15,9 C 94 % 1015,9 hPa 0,0 l/m 1,6 km/h (1 Bft) W-SW 251 14,9 C 6,3 km/h (2 Bft) 100 %
12.07.2018 08:46 16,0 C 94 % 1015,8 hPa 0,0 l/m 0,0 km/h (0 Bft) W-SW 252 15,0 C 0,0 km/h (0 Bft) 100 %
12.07.2018 08:47 16,1 C 94 % 1015,9 hPa 0,0 l/m 1,1 km/h (1 Bft) W-SW 238 15,1 C 3,1 km/h (1 Bft) 100 %
12.07.2018 08:48 16,2 C 94 % 1015,8 hPa 0,0 l/m 1,4 km/h (1 Bft) W 261 15,2 C 6,3 km/h (2 Bft) 100 %
12.07.2018 08:49 16,2 C 94 % 1015,8 hPa 0,0 l/m 2,4 km/h (1 Bft) W 278 15,2 C 6,3 km/h (2 Bft) 100 %
12.07.2018 08:50 16,3 C 93 % 1015,8 hPa 0,0 l/m 0,5 km/h (0 Bft) W-SW 255 15,2 C 3,1 km/h (1 Bft) 100 %
12.07.2018 08:51 16,3 C 94 % 1015,8 hPa 0,0 l/m 1,0 km/h (0 Bft) SW 225 15,3 C 3,1 km/h (1 Bft) 100 %
12.07.2018 08:52 16,4 C 93 % 1015,8 hPa 0,0 l/m 10,1 km/h (2 Bft) W-NW 291 15,3 C 15,7 km/h (3 Bft) 100 %
12.07.2018 08:53 16,5 C 92 % 1015,8 hPa 0,0 l/m 6,4 km/h (2 Bft) S-SW 212 15,2 C 12,6 km/h (3 Bft) 100 %
12.07.2018 08:54 16,5 C 92 % 1015,8 hPa 0,0 l/m 5,0 km/h (1 Bft) NW 314 15,2 C 9,4 km/h (2 Bft) 100 %
12.07.2018 08:55 16,6 C 92 % 1015,8 hPa 0,0 l/m 0,9 km/h (0 Bft) W-NW 299 15,3 C 6,3 km/h (2 Bft) 100 %
12.07.2018 08:56 16,6 C 91 % 1015,8 hPa 0,0 l/m 4,4 km/h (1 Bft) NW 305 15,1 C 6,3 km/h (2 Bft) 100 %
12.07.2018 08:57 16,7 C 91 % 1015,8 hPa 0,0 l/m 5,6 km/h (1 Bft) W-NW 301 15,2 C 9,4 km/h (2 Bft) 100 %
12.07.2018 08:58 16,7 C 90 % 1015,8 hPa 0,0 l/m 9,4 km/h (2 Bft) W-NW 303 15,0 C 15,7 km/h (3 Bft) 96 %
12.07.2018 08:59 16,7 C 90 % 1015,8 hPa 0,0 l/m 8,2 km/h (2 Bft) W 261 15,0 C 15,7 km/h (3 Bft) 100 %
12.07.2018 09:00 16,7 C 90 % 1015,8 hPa 0,0 l/m 11,8 km/h (2 Bft) NW 309 15,0 C 18,8 km/h (3 Bft) 100 %
12.07.2018 09:01 16,7 C 90 % 1015,8 hPa 0,0 l/m 7,3 km/h (2 Bft) S-SW 200 15,0 C 15,7 km/h (3 Bft) 100 %
12.07.2018 09:02 16,8 C 90 % 1015,8 hPa 0,0 l/m 5,7 km/h (1 Bft) W-NW 284 15,1 C 12,6 km/h (3 Bft) 100 %
12.07.2018 09:03 16,8 C 90 % 1015,8 hPa 0,0 l/m 8,7 km/h (2 Bft) NW 314 15,1 C 12,6 km/h (3 Bft) 100 %
12.07.2018 09:04 16,9 C 90 % 1015,8 hPa 0,0 l/m 3,9 km/h (1 Bft) W-SW 247 15,2 C 9,4 km/h (2 Bft) 100 %
12.07.2018 09:05 16,9 C 89 % 1015,7 hPa 0,0 l/m 6,9 km/h (2 Bft) W-NW 290 15,1 C 12,6 km/h (3 Bft) 100 %
12.07.2018 09:06 17,0 C 89 % 1015,8 hPa 0,0 l/m 3,5 km/h (1 Bft) W-NW 295 15,2 C 6,3 km/h (2 Bft) 100 %
12.07.2018 09:07 17,0 C 90 % 1015,8 hPa 0,0 l/m 1,3 km/h (1 Bft) NW 315 15,3 C 3,1 km/h (1 Bft) 100 %
12.07.2018 09:08 17,1 C 89 % 1015,8 hPa 0,0 l/m 0,8 km/h (0 Bft) NW 323 15,3 C 3,1 km/h (1 Bft) 100 %
12.07.2018 09:09 17,2 C 89 % 1015,8 hPa 0,0 l/m 3,4 km/h (1 Bft) W-NW 288 15,4 C 6,3 km/h (2 Bft) 100 %
12.07.2018 09:10 17,2 C 89 % 1015,8 hPa 0,0 l/m 1,2 km/h (1 Bft) W-NW 292 15,4 C 3,1 km/h (1 Bft) 100 %
12.07.2018 09:11 17,2 C 88 % 1015,8 hPa 0,0 l/m 7,1 km/h (2 Bft) NW 312 15,2 C 9,4 km/h (2 Bft) 100 %
12.07.2018 09:12 17,2 C 88 % 1015,8 hPa 0,0 l/m 3,1 km/h (1 Bft) W-NW 287 15,2 C 3,1 km/h (1 Bft) 100 %
12.07.2018 09:13 17,2 C 88 % 1015,9 hPa 0,0 l/m 6,3 km/h (2 Bft) NW 317 15,2 C 9,4 km/h (2 Bft) 100 %
12.07.2018 09:14 17,2 C 88 % 1015,8 hPa 0,0 l/m 1,4 km/h (1 Bft) O-SO 120 15,2 C 3,1 km/h (1 Bft) 96 %
12.07.2018 09:15 17,2 C 88 % 1015,9 hPa 0,0 l/m 4,1 km/h (1 Bft) NW 316 15,2 C 9,4 km/h (2 Bft) 100 %
12.07.2018 09:16 17,2 C 88 % 1015,9 hPa 0,0 l/m 3,1 km/h (1 Bft) SW 224 15,2 C 9,4 km/h (2 Bft) 96 %
12.07.2018 09:17 17,2 C 88 % 1015,9 hPa 0,0 l/m 2,6 km/h (1 Bft) W-NW 299 15,2 C 9,4 km/h (2 Bft) 100 %
12.07.2018 09:18 17,2 C 88 % 1015,9 hPa 0,0 l/m 0,0 km/h (0 Bft) W-NW 303 15,2 C 0,0 km/h (0 Bft) 96 %
12.07.2018 09:19 17,2 C 88 % 1015,9 hPa 0,0 l/m 3,3 km/h (1 Bft) W-SW 248 15,2 C 9,4 km/h (2 Bft) 100 %
12.07.2018 09:20 17,2 C 88 % 1015,9 hPa 0,0 l/m 5,5 km/h (1 Bft) W-SW 247 15,2 C 12,6 km/h (3 Bft) 96 %
12.07.2018 09:21 17,2 C 88 % 1015,9 hPa 0,0 l/m 2,3 km/h (1 Bft) W-NW 302 15,2 C 6,3 km/h (2 Bft) 96 %
12.07.2018 09:22 17,2 C 88 % 1015,9 hPa 0,0 l/m 2,8 km/h (1 Bft) W 268 15,2 C 6,3 km/h (2 Bft) 100 %
12.07.2018 09:23 17,2 C 88 % 1015,9 hPa 0,0 l/m 0,4 km/h (0 Bft) W-NW 297 15,2 C 3,1 km/h (1 Bft) 96 %
12.07.2018 09:24 17,2 C 88 % 1015,9 hPa 0,0 l/m 0,1 km/h (0 Bft) W-NW 297 15,2 C 3,1 km/h (1 Bft) 100 %
12.07.2018 09:25 17,2 C 88 % 1015,9 hPa 0,0 l/m 3,8 km/h (1 Bft) W-NW 293 15,2 C 6,3 km/h (2 Bft) 100 %
12.07.2018 09:26 17,2 C 87 % 1015,9 hPa 0,0 l/m 7,0 km/h (2 Bft) W 281 15,0 C 12,6 km/h (3 Bft) 100 %
12.07.2018 09:27 17,2 C 88 % 1015,9 hPa 0,0 l/m 2,4 km/h (1 Bft) W-NW 285 15,2 C 9,4 km/h (2 Bft) 100 %
12.07.2018 09:28 17,2 C 87 % 1015,8 hPa 0,0 l/m 9,0 km/h (2 Bft) W-NW 291 15,0 C 15,7 km/h (3 Bft) 100 %
12.07.2018 09:29 17,2 C 87 % 1015,9 hPa 0,0 l/m 6,4 km/h (2 Bft) W-NW 284 15,0 C 12,6 km/h (3 Bft) 100 %
12.07.2018 09:30 17,1 C 88 % 1015,9 hPa 0,0 l/m 3,0 km/h (1 Bft) W-NW 290 15,1 C 9,4 km/h (2 Bft) 100 %
12.07.2018 09:31 17,2 C 88 % 1015,9 hPa 0,0 l/m 2,6 km/h (1 Bft) W 281 15,2 C 12,6 km/h (3 Bft) 100 %
12.07.2018 09:32 17,1 C 87 % 1015,9 hPa 0,0 l/m 7,5 km/h (2 Bft) W-SW 249 14,9 C 15,7 km/h (3 Bft) 100 %
12.07.2018 09:33 17,1 C 87 % 1015,9 hPa 0,0 l/m 5,5 km/h (1 Bft) W-SW 239 14,9 C 12,6 km/h (3 Bft) 100 %
12.07.2018 09:34 17,1 C 87 % 1016,0 hPa 0,0 l/m 5,1 km/h (1 Bft) NW 307 14,9 C 9,4 km/h (2 Bft) 100 %
12.07.2018 09:35 17,1 C 87 % 1015,9 hPa 0,0 l/m 0,5 km/h (0 Bft) W-NW 295 14,9 C 3,1 km/h (1 Bft) 100 %
12.07.2018 09:36 17,2 C 87 % 1015,9 hPa 0,0 l/m 1,7 km/h (1 Bft) W-NW 290 15,0 C 3,1 km/h (1 Bft) 100 %
12.07.2018 09:37 17,2 C 88 % 1016,0 hPa 0,0 l/m 6,7 km/h (2 Bft) W-NW 299 15,2 C 15,7 km/h (3 Bft) 100 %
12.07.2018 09:38 17,2 C 88 % 1016,0 hPa 0,0 l/m 9,7 km/h (2 Bft) SW 234 15,2 C 15,7 km/h (3 Bft) 100 %
12.07.2018 09:39 17,2 C 88 % 1015,9 hPa 0,0 l/m 3,0 km/h (1 Bft) W 259 15,2 C 12,6 km/h (3 Bft) 100 %
12.07.2018 09:40 17,2 C 88 % 1015,9 hPa 0,0 l/m 3,5 km/h (1 Bft) W-NW 301 15,2 C 9,4 km/h (2 Bft) 100 %
12.07.2018 09:41 17,3 C 87 % 1016,0 hPa 0,0 l/m 4,7 km/h (1 Bft) W-SW 245 15,1 C 9,4 km/h (2 Bft) 100 %
12.07.2018 09:42 17,3 C 87 % 1015,9 hPa 0,0 l/m 4,1 km/h (1 Bft) W-NW 292 15,1 C 9,4 km/h (2 Bft) 100 %
12.07.2018 09:43 17,3 C 87 % 1015,9 hPa 0,0 l/m 5,2 km/h (1 Bft) NW 305 15,1 C 12,6 km/h (3 Bft) 100 %
12.07.2018 09:44 17,3 C 87 % 1015,9 hPa 0,0 l/m 2,0 km/h (1 Bft) W-NW 283 15,1 C 9,4 km/h (2 Bft) 100 %
12.07.2018 09:45 17,3 C 87 % 1015,9 hPa 0,0 l/m 0,9 km/h (0 Bft) W-NW 290 15,1 C 3,1 km/h (1 Bft) 100 %
12.07.2018 09:46 17,3 C 87 % 1016,0 hPa 0,0 l/m 7,5 km/h (2 Bft) N-NO 12 15,1 C 15,7 km/h (3 Bft) 100 %
12.07.2018 09:47 17,3 C 87 % 1016,0 hPa 0,0 l/m 8,2 km/h (2 Bft) SW 214 15,1 C 18,8 km/h (3 Bft) 100 %
12.07.2018 09:48 17,3 C 86 % 1016,0 hPa 0,0 l/m 2,0 km/h (1 Bft) NW 314 14,9 C 3,1 km/h (1 Bft) 100 %
12.07.2018 09:49 17,3 C 86 % 1015,9 hPa 0,0 l/m 2,0 km/h (1 Bft) W 280 14,9 C 6,3 km/h (2 Bft) 100 %
12.07.2018 09:50 17,3 C 86 % 1016,0 hPa 0,0 l/m 0,3 km/h (0 Bft) S 170 14,9 C 3,1 km/h (1 Bft) 100 %
12.07.2018 09:51 17,3 C 87 % 1016,0 hPa 0,0 l/m 1,0 km/h (0 Bft) NW 305 15,1 C 9,4 km/h (2 Bft) 100 %
12.07.2018 09:52 17,3 C 86 % 1016,1 hPa 0,0 l/m 7,5 km/h (2 Bft) NW 325 14,9 C 9,4 km/h (2 Bft) 100 %
12.07.2018 09:53 17,3 C 86 % 1016,0 hPa 0,0 l/m 3,3 km/h (1 Bft) W-NW 290 14,9 C 6,3 km/h (2 Bft) 100 %
12.07.2018 09:54 17,3 C 87 % 1016,1 hPa 0,0 l/m 6,1 km/h (2 Bft) W-NW 303 15,1 C 15,7 km/h (3 Bft) 100 %
12.07.2018 09:55 17,4 C 86 % 1016,1 hPa 0,0 l/m 8,5 km/h (2 Bft) W-NW 300 15,0 C 18,8 km/h (3 Bft) 100 %
12.07.2018 09:56 17,4 C 86 % 1016,1 hPa 0,0 l/m 7,1 km/h (2 Bft) W-SW 238 15,0 C 15,7 km/h (3 Bft) 100 %
12.07.2018 09:57 17,4 C 86 % 1016,1 hPa 0,0 l/m 5,3 km/h (1 Bft) W-NW 285 15,0 C 12,6 km/h (3 Bft) 100 %
12.07.2018 09:58 17,4 C 86 % 1016,2 hPa 0,0 l/m 10,7 km/h (2 Bft) W-NW 292 15,0 C 18,8 km/h (3 Bft) 100 %
12.07.2018 09:59 17,4 C 86 % 1016,2 hPa 0,0 l/m 5,5 km/h (1 Bft) W-SW 241 15,0 C 9,4 km/h (2 Bft) 100 %
12.07.2018 10:00 17,4 C 86 % 1016,2 hPa 0,0 l/m 2,4 km/h (1 Bft) SW 234 15,0 C 3,1 km/h (1 Bft) 100 %
12.07.2018 10:01 17,5 C 86 % 1016,2 hPa 0,0 l/m 5,1 km/h (1 Bft) NW 323 15,1 C 12,6 km/h (3 Bft) 96 %
12.07.2018 10:02 17,5 C 86 % 1016,2 hPa 0,0 l/m 5,0 km/h (1 Bft) W-SW 246 15,1 C 12,6 km/h (3 Bft) 100 %
12.07.2018 10:03 17,6 C 86 % 1016,2 hPa 0,0 l/m 5,2 km/h (1 Bft) SW 230 15,2 C 12,6 km/h (3 Bft) 100 %
12.07.2018 10:04 17,6 C 85 % 1016,2 hPa 0,0 l/m 4,3 km/h (1 Bft) NW 317 15,0 C 9,4 km/h (2 Bft) 100 %
12.07.2018 10:05 17,7 C 85 % 1016,2 hPa 0,0 l/m 2,5 km/h (1 Bft) W-NW 296 15,1 C 6,3 km/h (2 Bft) 100 %
12.07.2018 10:06 17,7 C 85 % 1016,3 hPa 0,0 l/m 3,4 km/h (1 Bft) W-NW 285 15,1 C 6,3 km/h (2 Bft) 100 %
12.07.2018 10:07 17,8 C 84 % 1016,3 hPa 0,0 l/m 2,7 km/h (1 Bft) O 87 15,1 C 9,4 km/h (2 Bft) 100 %
12.07.2018 10:08 17,8 C 84 % 1016,2 hPa 0,0 l/m 4,4 km/h (1 Bft) O-NO 70 15,1 C 9,4 km/h (2 Bft) 100 %
12.07.2018 10:09 17,9 C 84 % 1016,2 hPa 0,0 l/m 1,1 km/h (1 Bft) S-SW 209 15,2 C 3,1 km/h (1 Bft) 100 %
12.07.2018 10:10 17,9 C 84 % 1016,2 hPa 0,0 l/m 3,8 km/h (1 Bft) W-NW 292 15,2 C 9,4 km/h (2 Bft) 96 %
12.07.2018 10:11 17,9 C 83 % 1016,1 hPa 0,0 l/m 7,2 km/h (2 Bft) S-SW 213 15,0 C 9,4 km/h (2 Bft) 100 %
12.07.2018 10:12 18,0 C 83 % 1016,2 hPa 0,0 l/m 5,3 km/h (1 Bft) W-SW 243 15,1 C 9,4 km/h (2 Bft) 96 %
12.07.2018 10:13 18,1 C 83 % 1016,2 hPa 0,0 l/m 5,8 km/h (2 Bft) W 267 15,2 C 12,6 km/h (3 Bft) 96 %
12.07.2018 10:14 18,1 C 83 % 1016,2 hPa 0,0 l/m 5,0 km/h (1 Bft) N 3 15,2 C 9,4 km/h (2 Bft) 100 %
12.07.2018 10:15 18,1 C 83 % 1016,2 hPa 0,0 l/m 2,2 km/h (1 Bft) NO 48 15,2 C 3,1 km/h (1 Bft) 96 %
12.07.2018 10:16 18,1 C 83 % 1016,2 hPa 0,0 l/m 0,5 km/h (0 Bft) O-NO 63 15,2 C 3,1 km/h (1 Bft) 100 %
12.07.2018 10:17 18,2 C 83 % 1016,1 hPa 0,0 l/m 0,7 km/h (0 Bft) W-NW 292 15,3 C 3,1 km/h (1 Bft) 96 %
12.07.2018 10:18 18,2 C 83 % 1016,2 hPa 0,0 l/m 3,1 km/h (1 Bft) SW 235 15,3 C 3,1 km/h (1 Bft) 100 %
12.07.2018 10:19 18,2 C 83 % 1016,1 hPa 0,0 l/m 0,3 km/h (0 Bft) SW 233 15,3 C 3,1 km/h (1 Bft) 96 %
12.07.2018 10:20 18,2 C 83 % 1016,2 hPa 0,0 l/m 1,8 km/h (1 Bft) W 259 15,3 C 6,3 km/h (2 Bft) 100 %
12.07.2018 10:21 18,3 C 83 % 1016,2 hPa 0,0 l/m 2,5 km/h (1 Bft) W-NW 287 15,4 C 6,3 km/h (2 Bft) 100 %
12.07.2018 10:22 18,3 C 83 % 1016,2 hPa 0,0 l/m 6,0 km/h (2 Bft) NW 312 15,4 C 12,6 km/h (3 Bft) 100 %
12.07.2018 10:23 18,3 C 83 % 1016,2 hPa 0,0 l/m 5,7 km/h (1 Bft) SW 233 15,4 C 15,7 km/h (3 Bft) 100 %
12.07.2018 10:24 18,3 C 82 % 1016,2 hPa 0,0 l/m 5,0 km/h (1 Bft) W-NW 284 15,2 C 9,4 km/h (2 Bft) 100 %
12.07.2018 10:25 18,2 C 83 % 1016,2 hPa 0,0 l/m 7,8 km/h (2 Bft) W-NW 283 15,3 C 15,7 km/h (3 Bft) 100 %
12.07.2018 10:26 18,2 C 83 % 1016,2 hPa 0,0 l/m 4,0 km/h (1 Bft) SW 222 15,3 C 6,3 km/h (2 Bft) 100 %
12.07.2018 10:27 18,2 C 83 % 1016,2 hPa 0,0 l/m 1,9 km/h (1 Bft) W-NW 289 15,3 C 3,1 km/h (1 Bft) 100 %
12.07.2018 10:28 18,2 C 83 % 1016,2 hPa 0,0 l/m 8,4 km/h (2 Bft) W-NW 298 15,3 C 12,6 km/h (3 Bft) 100 %
12.07.2018 10:29 18,2 C 83 % 1016,2 hPa 0,0 l/m 4,6 km/h (1 Bft) W-NW 297 15,3 C 12,6 km/h (3 Bft) 100 %
12.07.2018 10:30 18,2 C 83 % 1016,2 hPa 0,0 l/m 5,5 km/h (1 Bft) NW 324 15,3 C 12,6 km/h (3 Bft) 100 %
12.07.2018 10:31 18,1 C 83 % 1016,2 hPa 0,0 l/m 6,3 km/h (2 Bft) W-NW 299 15,2 C 12,6 km/h (3 Bft) 100 %
12.07.2018 10:32 18,1 C 83 % 1016,1 hPa 0,0 l/m 11,9 km/h (2 Bft) W-NW 286 15,2 C 22,0 km/h (4 Bft) 100 %
12.07.2018 10:33 18,1 C 83 % 1016,1 hPa 0,0 l/m 7,3 km/h (2 Bft) W 280 15,2 C 12,6 km/h (3 Bft) 100 %
12.07.2018 10:34 18,1 C 83 % 1016,1 hPa 0,0 l/m 6,8 km/h (2 Bft) W-NW 290 15,2 C 12,6 km/h (3 Bft) 100 %
12.07.2018 10:35 18,1 C 83 % 1016,1 hPa 0,0 l/m 8,6 km/h (2 Bft) NW 309 15,2 C 15,7 km/h (3 Bft) 100 %
12.07.2018 10:36 18,1 C 83 % 1016,1 hPa 0,0 l/m 5,1 km/h (1 Bft) W-NW 291 15,2 C 6,3 km/h (2 Bft) 100 %
12.07.2018 10:37 18,1 C 84 % 1016,1 hPa 0,0 l/m 0,4 km/h (0 Bft) SW 220 15,4 C 3,1 km/h (1 Bft) 100 %
12.07.2018 10:38 18,2 C 84 % 1016,1 hPa 0,0 l/m 6,5 km/h (2 Bft) W 262 15,4 C 12,6 km/h (3 Bft) 100 %
12.07.2018 10:39 18,2 C 84 % 1016,1 hPa 0,0 l/m 7,3 km/h (2 Bft) W-NW 286 15,4 C 15,7 km/h (3 Bft) 100 %
12.07.2018 10:40 18,2 C 83 % 1016,1 hPa 0,0 l/m 11,5 km/h (2 Bft) W-NW 297 15,3 C 18,8 km/h (3 Bft) 100 %
12.07.2018 10:41 18,2 C 83 % 1016,1 hPa 0,0 l/m 5,0 km/h (1 Bft) W-SW 245 15,3 C 9,4 km/h (2 Bft) 100 %
12.07.2018 10:42 18,3 C 84 % 1016,1 hPa 0,0 l/m 5,8 km/h (2 Bft) N-NW 334 15,5 C 9,4 km/h (2 Bft) 100 %
12.07.2018 10:43 18,3 C 83 % 1016,1 hPa 0,0 l/m 14,5 km/h (3 Bft) W 270 15,4 C 22,0 km/h (4 Bft) 100 %
12.07.2018 10:44 18,3 C 83 % 1016,1 hPa 0,0 l/m 4,1 km/h (1 Bft) W-NW 302 15,4 C 12,6 km/h (3 Bft) 100 %
12.07.2018 10:45 18,3 C 83 % 1016,1 hPa 0,0 l/m 9,9 km/h (2 Bft) S 176 15,4 C 18,8 km/h (3 Bft) 100 %
12.07.2018 10:46 18,3 C 83 % 1016,1 hPa 0,0 l/m 5,8 km/h (2 Bft) NW 304 15,4 C 9,4 km/h (2 Bft) 100 %
12.07.2018 10:47 18,3 C 83 % 1016,1 hPa 0,0 l/m 2,8 km/h (1 Bft) W 262 15,4 C 6,3 km/h (2 Bft) 100 %
12.07.2018 10:48 18,3 C 84 % 1016,1 hPa 0,0 l/m 4,3 km/h (1 Bft) W-NW 285 15,5 C 9,4 km/h (2 Bft) 100 %
12.07.2018 10:49 18,3 C 83 % 1016,1 hPa 0,0 l/m 9,7 km/h (2 Bft) NW 309 15,4 C 15,7 km/h (3 Bft) 100 %
12.07.2018 10:50 18,3 C 83 % 1016,1 hPa 0,0 l/m 5,8 km/h (2 Bft) W 281 15,4 C 12,6 km/h (3 Bft) 100 %
12.07.2018 10:51 18,3 C 83 % 1016,1 hPa 0,0 l/m 1,0 km/h (0 Bft) NW 304 15,4 C 3,1 km/h (1 Bft) 100 %
12.07.2018 10:52 18,4 C 83 % 1016,1 hPa 0,0 l/m 6,7 km/h (2 Bft) W-NW 285 15,5 C 12,6 km/h (3 Bft) 100 %
12.07.2018 10:53 18,4 C 83 % 1016,2 hPa 0,0 l/m 2,1 km/h (1 Bft) W-NW 288 15,5 C 6,3 km/h (2 Bft) 100 %
12.07.2018 10:54 18,4 C 83 % 1016,2 hPa 0,0 l/m 6,9 km/h (2 Bft) W-SW 242 15,5 C 12,6 km/h (3 Bft) 100 %
12.07.2018 10:55 18,5 C 82 % 1016,1 hPa 0,0 l/m 7,7 km/h (2 Bft) W 280 15,4 C 15,7 km/h (3 Bft) 100 %
12.07.2018 10:56 18,5 C 82 % 1016,1 hPa 0,0 l/m 8,2 km/h (2 Bft) NW 309 15,4 C 12,6 km/h (3 Bft) 100 %
12.07.2018 10:57 18,5 C 83 % 1016,2 hPa 0,0 l/m 9,3 km/h (2 Bft) W-NW 289 15,6 C 15,7 km/h (3 Bft) 100 %
12.07.2018 10:58 18,6 C 82 % 1016,2 hPa 0,0 l/m 5,6 km/h (1 Bft) NW 316 15,5 C 9,4 km/h (2 Bft) 100 %
12.07.2018 10:59 18,6 C 82 % 1016,2 hPa 0,0 l/m 6,5 km/h (2 Bft) W-NW 300 15,5 C 12,6 km/h (3 Bft) 100 %
12.07.2018 11:00 18,6 C 82 % 1016,2 hPa 0,0 l/m 8,5 km/h (2 Bft) W 269 15,5 C 18,8 km/h (3 Bft) 100 %
12.07.2018 11:01 18,6 C 81 % 1016,2 hPa 0,0 l/m 6,8 km/h (2 Bft) W-NW 298 15,3 C 12,6 km/h (3 Bft) 100 %
12.07.2018 11:02 18,6 C 81 % 1016,2 hPa 0,0 l/m 9,2 km/h (2 Bft) W-NW 297 15,3 C 12,6 km/h (3 Bft) 100 %
12.07.2018 11:03 18,7 C 81 % 1016,2 hPa 0,0 l/m 8,0 km/h (2 Bft) W 261 15,4 C 12,6 km/h (3 Bft) 96 %
12.07.2018 11:04 18,6 C 81 % 1016,2 hPa 0,0 l/m 6,0 km/h (2 Bft) NW 321 15,3 C 12,6 km/h (3 Bft) 100 %
12.07.2018 11:05 18,7 C 81 % 1016,2 hPa 0,0 l/m 0,8 km/h (0 Bft) N-NO 20 15,4 C 3,1 km/h (1 Bft) 96 %
12.07.2018 11:06 18,7 C 82 % 1016,2 hPa 0,0 l/m 0,4 km/h (0 Bft) S-SW 200 15,6 C 3,1 km/h (1 Bft) 96 %
12.07.2018 11:07 18,8 C 82 % 1016,2 hPa 0,0 l/m 3,8 km/h (1 Bft) W-SW 255 15,7 C 9,4 km/h (2 Bft) 96 %
12.07.2018 11:08 18,9 C 81 % 1016,2 hPa 0,0 l/m 7,7 km/h (2 Bft) NW 321 15,6 C 22,0 km/h (4 Bft) 100 %
12.07.2018 11:09 18,9 C 82 % 1016,2 hPa 0,0 l/m 6,1 km/h (2 Bft) W 272 15,8 C 15,7 km/h (3 Bft) 96 %
12.07.2018 11:10 19,0 C 82 % 1016,2 hPa 0,0 l/m 2,9 km/h (1 Bft) W-NW 282 15,9 C 6,3 km/h (2 Bft) 100 %
12.07.2018 11:11 19,1 C 81 % 1016,2 hPa 0,0 l/m 7,7 km/h (2 Bft) W-NW 282 15,8 C 18,8 km/h (3 Bft) 96 %
12.07.2018 11:12 19,1 C 79 % 1016,2 hPa 0,0 l/m 8,1 km/h (2 Bft) NW 307 15,4 C 12,6 km/h (3 Bft) 96 %
12.07.2018 11:13 19,1 C 80 % 1016,2 hPa 0,0 l/m 6,0 km/h (2 Bft) SW 215 15,6 C 9,4 km/h (2 Bft) 100 %
12.07.2018 11:14 19,1 C 80 % 1016,2 hPa 0,0 l/m 9,3 km/h (2 Bft) W-NW 295 15,6 C 18,8 km/h (3 Bft) 100 %
12.07.2018 11:15 19,1 C 80 % 1016,3 hPa 0,0 l/m 7,1 km/h (2 Bft) W 268 15,6 C 12,6 km/h (3 Bft) 100 %
12.07.2018 11:16 19,1 C 80 % 1016,2 hPa 0,0 l/m 9,8 km/h (2 Bft) W-NW 290 15,6 C 15,7 km/h (3 Bft) 100 %
12.07.2018 11:17 19,1 C 80 % 1016,2 hPa 0,0 l/m 8,1 km/h (2 Bft) W 278 15,6 C 18,8 km/h (3 Bft) 100 %
12.07.2018 11:18 19,0 C 80 % 1016,2 hPa 0,0 l/m 6,7 km/h (2 Bft) W-SW 240 15,5 C 9,4 km/h (2 Bft) 100 %
12.07.2018 11:19 19,0 C 80 % 1016,2 hPa 0,0 l/m 5,0 km/h (1 Bft) S-SW 212 15,5 C 12,6 km/h (3 Bft) 100 %
12.07.2018 11:20 19,0 C 80 % 1016,2 hPa 0,0 l/m 4,3 km/h (1 Bft) W-SW 249 15,5 C 9,4 km/h (2 Bft) 96 %
12.07.2018 11:21 19,1 C 81 % 1016,2 hPa 0,0 l/m 1,7 km/h (1 Bft) W-NW 302 15,8 C 3,1 km/h (1 Bft) 100 %
12.07.2018 11:22 19,2 C 80 % 1016,2 hPa 0,0 l/m 3,8 km/h (1 Bft) W-NW 299 15,7 C 12,6 km/h (3 Bft) 100 %
12.07.2018 11:23 19,2 C 80 % 1016,2 hPa 0,0 l/m 9,4 km/h (2 Bft) W-NW 293 15,7 C 15,7 km/h (3 Bft) 100 %
12.07.2018 11:24 19,2 C 80 % 1016,2 hPa 0,0 l/m 4,7 km/h (1 Bft) W-NW 285 15,7 C 12,6 km/h (3 Bft) 100 %
12.07.2018 11:25 19,2 C 80 % 1016,2 hPa 0,0 l/m 4,1 km/h (1 Bft) SW 223 15,7 C 12,6 km/h (3 Bft) 100 %
12.07.2018 11:26 19,2 C 80 % 1016,3 hPa 0,0 l/m 4,8 km/h (1 Bft) NW 319 15,7 C 9,4 km/h (2 Bft) 100 %
12.07.2018 11:27 19,3 C 80 % 1016,2 hPa 0,0 l/m 4,2 km/h (1 Bft) W 280 15,8 C 9,4 km/h (2 Bft) 100 %
12.07.2018 11:28 19,3 C 80 % 1016,2 hPa 0,0 l/m 7,5 km/h (2 Bft) NW 318 15,8 C 15,7 km/h (3 Bft) 100 %
12.07.2018 11:29 19,3 C 79 % 1016,2 hPa 0,0 l/m 4,0 km/h (1 Bft) NW 323 15,6 C 15,7 km/h (3 Bft) 100 %
12.07.2018 11:30 19,3 C 79 % 1016,2 hPa 0,0 l/m 6,3 km/h (2 Bft) W-NW 291 15,6 C 12,6 km/h (3 Bft) 100 %
12.07.2018 11:31 19,3 C 79 % 1016,3 hPa 0,0 l/m 3,9 km/h (1 Bft) W 273 15,6 C 9,4 km/h (2 Bft) 100 %
12.07.2018 11:32 19,3 C 79 % 1016,2 hPa 0,0 l/m 1,8 km/h (1 Bft) O 82 15,6 C 6,3 km/h (2 Bft) 100 %
12.07.2018 11:33 19,2 C 79 % 1016,3 hPa 0,0 l/m 5,2 km/h (1 Bft) W 273 15,5 C 9,4 km/h (2 Bft) 100 %
12.07.2018 11:34 19,3 C 79 % 1016,3 hPa 0,0 l/m 5,4 km/h (1 Bft) W 263 15,6 C 12,6 km/h (3 Bft) 100 %
12.07.2018 11:35 19,2 C 78 % 1016,3 hPa 0,0 l/m 8,8 km/h (2 Bft) W-NW 288 15,3 C 15,7 km/h (3 Bft) 100 %
12.07.2018 11:36 19,2 C 79 % 1016,3 hPa 0,0 l/m 7,8 km/h (2 Bft) NW 312 15,5 C 25,1 km/h (4 Bft) 100 %
12.07.2018 11:37 19,3 C 79 % 1016,3 hPa 0,0 l/m 6,8 km/h (2 Bft) W-NW 302 15,6 C 12,6 km/h (3 Bft) 100 %
12.07.2018 11:38 19,3 C 79 % 1016,3 hPa 0,0 l/m 5,3 km/h (1 Bft) NW 314 15,6 C 12,6 km/h (3 Bft) 100 %
12.07.2018 11:39 19,3 C 79 % 1016,3 hPa 0,0 l/m 5,1 km/h (1 Bft) W-NW 297 15,6 C 15,7 km/h (3 Bft) 100 %
12.07.2018 11:40 19,3 C 78 % 1016,3 hPa 0,0 l/m 7,5 km/h (2 Bft) NW 316 15,4 C 12,6 km/h (3 Bft) 100 %
12.07.2018 11:41 19,3 C 78 % 1016,3 hPa 0,0 l/m 5,9 km/h (2 Bft) W-NW 288 15,4 C 12,6 km/h (3 Bft) 100 %
12.07.2018 11:42 19,3 C 78 % 1016,3 hPa 0,0 l/m 5,2 km/h (1 Bft) W-NW 291 15,4 C 15,7 km/h (3 Bft) 100 %
12.07.2018 11:43 19,3 C 79 % 1016,3 hPa 0,0 l/m 6,9 km/h (2 Bft) NW 308 15,6 C 18,8 km/h (3 Bft) 100 %
12.07.2018 11:44 19,3 C 79 % 1016,3 hPa 0,0 l/m 12,6 km/h (3 Bft) NW 323 15,6 C 22,0 km/h (4 Bft) 100 %
12.07.2018 11:45 19,3 C 79 % 1016,3 hPa 0,0 l/m 11,6 km/h (2 Bft) NW 326 15,6 C 18,8 km/h (3 Bft) 100 %
12.07.2018 11:46 19,3 C 80 % 1016,3 hPa 0,0 l/m 5,8 km/h (2 Bft) W-NW 293 15,8 C 18,8 km/h (3 Bft) 100 %
12.07.2018 11:47 19,3 C 79 % 1016,3 hPa 0,0 l/m 11,8 km/h (2 Bft) W-NW 283 15,6 C 18,8 km/h (3 Bft) 100 %
12.07.2018 11:48 19,4 C 79 % 1016,3 hPa 0,0 l/m 7,8 km/h (2 Bft) NW 315 15,7 C 15,7 km/h (3 Bft) 100 %
12.07.2018 11:49 19,4 C 80 % 1016,3 hPa 0,0 l/m 4,1 km/h (1 Bft) SW 219 15,9 C 6,3 km/h (2 Bft) 100 %
12.07.2018 11:50 19,5 C 80 % 1016,2 hPa 0,0 l/m 4,6 km/h (1 Bft) NW 309 16,0 C 9,4 km/h (2 Bft) 100 %
12.07.2018 11:51 19,5 C 80 % 1016,2 hPa 0,0 l/m 4,8 km/h (1 Bft) W-NW 302 16,0 C 9,4 km/h (2 Bft) 100 %
12.07.2018 11:52 19,6 C 80 % 1016,3 hPa 0,0 l/m 6,4 km/h (2 Bft) S-SW 196 16,1 C 15,7 km/h (3 Bft) 100 %
12.07.2018 11:53 19,6 C 80 % 1016,3 hPa 0,0 l/m 8,5 km/h (2 Bft) W 271 16,1 C 12,6 km/h (3 Bft) 100 %
12.07.2018 11:54 19,6 C 79 % 1016,3 hPa 0,0 l/m 8,0 km/h (2 Bft) W-NW 297 15,9 C 18,8 km/h (3 Bft) 100 %
12.07.2018 11:55 19,6 C 78 % 1016,3 hPa 0,0 l/m 12,1 km/h (2 Bft) W-NW 299 15,7 C 18,8 km/h (3 Bft) 100 %
12.07.2018 11:56 19,6 C 78 % 1016,4 hPa 0,0 l/m 12,2 km/h (2 Bft) W-NW 284 15,7 C 18,8 km/h (3 Bft) 100 %
12.07.2018 11:57 19,5 C 78 % 1016,3 hPa 0,0 l/m 11,5 km/h (2 Bft) W-NW 288 15,6 C 15,7 km/h (3 Bft) 93 %
12.07.2018 11:58 19,4 C 79 % 1016,4 hPa 0,0 l/m 8,4 km/h (2 Bft) NW 311 15,7 C 18,8 km/h (3 Bft) 100 %
12.07.2018 11:59 19,4 C 79 % 1016,3 hPa 0,0 l/m 9,2 km/h (2 Bft) NW 304 15,7 C 15,7 km/h (3 Bft) 96 %
12.07.2018 12:00 19,5 C 79 % 1016,3 hPa 0,0 l/m 7,3 km/h (2 Bft) W 274 15,8 C 12,6 km/h (3 Bft) 100 %
12.07.2018 12:01 19,5 C 79 % 1016,4 hPa 0,0 l/m 5,0 km/h (1 Bft) NW 311 15,8 C 12,6 km/h (3 Bft) 96 %
12.07.2018 12:02 19,5 C 79 % 1016,3 hPa 0,0 l/m 5,5 km/h (1 Bft) W-NW 285 15,8 C 9,4 km/h (2 Bft) 100 %
12.07.2018 12:03 19,6 C 78 % 1016,4 hPa 0,0 l/m 6,3 km/h (2 Bft) S-SW 205 15,7 C 18,8 km/h (3 Bft) 96 %
12.07.2018 12:04 19,5 C 78 % 1016,4 hPa 0,0 l/m 8,2 km/h (2 Bft) W 266 15,6 C 22,0 km/h (4 Bft) 96 %
12.07.2018 12:05 19,5 C 78 % 1016,4 hPa 0,0 l/m 7,8 km/h (2 Bft) SW 236 15,6 C 18,8 km/h (3 Bft) 100 %
12.07.2018 12:06 19,5 C 78 % 1016,4 hPa 0,0 l/m 9,4 km/h (2 Bft) W-SW 257 15,6 C 22,0 km/h (4 Bft) 100 %
12.07.2018 12:07 19,5 C 78 % 1016,4 hPa 0,0 l/m 9,4 km/h (2 Bft) W 280 15,6 C 22,0 km/h (4 Bft) 100 %
12.07.2018 12:08 19,4 C 78 % 1016,4 hPa 0,0 l/m 7,3 km/h (2 Bft) W 278 15,5 C 12,6 km/h (3 Bft) 100 %
12.07.2018 12:09 19,4 C 78 % 1016,4 hPa 0,0 l/m 7,2 km/h (2 Bft) W-NW 284 15,5 C 18,8 km/h (3 Bft) 100 %
12.07.2018 12:10 19,4 C 78 % 1016,4 hPa 0,0 l/m 8,2 km/h (2 Bft) W-SW 246 15,5 C 18,8 km/h (3 Bft) 100 %
12.07.2018 12:11 19,4 C 78 % 1016,4 hPa 0,0 l/m 4,9 km/h (1 Bft) NW 315 15,5 C 12,6 km/h (3 Bft) 100 %
12.07.2018 12:12 19,5 C 78 % 1016,4 hPa 0,0 l/m 2,5 km/h (1 Bft) W-NW 300 15,6 C 6,3 km/h (2 Bft) 100 %
12.07.2018 12:13 19,6 C 78 % 1016,5 hPa 0,0 l/m 2,9 km/h (1 Bft) W-NW 295 15,7 C 9,4 km/h (2 Bft) 100 %
12.07.2018 12:14 19,6 C 79 % 1016,4 hPa 0,0 l/m 7,0 km/h (2 Bft) NW 317 15,9 C 18,8 km/h (3 Bft) 100 %
12.07.2018 12:15 19,7 C 77 % 1016,4 hPa 0,0 l/m 5,4 km/h (1 Bft) W-NW 301 15,5 C 15,7 km/h (3 Bft) 100 %
12.07.2018 12:16 19,8 C 77 % 1016,4 hPa 0,0 l/m 7,5 km/h (2 Bft) SW 217 15,6 C 12,6 km/h (3 Bft) 100 %
12.07.2018 12:17 19,8 C 76 % 1016,5 hPa 0,0 l/m 6,6 km/h (2 Bft) W-NW 292 15,4 C 18,8 km/h (3 Bft) 100 %
12.07.2018 12:18 19,8 C 76 % 1016,5 hPa 0,0 l/m 7,0 km/h (2 Bft) W-NW 290 15,4 C 12,6 km/h (3 Bft) 100 %
12.07.2018 12:19 19,8 C 77 % 1016,5 hPa 0,0 l/m 11,8 km/h (2 Bft) W-NW 285 15,6 C 25,1 km/h (4 Bft) 100 %
12.07.2018 12:20 19,8 C 77 % 1016,5 hPa 0,0 l/m 7,0 km/h (2 Bft) W-SW 241 15,6 C 15,7 km/h (3 Bft) 100 %
12.07.2018 12:21 19,8 C 78 % 1016,5 hPa 0,0 l/m 3,9 km/h (1 Bft) W-SW 252 15,8 C 6,3 km/h (2 Bft) 100 %
12.07.2018 12:22 19,8 C 77 % 1016,4 hPa 0,0 l/m 4,1 km/h (1 Bft) SW 220 15,6 C 9,4 km/h (2 Bft) 100 %
12.07.2018 12:23 19,9 C 78 % 1016,4 hPa 0,0 l/m 2,1 km/h (1 Bft) S-SW 206 15,9 C 6,3 km/h (2 Bft) 100 %
12.07.2018 12:24 19,9 C 77 % 1016,4 hPa 0,0 l/m 4,9 km/h (1 Bft) W 281 15,7 C 9,4 km/h (2 Bft) 100 %
12.07.2018 12:25 19,9 C 77 % 1016,4 hPa 0,0 l/m 6,5 km/h (2 Bft) W-NW 284 15,7 C 15,7 km/h (3 Bft) 100 %
12.07.2018 12:26 19,9 C 77 % 1016,4 hPa 0,0 l/m 7,1 km/h (2 Bft) W-NW 295 15,7 C 12,6 km/h (3 Bft) 100 %
12.07.2018 12:27 19,9 C 76 % 1016,4 hPa 0,0 l/m 6,5 km/h (2 Bft) W 273 15,5 C 12,6 km/h (3 Bft) 100 %
12.07.2018 12:28 19,9 C 77 % 1016,4 hPa 0,0 l/m 9,1 km/h (2 Bft) N-NW 335 15,7 C 22,0 km/h (4 Bft) 100 %
12.07.2018 12:29 19,9 C 76 % 1016,4 hPa 0,0 l/m 12,4 km/h (3 Bft) W-NW 285 15,5 C 25,1 km/h (4 Bft) 100 %
12.07.2018 12:30 19,9 C 76 % 1016,4 hPa 0,0 l/m 6,1 km/h (2 Bft) W-NW 303 15,5 C 18,8 km/h (3 Bft) 100 %
12.07.2018 12:31 19,9 C 76 % 1016,4 hPa 0,0 l/m 9,4 km/h (2 Bft) W-NW 295 15,5 C 18,8 km/h (3 Bft) 100 %
12.07.2018 12:32 19,9 C 76 % 1016,3 hPa 0,0 l/m 11,7 km/h (2 Bft) W 262 15,5 C 15,7 km/h (3 Bft) 100 %
12.07.2018 12:33 20,0 C 76 % 1016,3 hPa 0,0 l/m 12,9 km/h (3 Bft) W-NW 288 15,6 C 22,0 km/h (4 Bft) 100 %
12.07.2018 12:34 20,1 C 77 % 1016,3 hPa 0,0 l/m 5,0 km/h (1 Bft) N-NO 20 15,9 C 9,4 km/h (2 Bft) 99 %
12.07.2018 12:35 20,2 C 77 % 1016,4 hPa 0,0 l/m 3,1 km/h (1 Bft) W-NW 289 16,0 C 6,3 km/h (2 Bft) 100 %
12.07.2018 12:36 20,3 C 76 % 1016,3 hPa 0,0 l/m 7,8 km/h (2 Bft) W 259 15,9 C 15,7 km/h (3 Bft) 100 %
12.07.2018 12:37 20,4 C 76 % 1016,3 hPa 0,0 l/m 8,8 km/h (2 Bft) W-SW 245 16,0 C 15,7 km/h (3 Bft) 100 %
12.07.2018 12:38 20,5 C 75 % 1016,4 hPa 0,0 l/m 14,9 km/h (3 Bft) SW 234 15,9 C 31,4 km/h (5 Bft) 99 %
12.07.2018 12:39 20,6 C 75 % 1016,4 hPa 0,0 l/m 10,6 km/h (2 Bft) W-SW 257 16,0 C 18,8 km/h (3 Bft) 100 %
12.07.2018 12:40 20,6 C 74 % 1016,3 hPa 0,0 l/m 4,2 km/h (1 Bft) NW 304 15,8 C 9,4 km/h (2 Bft) 100 %
12.07.2018 12:41 20,7 C 75 % 1016,3 hPa 0,0 l/m 2,7 km/h (1 Bft) W-NW 293 16,1 C 6,3 km/h (2 Bft) 100 %
12.07.2018 12:42 20,8 C 75 % 1016,4 hPa 0,0 l/m 5,9 km/h (2 Bft) NW 317 16,2 C 15,7 km/h (3 Bft) 100 %
12.07.2018 12:43 20,8 C 73 % 1016,4 hPa 0,0 l/m 8,2 km/h (2 Bft) NW 321 15,8 C 18,8 km/h (3 Bft) 100 %
12.07.2018 12:44 20,9 C 74 % 1016,4 hPa 0,0 l/m 1,4 km/h (1 Bft) NO 49 16,1 C 6,3 km/h (2 Bft) 100 %
12.07.2018 12:45 21,0 C 75 % 1016,4 hPa 0,0 l/m 2,0 km/h (1 Bft) SW 226 16,4 C 6,3 km/h (2 Bft) 100 %
12.07.2018 12:46 21,1 C 74 % 1016,4 hPa 0,0 l/m 2,7 km/h (1 Bft) W 277 16,3 C 9,4 km/h (2 Bft) 100 %
12.07.2018 12:47 21,1 C 74 % 1016,3 hPa 0,0 l/m 5,1 km/h (1 Bft) W-SW 243 16,3 C 9,4 km/h (2 Bft) 97 %
12.07.2018 12:48 21,1 C 72 % 1016,4 hPa 0,0 l/m 18,6 km/h (3 Bft) W-NW 295 15,8 C 28,2 km/h (4 Bft) 94 %
12.07.2018 12:49 21,1 C 72 % 1016,4 hPa 0,0 l/m 4,6 km/h (1 Bft) NW 308 15,8 C 9,4 km/h (2 Bft) 100 %
12.07.2018 12:50 20,9 C 73 % 1016,4 hPa 0,0 l/m 3,3 km/h (1 Bft) W-NW 289 15,9 C 6,3 km/h (2 Bft) 100 %
12.07.2018 12:51 20,9 C 74 % 1016,4 hPa 0,0 l/m 4,5 km/h (1 Bft) W-NW 298 16,1 C 12,6 km/h (3 Bft) 96 %
12.07.2018 12:52 20,8 C 74 % 1016,4 hPa 0,0 l/m 9,7 km/h (2 Bft) W-SW 252 16,0 C 18,8 km/h (3 Bft) 100 %
12.07.2018 12:53 20,8 C 74 % 1016,4 hPa 0,0 l/m 7,5 km/h (2 Bft) W-SW 244 16,0 C 18,8 km/h (3 Bft) 96 %
12.07.2018 12:54 20,7 C 74 % 1016,4 hPa 0,0 l/m 8,0 km/h (2 Bft) W-NW 282 15,9 C 12,6 km/h (3 Bft) 96 %
12.07.2018 12:55 20,6 C 74 % 1016,5 hPa 0,0 l/m 8,5 km/h (2 Bft) SW 219 15,8 C 15,7 km/h (3 Bft) 100 %
12.07.2018 12:56 20,5 C 74 % 1016,4 hPa 0,0 l/m 9,9 km/h (2 Bft) W-SW 248 15,7 C 15,7 km/h (3 Bft) 100 %
12.07.2018 12:57 20,4 C 76 % 1016,4 hPa 0,0 l/m 3,5 km/h (1 Bft) W 272 16,0 C 6,3 km/h (2 Bft) 96 %
12.07.2018 12:58 20,4 C 76 % 1016,4 hPa 0,0 l/m 1,0 km/h (0 Bft) SW 230 16,0 C 3,1 km/h (1 Bft) 96 %
12.07.2018 12:59 20,4 C 76 % 1016,4 hPa 0,0 l/m 2,0 km/h (1 Bft) S 189 16,0 C 9,4 km/h (2 Bft) 100 %
12.07.2018 13:00 20,5 C 76 % 1016,4 hPa 0,0 l/m 2,6 km/h (1 Bft) W-SW 250 16,1 C 9,4 km/h (2 Bft) 100 %
12.07.2018 13:01 20,5 C 76 % 1016,4 hPa 0,0 l/m 7,5 km/h (2 Bft) W-NW 286 16,1 C 15,7 km/h (3 Bft) 100 %
12.07.2018 13:02 20,6 C 75 % 1016,4 hPa 0,0 l/m 6,0 km/h (2 Bft) NW 308 16,0 C 9,4 km/h (2 Bft) 100 %
12.07.2018 13:03 20,6 C 75 % 1016,4 hPa 0,0 l/m 9,4 km/h (2 Bft) W-NW 285 16,0 C 22,0 km/h (4 Bft) 100 %
12.07.2018 13:04 20,6 C 75 % 1016,4 hPa 0,0 l/m 3,9 km/h (1 Bft) NW 305 16,0 C 9,4 km/h (2 Bft) 100 %
12.07.2018 13:05 20,6 C 75 % 1016,5 hPa 0,0 l/m 8,2 km/h (2 Bft) W 276 16,0 C 25,1 km/h (4 Bft) 100 %
12.07.2018 13:06 20,5 C 75 % 1016,5 hPa 0,0 l/m 9,2 km/h (2 Bft) N-NW 336 15,9 C 22,0 km/h (4 Bft) 100 %
12.07.2018 13:07 20,4 C 74 % 1016,4 hPa 0,0 l/m 8,0 km/h (2 Bft) W-NW 290 15,6 C 31,4 km/h (5 Bft) 100 %
12.07.2018 13:08 20,4 C 74 % 1016,4 hPa 0,0 l/m 12,0 km/h (2 Bft) SW 222 15,6 C 22,0 km/h (4 Bft) 100 %
12.07.2018 13:09 20,3 C 75 % 1016,5 hPa 0,0 l/m 10,4 km/h (2 Bft) W-SW 250 15,7 C 22,0 km/h (4 Bft) 100 %
12.07.2018 13:10 20,3 C 75 % 1016,5 hPa 0,0 l/m 5,4 km/h (1 Bft) W-SW 249 15,7 C 9,4 km/h (2 Bft) 100 %
12.07.2018 13:11 20,3 C 76 % 1016,4 hPa 0,0 l/m 3,0 km/h (1 Bft) W-NW 300 15,9 C 12,6 km/h (3 Bft) 100 %
12.07.2018 13:12 20,3 C 76 % 1016,4 hPa 0,0 l/m 5,8 km/h (2 Bft) W-NW 296 15,9 C 12,6 km/h (3 Bft) 100 %
12.07.2018 13:13 20,3 C 75 % 1016,4 hPa 0,0 l/m 5,0 km/h (1 Bft) W 280 15,7 C 12,6 km/h (3 Bft) 100 %
12.07.2018 13:14 20,3 C 75 % 1016,4 hPa 0,0 l/m 3,0 km/h (1 Bft) W 269 15,7 C 9,4 km/h (2 Bft) 100 %
12.07.2018 13:15 20,3 C 75 % 1016,5 hPa 0,0 l/m 10,6 km/h (2 Bft) W-NW 300 15,7 C 25,1 km/h (4 Bft) 100 %
12.07.2018 13:16 20,4 C 75 % 1016,5 hPa 0,0 l/m 4,7 km/h (1 Bft) W-NW 300 15,8 C 9,4 km/h (2 Bft) 100 %
12.07.2018 13:17 20,4 C 76 % 1016,4 hPa 0,0 l/m 0,1 km/h (0 Bft) W-NW 285 16,0 C 3,1 km/h (1 Bft) 100 %
12.07.2018 13:18 20,5 C 75 % 1016,5 hPa 0,0 l/m 2,0 km/h (1 Bft) W 276 15,9 C 3,1 km/h (1 Bft) 100 %
12.07.2018 13:19 20,6 C 75 % 1016,5 hPa 0,0 l/m 3,8 km/h (1 Bft) W-NW 300 16,0 C 12,6 km/h (3 Bft) 100 %
12.07.2018 13:20 20,7 C 74 % 1016,4 hPa 0,0 l/m 6,7 km/h (2 Bft) SW 222 15,9 C 12,6 km/h (3 Bft) 100 %
12.07.2018 13:21 20,8 C 74 % 1016,5 hPa 0,0 l/m 5,8 km/h (2 Bft) NW 323 16,0 C 12,6 km/h (3 Bft) 100 %
12.07.2018 13:22 20,9 C 74 % 1016,5 hPa 0,0 l/m 5,7 km/h (1 Bft) NO 36 16,1 C 12,6 km/h (3 Bft) 100 %
12.07.2018 13:23 21,1 C 76 % 1016,5 hPa 0,0 l/m 2,9 km/h (1 Bft) W-SW 249 16,7 C 6,3 km/h (2 Bft) 100 %
12.07.2018 13:24 21,3 C 73 % 1016,5 hPa 0,0 l/m 6,4 km/h (2 Bft) W-SW 245 16,3 C 9,4 km/h (2 Bft) 100 %
12.07.2018 13:25 21,3 C 72 % 1016,5 hPa 0,0 l/m 8,1 km/h (2 Bft) S-SW 211 16,0 C 15,7 km/h (3 Bft) 100 %
12.07.2018 13:26 21,3 C 72 % 1016,4 hPa 0,0 l/m 4,2 km/h (1 Bft) SW 220 16,0 C 9,4 km/h (2 Bft) 100 %
12.07.2018 13:27 21,4 C 72 % 1016,5 hPa 0,0 l/m 2,6 km/h (1 Bft) W-NW 297 16,1 C 6,3 km/h (2 Bft) 100 %
12.07.2018 13:28 21,4 C 71 % 1016,3 hPa 0,0 l/m 7,7 km/h (2 Bft) W-SW 245 15,9 C 18,8 km/h (3 Bft) 100 %
12.07.2018 13:29 21,4 C 71 % 1016,3 hPa 0,0 l/m 6,3 km/h (2 Bft) W 271 15,9 C 9,4 km/h (2 Bft) 100 %
12.07.2018 13:30 21,5 C 73 % 1016,3 hPa 0,0 l/m 4,6 km/h (1 Bft) S-SW 211 16,4 C 9,4 km/h (2 Bft) 100 %
12.07.2018 13:31 21,6 C 73 % 1016,4 hPa 0,0 l/m 3,4 km/h (1 Bft) W 270 16,5 C 6,3 km/h (2 Bft) 100 %
12.07.2018 13:32 21,7 C 72 % 1016,4 hPa 0,0 l/m 4,8 km/h (1 Bft) W-SW 257 16,4 C 9,4 km/h (2 Bft) 100 %
12.07.2018 13:33 21,6 C 72 % 1016,3 hPa 0,0 l/m 0,8 km/h (0 Bft) NW 325 16,3 C 3,1 km/h (1 Bft) 100 %
12.07.2018 13:34 21,6 C 71 % 1016,3 hPa 0,0 l/m 6,6 km/h (2 Bft) W-NW 295 16,1 C 15,7 km/h (3 Bft) 100 %
12.07.2018 13:35 21,6 C 71 % 1016,3 hPa 0,0 l/m 6,5 km/h (2 Bft) W-NW 292 16,1 C 9,4 km/h (2 Bft) 100 %
12.07.2018 13:36 21,5 C 71 % 1016,3 hPa 0,0 l/m 2,0 km/h (1 Bft) N-NO 19 16,0 C 6,3 km/h (2 Bft) 100 %
12.07.2018 13:37 21,5 C 70 % 1016,3 hPa 0,0 l/m 8,6 km/h (2 Bft) W 277 15,8 C 12,6 km/h (3 Bft) 100 %
12.07.2018 13:38 21,5 C 70 % 1016,3 hPa 0,0 l/m 6,4 km/h (2 Bft) W-NW 290 15,8 C 9,4 km/h (2 Bft) 100 %
12.07.2018 13:39 21,6 C 72 % 1016,3 hPa 0,0 l/m 1,4 km/h (1 Bft) W-SW 258 16,3 C 6,3 km/h (2 Bft) 100 %
12.07.2018 13:40 21,6 C 70 % 1016,3 hPa 0,0 l/m 12,9 km/h (3 Bft) W-NW 299 15,9 C 25,1 km/h (4 Bft) 100 %
12.07.2018 13:41 21,7 C 70 % 1016,3 hPa 0,0 l/m 4,9 km/h (1 Bft) W-SW 255 16,0 C 9,4 km/h (2 Bft) 100 %
12.07.2018 13:42 21,7 C 70 % 1016,2 hPa 0,0 l/m 2,4 km/h (1 Bft) W-SW 255 16,0 C 3,1 km/h (1 Bft) 100 %
12.07.2018 13:43 21,8 C 71 % 1016,2 hPa 0,0 l/m 4,6 km/h (1 Bft) NW 310 16,3 C 9,4 km/h (2 Bft) 100 %
12.07.2018 13:44 21,9 C 71 % 1016,2 hPa 0,0 l/m 4,6 km/h (1 Bft) W-SW 246 16,4 C 9,4 km/h (2 Bft) 100 %
12.07.2018 13:45 22,1 C 70 % 1016,2 hPa 0,0 l/m 6,3 km/h (2 Bft) W-NW 297 16,4 C 9,4 km/h (2 Bft) 93 %
12.07.2018 13:46 22,2 C 69 % 1016,3 hPa 0,0 l/m 9,0 km/h (2 Bft) W-NW 287 16,2 C 15,7 km/h (3 Bft) 100 %
12.07.2018 13:47 22,2 C 69 % 1016,3 hPa 0,0 l/m 7,8 km/h (2 Bft) W-SW 243 16,2 C 15,7 km/h (3 Bft) 96 %
12.07.2018 13:48 22,3 C 69 % 1016,2 hPa 0,0 l/m 2,7 km/h (1 Bft) SW 214 16,3 C 6,3 km/h (2 Bft) 96 %
12.07.2018 13:49 22,4 C 68 % 1016,2 hPa 0,0 l/m 4,1 km/h (1 Bft) W 281 16,2 C 9,4 km/h (2 Bft) 100 %
12.07.2018 13:50 22,4 C 66 % 1016,2 hPa 0,0 l/m 5,1 km/h (1 Bft) O-NO 68 15,7 C 9,4 km/h (2 Bft) 96 %
12.07.2018 13:51 22,4 C 67 % 1016,1 hPa 0,0 l/m 2,0 km/h (1 Bft) W-NW 295 16,0 C 6,3 km/h (2 Bft) 100 %
12.07.2018 13:52 22,3 C 67 % 1016,1 hPa 0,0 l/m 6,9 km/h (2 Bft) W 268 15,9 C 15,7 km/h (3 Bft) 93 %
12.07.2018 13:53 22,3 C 67 % 1016,1 hPa 0,0 l/m 8,9 km/h (2 Bft) W-NW 286 15,9 C 15,7 km/h (3 Bft) 100 %
12.07.2018 13:54 22,3 C 68 % 1016,2 hPa 0,0 l/m 9,8 km/h (2 Bft) W 266 16,1 C 15,7 km/h (3 Bft) 100 %
12.07.2018 13:55 22,3 C 67 % 1016,1 hPa 0,0 l/m 9,1 km/h (2 Bft) W-SW 252 15,9 C 15,7 km/h (3 Bft) 100 %
12.07.2018 13:56 22,3 C 67 % 1016,1 hPa 0,0 l/m 1,4 km/h (1 Bft) W-SW 237 15,9 C 3,1 km/h (1 Bft) 100 %
12.07.2018 13:57 22,3 C 67 % 1016,1 hPa 0,0 l/m 4,2 km/h (1 Bft) W-NW 282 15,9 C 6,3 km/h (2 Bft) 100 %
12.07.2018 13:58 22,2 C 66 % 1016,2 hPa 0,0 l/m 2,3 km/h (1 Bft) W-NW 294 15,5 C 6,3 km/h (2 Bft) 100 %
12.07.2018 13:59 22,2 C 65 % 1016,1 hPa 0,0 l/m 0,6 km/h (0 Bft) W-NW 294 15,3 C 3,1 km/h (1 Bft) 100 %
12.07.2018 14:00 22,2 C 66 % 1016,1 hPa 0,0 l/m 1,3 km/h (1 Bft) N-NW 329 15,5 C 9,4 km/h (2 Bft) 100 %
12.07.2018 14:01 22,2 C 67 % 1016,1 hPa 0,0 l/m 9,6 km/h (2 Bft) W 279 15,8 C 15,7 km/h (3 Bft) 100 %
12.07.2018 14:02 22,2 C 66 % 1016,1 hPa 0,0 l/m 2,6 km/h (1 Bft) W-SW 257 15,5 C 6,3 km/h (2 Bft) 100 %
12.07.2018 14:03 22,2 C 68 % 1016,1 hPa 0,0 l/m 1,6 km/h (1 Bft) W-SW 248 16,0 C 6,3 km/h (2 Bft) 100 %
12.07.2018 14:04 22,3 C 68 % 1016,1 hPa 0,0 l/m 1,8 km/h (1 Bft) W-NW 293 16,1 C 12,6 km/h (3 Bft) 100 %
12.07.2018 14:05 22,4 C 67 % 1016,1 hPa 0,0 l/m 5,6 km/h (1 Bft) NW 307 16,0 C 9,4 km/h (2 Bft) 100 %
12.07.2018 14:06 22,4 C 67 % 1016,1 hPa 0,0 l/m 3,3 km/h (1 Bft) NW 306 16,0 C 6,3 km/h (2 Bft) 100 %
12.07.2018 14:07 22,5 C 67 % 1016,2 hPa 0,0 l/m 7,1 km/h (2 Bft) W-NW 296 16,1 C 15,7 km/h (3 Bft) 100 %
12.07.2018 14:08 22,4 C 68 % 1016,1 hPa 0,0 l/m 7,4 km/h (2 Bft) W 281 16,2 C 12,6 km/h (3 Bft) 100 %
12.07.2018 14:09 22,4 C 67 % 1016,1 hPa 0,0 l/m 8,4 km/h (2 Bft) W-NW 300 16,0 C 22,0 km/h (4 Bft) 100 %
12.07.2018 14:10 22,3 C 66 % 1016,1 hPa 0,0 l/m 12,3 km/h (3 Bft) S-SW 204 15,6 C 28,2 km/h (4 Bft) 100 %
12.07.2018 14:11 22,2 C 67 % 1016,1 hPa 0,0 l/m 5,9 km/h (2 Bft) W-SW 249 15,8 C 9,4 km/h (2 Bft) 100 %
12.07.2018 14:12 22,2 C 67 % 1016,1 hPa 0,0 l/m 4,7 km/h (1 Bft) W-NW 299 15,8 C 6,3 km/h (2 Bft) 100 %
12.07.2018 14:13 22,2 C 67 % 1016,1 hPa 0,0 l/m 4,4 km/h (1 Bft) W 269 15,8 C 6,3 km/h (2 Bft) 99 %
12.07.2018 14:14 22,2 C 67 % 1016,1 hPa 0,0 l/m 9,1 km/h (2 Bft) W-NW 288 15,8 C 12,6 km/h (3 Bft) 99 %
12.07.2018 14:15 22,2 C 68 % 1016,0 hPa 0,0 l/m 3,1 km/h (1 Bft) W-NW 293 16,0 C 6,3 km/h (2 Bft) 100 %
12.07.2018 14:16 22,3 C 67 % 1016,0 hPa 0,0 l/m 11,6 km/h (2 Bft) W-SW 248 15,9 C 18,8 km/h (3 Bft) 100 %
12.07.2018 14:17 22,3 C 67 % 1016,0 hPa 0,0 l/m 6,5 km/h (2 Bft) W-SW 252 15,9 C 12,6 km/h (3 Bft) 100 %
12.07.2018 14:18 22,4 C 68 % 1016,0 hPa 0,0 l/m 3,0 km/h (1 Bft) W-NW 297 16,2 C 6,3 km/h (2 Bft) 100 %
12.07.2018 14:19 22,6 C 68 % 1016,0 hPa 0,0 l/m 1,0 km/h (0 Bft) NW 308 16,4 C 3,1 km/h (1 Bft) 100 %
12.07.2018 14:20 22,6 C 66 % 1015,9 hPa 0,0 l/m 7,3 km/h (2 Bft) W 278 15,9 C 12,6 km/h (3 Bft) 100 %
12.07.2018 14:21 22,7 C 67 % 1016,0 hPa 0,0 l/m 2,2 km/h (1 Bft) W-NW 300 16,2 C 6,3 km/h (2 Bft) 100 %
12.07.2018 14:22 22,8 C 67 % 1015,9 hPa 0,0 l/m 2,3 km/h (1 Bft) W-SW 240 16,3 C 3,1 km/h (1 Bft) 100 %
12.07.2018 14:23 23,0 C 68 % 1015,8 hPa 0,0 l/m 6,4 km/h (2 Bft) W-NW 299 16,8 C 15,7 km/h (3 Bft) 100 %
12.07.2018 14:24 23,1 C 66 % 1015,9 hPa 0,0 l/m 7,0 km/h (2 Bft) W-NW 293 16,4 C 22,0 km/h (4 Bft) 100 %
12.07.2018 14:25 23,1 C 65 % 1015,9 hPa 0,0 l/m 9,3 km/h (2 Bft) W-NW 298 16,2 C 22,0 km/h (4 Bft) 100 %
12.07.2018 14:26 22,9 C 64 % 1015,9 hPa 0,0 l/m 7,7 km/h (2 Bft) SW 226 15,7 C 22,0 km/h (4 Bft) 100 %
12.07.2018 14:27 22,8 C 65 % 1015,9 hPa 0,0 l/m 1,9 km/h (1 Bft) W 281 15,9 C 3,1 km/h (1 Bft) 100 %
12.07.2018 14:28 22,8 C 65 % 1015,9 hPa 0,0 l/m 5,4 km/h (1 Bft) W-NW 300 15,9 C 12,6 km/h (3 Bft) 100 %
12.07.2018 14:29 22,7 C 66 % 1015,9 hPa 0,0 l/m 7,1 km/h (2 Bft) W-NW 299 16,0 C 15,7 km/h (3 Bft) 100 %
12.07.2018 14:30 22,6 C 66 % 1015,9 hPa 0,0 l/m 9,0 km/h (2 Bft) W-SW 250 15,9 C 18,8 km/h (3 Bft) 100 %
12.07.2018 14:31 22,6 C 66 % 1015,9 hPa 0,0 l/m 7,5 km/h (2 Bft) W-NW 295 15,9 C 15,7 km/h (3 Bft) 100 %
12.07.2018 14:32 22,6 C 67 % 1015,9 hPa 0,0 l/m 6,3 km/h (2 Bft) SO 124 16,2 C 15,7 km/h (3 Bft) 100 %
12.07.2018 14:33 22,7 C 66 % 1015,9 hPa 0,0 l/m 2,2 km/h (1 Bft) S-SW 207 16,0 C 6,3 km/h (2 Bft) 100 %
12.07.2018 14:34 22,7 C 65 % 1015,8 hPa 0,0 l/m 2,1 km/h (1 Bft) SW 229 15,8 C 6,3 km/h (2 Bft) 100 %
12.07.2018 14:35 22,7 C 66 % 1015,9 hPa 0,0 l/m 5,1 km/h (1 Bft) W 273 16,0 C 12,6 km/h (3 Bft) 100 %
12.07.2018 14:36 22,8 C 65 % 1015,8 hPa 0,0 l/m 9,0 km/h (2 Bft) W-NW 294 15,9 C 15,7 km/h (3 Bft) 93 %
12.07.2018 14:37 22,8 C 65 % 1015,9 hPa 0,0 l/m 5,2 km/h (1 Bft) W-NW 293 15,9 C 12,6 km/h (3 Bft) 100 %
12.07.2018 14:38 22,8 C 64 % 1015,8 hPa 0,0 l/m 5,5 km/h (1 Bft) W-NW 302 15,6 C 12,6 km/h (3 Bft) 100 %
12.07.2018 14:39 22,8 C 65 % 1015,9 hPa 0,0 l/m 2,0 km/h (1 Bft) N 5 15,9 C 3,1 km/h (1 Bft) 100 %
12.07.2018 14:40 22,8 C 65 % 1015,9 hPa 0,0 l/m 9,0 km/h (2 Bft) SW 221 15,9 C 18,8 km/h (3 Bft) 96 %
12.07.2018 14:41 22,8 C 64 % 1015,8 hPa 0,0 l/m 6,6 km/h (2 Bft) W-NW 299 15,6 C 15,7 km/h (3 Bft) 100 %
12.07.2018 14:42 22,8 C 65 % 1015,9 hPa 0,0 l/m 10,2 km/h (2 Bft) W-SW 237 15,9 C 18,8 km/h (3 Bft) 96 %
12.07.2018 14:43 22,8 C 65 % 1015,9 hPa 0,0 l/m 9,3 km/h (2 Bft) W-NW 289 15,9 C 18,8 km/h (3 Bft) 100 %
12.07.2018 14:44 22,8 C 65 % 1015,9 hPa 0,0 l/m 5,6 km/h (1 Bft) SW 224 15,9 C 18,8 km/h (3 Bft) 92 %
12.07.2018 14:45 22,8 C 66 % 1015,8 hPa 0,0 l/m 1,6 km/h (1 Bft) W-SW 248 16,1 C 6,3 km/h (2 Bft) 100 %
12.07.2018 14:46 22,8 C 65 % 1015,8 hPa 0,0 l/m 3,9 km/h (1 Bft) W 280 15,9 C 12,6 km/h (3 Bft) 96 %
12.07.2018 14:47 22,9 C 67 % 1015,8 hPa 0,0 l/m 8,2 km/h (2 Bft) S-SW 203 16,4 C 15,7 km/h (3 Bft) 100 %
12.07.2018 14:48 22,9 C 64 % 1015,8 hPa 0,0 l/m 7,4 km/h (2 Bft) SW 227 15,7 C 12,6 km/h (3 Bft) 96 %
12.07.2018 14:49 22,9 C 65 % 1015,8 hPa 0,0 l/m 5,0 km/h (1 Bft) NW 311 16,0 C 12,6 km/h (3 Bft) 100 %
12.07.2018 14:50 22,9 C 64 % 1015,8 hPa 0,0 l/m 11,0 km/h (2 Bft) W 281 15,7 C 18,8 km/h (3 Bft) 100 %
12.07.2018 14:51 22,8 C 64 % 1015,8 hPa 0,0 l/m 8,1 km/h (2 Bft) SW 233 15,6 C 12,6 km/h (3 Bft) 100 %
12.07.2018 14:52 22,8 C 64 % 1015,7 hPa 0,0 l/m 2,9 km/h (1 Bft) W-NW 297 15,6 C 9,4 km/h (2 Bft) 100 %
12.07.2018 14:53 22,7 C 64 % 1015,7 hPa 0,0 l/m 4,1 km/h (1 Bft) NW 305 15,5 C 9,4 km/h (2 Bft) 100 %
12.07.2018 14:54 22,8 C 66 % 1015,7 hPa 0,0 l/m 0,1 km/h (0 Bft) S-SO 163 16,1 C 3,1 km/h (1 Bft) 100 %
12.07.2018 14:55 22,9 C 68 % 1015,7 hPa 0,0 l/m 1,4 km/h (1 Bft) W-NW 301 16,7 C 6,3 km/h (2 Bft) 100 %
12.07.2018 14:56 23,1 C 65 % 1015,6 hPa 0,0 l/m 3,7 km/h (1 Bft) W 263 16,2 C 9,4 km/h (2 Bft) 100 %
12.07.2018 14:57 23,3 C 66 % 1015,7 hPa 0,0 l/m 6,7 km/h (2 Bft) W 276 16,6 C 15,7 km/h (3 Bft) 100 %
12.07.2018 14:58 23,4 C 65 % 1015,7 hPa 0,0 l/m 5,0 km/h (1 Bft) N-NO 12 16,4 C 15,7 km/h (3 Bft) 100 %
12.07.2018 14:59 23,4 C 63 % 1015,7 hPa 0,0 l/m 7,2 km/h (2 Bft) NW 321 15,9 C 12,6 km/h (3 Bft) 100 %
12.07.2018 15:00 23,4 C 63 % 1015,7 hPa 0,0 l/m 4,3 km/h (1 Bft) SW 229 15,9 C 12,6 km/h (3 Bft) 100 %
12.07.2018 15:01 23,4 C 63 % 1015,7 hPa 0,0 l/m 5,1 km/h (1 Bft) W-SW 250 15,9 C 9,4 km/h (2 Bft) 100 %
12.07.2018 15:02 23,4 C 62 % 1015,7 hPa 0,0 l/m 3,0 km/h (1 Bft) SW 216 15,7 C 6,3 km/h (2 Bft) 100 %
12.07.2018 15:03 23,4 C 63 % 1015,8 hPa 0,0 l/m 1,5 km/h (1 Bft) W-SW 252 15,9 C 6,3 km/h (2 Bft) 100 %
12.07.2018 15:04 23,3 C 62 % 1015,8 hPa 0,0 l/m 6,5 km/h (2 Bft) W-NW 288 15,6 C 15,7 km/h (3 Bft) 100 %
12.07.2018 15:05 23,3 C 61 % 1015,7 hPa 0,0 l/m 5,6 km/h (1 Bft) NO 56 15,3 C 9,4 km/h (2 Bft) 100 %
12.07.2018 15:06 23,3 C 63 % 1015,7 hPa 0,0 l/m 7,7 km/h (2 Bft) NW 318 15,9 C 15,7 km/h (3 Bft) 100 %
12.07.2018 15:07 23,3 C 63 % 1015,8 hPa 0,0 l/m 3,3 km/h (1 Bft) W-NW 291 15,9 C 12,6 km/h (3 Bft) 100 %
12.07.2018 15:08 23,2 C 63 % 1015,8 hPa 0,0 l/m 8,1 km/h (2 Bft) W-SW 252 15,8 C 15,7 km/h (3 Bft) 100 %
12.07.2018 15:09 23,2 C 63 % 1015,8 hPa 0,0 l/m 11,3 km/h (2 Bft) NW 309 15,8 C 18,8 km/h (3 Bft) 100 %
12.07.2018 15:10 23,1 C 63 % 1015,8 hPa 0,0 l/m 11,9 km/h (2 Bft) NW 314 15,7 C 15,7 km/h (3 Bft) 100 %
12.07.2018 15:11 23,1 C 64 % 1015,8 hPa 0,0 l/m 9,4 km/h (2 Bft) NW 304 15,9 C 18,8 km/h (3 Bft) 100 %
12.07.2018 15:12 23,2 C 64 % 1015,8 hPa 0,0 l/m 9,9 km/h (2 Bft) SW 215 16,0 C 12,6 km/h (3 Bft) 100 %
12.07.2018 15:13 23,2 C 63 % 1015,9 hPa 0,0 l/m 17,0 km/h (3 Bft) W 261 15,8 C 34,5 km/h (5 Bft) 100 %
12.07.2018 15:14 23,1 C 63 % 1015,8 hPa 0,0 l/m 16,6 km/h (3 Bft) W-NW 290 15,7 C 25,1 km/h (4 Bft) 100 %
12.07.2018 15:15 23,1 C 63 % 1015,8 hPa 0,0 l/m 16,6 km/h (3 Bft) W-NW 282 15,7 C 31,4 km/h (5 Bft) 100 %
12.07.2018 15:16 23,0 C 64 % 1015,9 hPa 0,0 l/m 9,2 km/h (2 Bft) W-NW 283 15,8 C 15,7 km/h (3 Bft) 100 %
12.07.2018 15:17 22,9 C 64 % 1015,9 hPa 0,0 l/m 7,2 km/h (2 Bft) NO 55 15,7 C 15,7 km/h (3 Bft) 100 %
12.07.2018 15:18 22,9 C 64 % 1015,8 hPa 0,0 l/m 7,8 km/h (2 Bft) O-NO 59 15,7 C 28,2 km/h (4 Bft) 100 %
12.07.2018 15:19 22,9 C 64 % 1015,9 hPa 0,0 l/m 10,2 km/h (2 Bft) N-NO 13 15,7 C 22,0 km/h (4 Bft) 100 %
12.07.2018 15:20 22,9 C 63 % 1016,0 hPa 0,0 l/m 8,4 km/h (2 Bft) O-SO 119 15,5 C 15,7 km/h (3 Bft) 100 %
12.07.2018 15:21 22,8 C 63 % 1016,0 hPa 0,0 l/m 7,8 km/h (2 Bft) W-NW 297 15,4 C 18,8 km/h (3 Bft) 100 %
12.07.2018 15:22 22,8 C 62 % 1015,9 hPa 0,0 l/m 12,6 km/h (3 Bft) NW 314 15,1 C 22,0 km/h (4 Bft) 100 %
12.07.2018 15:23 22,7 C 63 % 1015,9 hPa 0,0 l/m 10,0 km/h (2 Bft) W-NW 297 15,3 C 22,0 km/h (4 Bft) 100 %
12.07.2018 15:24 22,6 C 65 % 1015,9 hPa 0,0 l/m 6,9 km/h (2 Bft) W 274 15,7 C 15,7 km/h (3 Bft) 100 %
12.07.2018 15:25 22,6 C 65 % 1015,9 hPa 0,0 l/m 10,1 km/h (2 Bft) N-NW 329 15,7 C 18,8 km/h (3 Bft) 100 %
12.07.2018 15:26 22,6 C 66 % 1015,9 hPa 0,0 l/m 4,6 km/h (1 Bft) O 98 15,9 C 12,6 km/h (3 Bft) 100 %
12.07.2018 15:27 22,6 C 65 % 1015,9 hPa 0,0 l/m 4,2 km/h (1 Bft) W-SW 250 15,7 C 6,3 km/h (2 Bft) 99 %
12.07.2018 15:28 22,5 C 66 % 1015,9 hPa 0,0 l/m 12,6 km/h (3 Bft) W 270 15,8 C 22,0 km/h (4 Bft) 100 %
12.07.2018 15:29 22,4 C 65 % 1016,0 hPa 0,0 l/m 10,2 km/h (2 Bft) W 265 15,5 C 18,8 km/h (3 Bft) 100 %
12.07.2018 15:30 22,4 C 65 % 1015,9 hPa 0,0 l/m 5,6 km/h (1 Bft) W-NW 282 15,5 C 12,6 km/h (3 Bft) 100 %
12.07.2018 15:31 22,4 C 65 % 1016,0 hPa 0,0 l/m 9,9 km/h (2 Bft) S 191 15,5 C 15,7 km/h (3 Bft) 100 %
12.07.2018 15:32 22,3 C 65 % 1016,0 hPa 0,0 l/m 5,6 km/h (1 Bft) NO 53 15,4 C 12,6 km/h (3 Bft) 100 %
12.07.2018 15:33 22,4 C 65 % 1016,0 hPa 0,0 l/m 6,8 km/h (2 Bft) NO 56 15,5 C 15,7 km/h (3 Bft) 96 %
12.07.2018 15:34 22,4 C 65 % 1016,0 hPa 0,0 l/m 7,2 km/h (2 Bft) NO 42 15,5 C 12,6 km/h (3 Bft) 100 %
12.07.2018 15:35 22,4 C 65 % 1016,0 hPa 0,0 l/m 4,1 km/h (1 Bft) N 352 15,5 C 15,7 km/h (3 Bft) 100 %
12.07.2018 15:36 22,4 C 65 % 1015,9 hPa 0,0 l/m 3,7 km/h (1 Bft) NO 39 15,5 C 9,4 km/h (2 Bft) 96 %
12.07.2018 15:37 22,4 C 65 % 1015,9 hPa 0,0 l/m 6,9 km/h (2 Bft) NW 314 15,5 C 12,6 km/h (3 Bft) 96 %
12.07.2018 15:38 22,4 C 65 % 1016,0 hPa 0,0 l/m 6,0 km/h (2 Bft) W 273 15,5 C 12,6 km/h (3 Bft) 100 %
12.07.2018 15:39 22,4 C 64 % 1016,0 hPa 0,0 l/m 3,8 km/h (1 Bft) O-NO 73 15,2 C 9,4 km/h (2 Bft) 96 %
12.07.2018 15:40 22,4 C 64 % 1015,9 hPa 0,0 l/m 6,8 km/h (2 Bft) NO 49 15,2 C 18,8 km/h (3 Bft) 100 %
12.07.2018 15:41 22,4 C 63 % 1015,9 hPa 0,0 l/m 5,0 km/h (1 Bft) W-NW 283 15,0 C 12,6 km/h (3 Bft) 96 %
12.07.2018 15:42 22,4 C 64 % 1015,9 hPa 0,0 l/m 4,1 km/h (1 Bft) NO 49 15,2 C 12,6 km/h (3 Bft) 100 %
12.07.2018 15:43 22,5 C 64 % 1015,9 hPa 0,0 l/m 2,7 km/h (1 Bft) NO 41 15,3 C 9,4 km/h (2 Bft) 96 %
12.07.2018 15:44 22,5 C 66 % 1015,8 hPa 0,0 l/m 1,9 km/h (1 Bft) N-NW 345 15,8 C 6,3 km/h (2 Bft) 100 %
12.07.2018 15:45 22,5 C 65 % 1015,9 hPa 0,0 l/m 2,6 km/h (1 Bft) W-NW 300 15,6 C 6,3 km/h (2 Bft) 100 %
12.07.2018 15:46 22,6 C 64 % 1015,8 hPa 0,0 l/m 4,1 km/h (1 Bft) W-NW 285 15,4 C 15,7 km/h (3 Bft) 100 %
12.07.2018 15:47 22,6 C 62 % 1015,8 hPa 0,0 l/m 9,8 km/h (2 Bft) W 269 14,9 C 15,7 km/h (3 Bft) 100 %
12.07.2018 15:48 22,6 C 62 % 1015,8 hPa 0,0 l/m 4,8 km/h (1 Bft) W 274 14,9 C 9,4 km/h (2 Bft) 100 %
12.07.2018 15:49 22,6 C 63 % 1015,8 hPa 0,0 l/m 3,9 km/h (1 Bft) W-NW 283 15,2 C 9,4 km/h (2 Bft) 100 %
12.07.2018 15:50 22,6 C 62 % 1015,9 hPa 0,0 l/m 3,6 km/h (1 Bft) NW 314 14,9 C 9,4 km/h (2 Bft) 100 %
12.07.2018 15:51 22,6 C 63 % 1015,9 hPa 0,0 l/m 3,8 km/h (1 Bft) W-NW 283 15,2 C 9,4 km/h (2 Bft) 100 %
12.07.2018 15:52 22,7 C 65 % 1015,9 hPa 0,0 l/m 5,2 km/h (1 Bft) W-NW 302 15,8 C 15,7 km/h (3 Bft) 100 %
12.07.2018 15:53 22,7 C 66 % 1015,9 hPa 0,0 l/m 13,7 km/h (3 Bft) NW 304 16,0 C 28,2 km/h (4 Bft) 100 %
12.07.2018 15:54 22,8 C 65 % 1015,9 hPa 0,0 l/m 16,6 km/h (3 Bft) W-NW 288 15,9 C 25,1 km/h (4 Bft) 100 %
12.07.2018 15:55 22,8 C 66 % 1015,9 hPa 0,0 l/m 9,4 km/h (2 Bft) W 269 16,1 C 15,7 km/h (3 Bft) 100 %
12.07.2018 15:56 22,8 C 66 % 1015,8 hPa 0,0 l/m 14,5 km/h (3 Bft) S-SW 205 16,1 C 34,5 km/h (5 Bft) 100 %
12.07.2018 15:57 22,8 C 66 % 1015,9 hPa 0,0 l/m 11,4 km/h (2 Bft) NW 326 16,1 C 18,8 km/h (3 Bft) 100 %
12.07.2018 15:58 22,8 C 66 % 1015,9 hPa 0,0 l/m 8,7 km/h (2 Bft) W-SW 255 16,1 C 15,7 km/h (3 Bft) 100 %
12.07.2018 15:59 22,8 C 66 % 1015,9 hPa 0,0 l/m 11,8 km/h (2 Bft) W-SW 254 16,1 C 31,4 km/h (5 Bft) 100 %
12.07.2018 16:00 22,8 C 65 % 1015,9 hPa 0,0 l/m 11,1 km/h (2 Bft) SW 226 15,9 C 18,8 km/h (3 Bft) 100 %
12.07.2018 16:01 22,9 C 64 % 1015,9 hPa 0,0 l/m 12,0 km/h (2 Bft) W 264 15,7 C 22,0 km/h (4 Bft) 100 %
12.07.2018 16:02 22,9 C 63 % 1015,9 hPa 0,0 l/m 10,9 km/h (2 Bft) W-NW 298 15,5 C 18,8 km/h (3 Bft) 100 %
12.07.2018 16:03 23,0 C 64 % 1015,9 hPa 0,0 l/m 9,3 km/h (2 Bft) S 179 15,8 C 15,7 km/h (3 Bft) 100 %
12.07.2018 16:04 23,1 C 64 % 1015,9 hPa 0,0 l/m 6,7 km/h (2 Bft) S-SW 200 15,9 C 15,7 km/h (3 Bft) 100 %
12.07.2018 16:05 23,2 C 66 % 1015,9 hPa 0,0 l/m 3,4 km/h (1 Bft) W-NW 289 16,5 C 6,3 km/h (2 Bft) 100 %
12.07.2018 16:06 23,3 C 64 % 1015,9 hPa 0,0 l/m 6,7 km/h (2 Bft) W-NW 301 16,1 C 15,7 km/h (3 Bft) 100 %
12.07.2018 16:07 23,4 C 64 % 1015,8 hPa 0,0 l/m 6,4 km/h (2 Bft) W-NW 283 16,2 C 9,4 km/h (2 Bft) 100 %
12.07.2018 16:08 23,5 C 64 % 1015,9 hPa 0,0 l/m 7,6 km/h (2 Bft) S 173 16,3 C 15,7 km/h (3 Bft) 100 %
12.07.2018 16:09 23,6 C 62 % 1015,8 hPa 0,0 l/m 9,8 km/h (2 Bft) W-NW 300 15,9 C 22,0 km/h (4 Bft) 100 %
12.07.2018 16:10 23,6 C 63 % 1015,8 hPa 0,0 l/m 6,2 km/h (2 Bft) W-NW 282 16,1 C 9,4 km/h (2 Bft) 100 %
12.07.2018 16:11 23,7 C 63 % 1015,8 hPa 0,0 l/m 5,9 km/h (2 Bft) N-NW 336 16,2 C 9,4 km/h (2 Bft) 100 %
12.07.2018 16:12 23,7 C 61 % 1015,8 hPa 0,0 l/m 16,2 km/h (3 Bft) W-SW 247 15,7 C 28,2 km/h (4 Bft) 100 %
12.07.2018 16:13 23,7 C 61 % 1015,8 hPa 0,0 l/m 11,8 km/h (2 Bft) W 269 15,7 C 25,1 km/h (4 Bft) 100 %
12.07.2018 16:14 23,7 C 61 % 1015,8 hPa 0,0 l/m 15,2 km/h (3 Bft) W-NW 301 15,7 C 25,1 km/h (4 Bft) 100 %
12.07.2018 16:15 23,7 C 62 % 1015,8 hPa 0,0 l/m 10,8 km/h (2 Bft) W-SW 257 16,0 C 15,7 km/h (3 Bft) 100 %
12.07.2018 16:16 23,7 C 62 % 1015,8 hPa 0,0 l/m 6,4 km/h (2 Bft) W-NW 297 16,0 C 15,7 km/h (3 Bft) 100 %
12.07.2018 16:17 23,8 C 62 % 1015,7 hPa 0,0 l/m 4,4 km/h (1 Bft) SW 231 16,1 C 9,4 km/h (2 Bft) 100 %
12.07.2018 16:18 23,8 C 63 % 1015,8 hPa 0,0 l/m 7,3 km/h (2 Bft) NW 326 16,3 C 22,0 km/h (4 Bft) 100 %
12.07.2018 16:19 23,8 C 62 % 1015,8 hPa 0,0 l/m 14,9 km/h (3 Bft) W 263 16,1 C 31,4 km/h (5 Bft) 100 %
12.07.2018 16:20 23,7 C 62 % 1015,8 hPa 0,0 l/m 9,0 km/h (2 Bft) W-NW 299 16,0 C 15,7 km/h (3 Bft) 100 %
12.07.2018 16:21 23,6 C 61 % 1015,8 hPa 0,0 l/m 14,0 km/h (3 Bft) NW 324 15,6 C 28,2 km/h (4 Bft) 100 %
12.07.2018 16:22 23,5 C 62 % 1015,8 hPa 0,0 l/m 7,4 km/h (2 Bft) NW 323 15,8 C 12,6 km/h (3 Bft) 100 %
12.07.2018 16:23 23,4 C 62 % 1015,7 hPa 0,0 l/m 7,1 km/h (2 Bft) W 260 15,7 C 18,8 km/h (3 Bft) 100 %
12.07.2018 16:24 23,4 C 63 % 1015,7 hPa 0,0 l/m 7,7 km/h (2 Bft) SW 225 15,9 C 12,6 km/h (3 Bft) 100 %
12.07.2018 16:25 23,4 C 63 % 1015,7 hPa 0,0 l/m 3,9 km/h (1 Bft) W-NW 293 15,9 C 15,7 km/h (3 Bft) 96 %
12.07.2018 16:26 23,4 C 63 % 1015,7 hPa 0,0 l/m 11,1 km/h (2 Bft) W-SW 243 15,9 C 15,7 km/h (3 Bft) 100 %
12.07.2018 16:27 23,3 C 63 % 1015,7 hPa 0,0 l/m 8,6 km/h (2 Bft) W-NW 294 15,9 C 15,7 km/h (3 Bft) 100 %
12.07.2018 16:28 23,4 C 64 % 1015,7 hPa 0,0 l/m 4,4 km/h (1 Bft) W 262 16,2 C 9,4 km/h (2 Bft) 100 %
12.07.2018 16:29 23,4 C 64 % 1015,7 hPa 0,0 l/m 2,2 km/h (1 Bft) W-NW 298 16,2 C 6,3 km/h (2 Bft) 100 %
12.07.2018 16:30 23,6 C 64 % 1015,6 hPa 0,0 l/m 5,0 km/h (1 Bft) SW 232 16,4 C 9,4 km/h (2 Bft) 96 %
12.07.2018 16:31 23,7 C 63 % 1015,7 hPa 0,0 l/m 10,6 km/h (2 Bft) W 261 16,2 C 25,1 km/h (4 Bft) 100 %
12.07.2018 16:32 23,8 C 63 % 1015,6 hPa 0,0 l/m 11,5 km/h (2 Bft) W-SW 238 16,3 C 28,2 km/h (4 Bft) 96 %
12.07.2018 16:33 23,9 C 61 % 1015,7 hPa 0,0 l/m 7,6 km/h (2 Bft) NW 322 15,9 C 15,7 km/h (3 Bft) 96 %
12.07.2018 16:34 24,0 C 62 % 1015,7 hPa 0,0 l/m 8,6 km/h (2 Bft) SW 223 16,3 C 12,6 km/h (3 Bft) 100 %
12.07.2018 16:35 24,1 C 61 % 1015,7 hPa 0,0 l/m 7,2 km/h (2 Bft) W 262 16,1 C 18,8 km/h (3 Bft) 96 %
12.07.2018 16:36 24,1 C 61 % 1015,7 hPa 0,0 l/m 7,5 km/h (2 Bft) W 281 16,1 C 12,6 km/h (3 Bft) 100 %
12.07.2018 16:37 24,2 C 61 % 1015,7 hPa 0,0 l/m 11,7 km/h (2 Bft) SW 236 16,2 C 18,8 km/h (3 Bft) 96 %
12.07.2018 16:38 24,2 C 59 % 1015,7 hPa 0,0 l/m 8,5 km/h (2 Bft) NW 306 15,7 C 18,8 km/h (3 Bft) 100 %
12.07.2018 16:39 24,2 C 59 % 1015,7 hPa 0,0 l/m 9,1 km/h (2 Bft) S-SW 210 15,7 C 28,2 km/h (4 Bft) 96 %
12.07.2018 16:40 24,2 C 60 % 1015,7 hPa 0,0 l/m 11,2 km/h (2 Bft) S 187 15,9 C 22,0 km/h (4 Bft) 100 %
12.07.2018 16:41 24,3 C 60 % 1015,7 hPa 0,0 l/m 4,1 km/h (1 Bft) W-SW 246 16,0 C 9,4 km/h (2 Bft) 96 %
12.07.2018 16:42 24,4 C 61 % 1015,6 hPa 0,0 l/m 5,7 km/h (1 Bft) W 277 16,4 C 9,4 km/h (2 Bft) 100 %
12.07.2018 16:43 24,4 C 60 % 1015,6 hPa 0,0 l/m 7,3 km/h (2 Bft) W 264 16,1 C 12,6 km/h (3 Bft) 100 %
12.07.2018 16:44 24,5 C 60 % 1015,6 hPa 0,0 l/m 4,2 km/h (1 Bft) W-NW 289 16,2 C 9,4 km/h (2 Bft) 100 %
12.07.2018 16:45 24,6 C 60 % 1015,7 hPa 0,0 l/m 11,5 km/h (2 Bft) SW 231 16,3 C 25,1 km/h (4 Bft) 100 %
12.07.2018 16:46 24,6 C 59 % 1015,6 hPa 0,0 l/m 12,8 km/h (3 Bft) W-SW 243 16,0 C 25,1 km/h (4 Bft) 100 %
12.07.2018 16:47 24,6 C 60 % 1015,7 hPa 0,0 l/m 6,0 km/h (2 Bft) W-NW 301 16,3 C 9,4 km/h (2 Bft) 100 %
12.07.2018 16:48 24,6 C 59 % 1015,6 hPa 0,0 l/m 9,7 km/h (2 Bft) W-NW 288 16,0 C 18,8 km/h (3 Bft) 100 %
12.07.2018 16:49 24,7 C 60 % 1015,6 hPa 0,0 l/m 9,4 km/h (2 Bft) W-SW 258 16,4 C 18,8 km/h (3 Bft) 100 %
12.07.2018 16:50 24,7 C 60 % 1015,6 hPa 0,0 l/m 3,8 km/h (1 Bft) W 272 16,4 C 6,3 km/h (2 Bft) 100 %
12.07.2018 16:51 24,8 C 60 % 1015,6 hPa 0,0 l/m 4,5 km/h (1 Bft) W 262 16,5 C 15,7 km/h (3 Bft) 100 %
12.07.2018 16:52 24,8 C 59 % 1015,6 hPa 0,0 l/m 12,6 km/h (3 Bft) W 266 16,2 C 22,0 km/h (4 Bft) 100 %
12.07.2018 16:53 24,8 C 60 % 1015,6 hPa 0,0 l/m 1,9 km/h (1 Bft) SW 218 16,5 C 6,3 km/h (2 Bft) 100 %
12.07.2018 16:54 24,9 C 61 % 1015,6 hPa 0,0 l/m 8,8 km/h (2 Bft) W 270 16,8 C 18,8 km/h (3 Bft) 100 %
12.07.2018 16:55 24,9 C 59 % 1015,5 hPa 0,0 l/m 14,5 km/h (3 Bft) W-SW 255 16,3 C 28,2 km/h (4 Bft) 100 %
12.07.2018 16:56 24,9 C 60 % 1015,6 hPa 0,0 l/m 10,2 km/h (2 Bft) W-NW 297 16,6 C 18,8 km/h (3 Bft) 100 %
12.07.2018 16:57 24,9 C 60 % 1015,6 hPa 0,0 l/m 9,7 km/h (2 Bft) SW 224 16,6 C 15,7 km/h (3 Bft) 100 %
12.07.2018 16:58 24,8 C 60 % 1015,6 hPa 0,0 l/m 9,0 km/h (2 Bft) W 272 16,5 C 15,7 km/h (3 Bft) 100 %
12.07.2018 16:59 24,7 C 60 % 1015,5 hPa 0,0 l/m 14,5 km/h (3 Bft) NW 314 16,4 C 25,1 km/h (4 Bft) 100 %
12.07.2018 17:00 24,6 C 60 % 1015,6 hPa 0,0 l/m 10,4 km/h (2 Bft) W-NW 301 16,3 C 15,7 km/h (3 Bft) 100 %
12.07.2018 17:01 24,5 C 61 % 1015,6 hPa 0,0 l/m 10,5 km/h (2 Bft) NW 314 16,5 C 18,8 km/h (3 Bft) 100 %
12.07.2018 17:02 24,4 C 61 % 1015,6 hPa 0,0 l/m 12,9 km/h (3 Bft) W-SW 255 16,4 C 18,8 km/h (3 Bft) 100 %
12.07.2018 17:03 24,4 C 61 % 1015,5 hPa 0,0 l/m 9,4 km/h (2 Bft) SW 220 16,4 C 15,7 km/h (3 Bft) 100 %
12.07.2018 17:04 24,4 C 61 % 1015,5 hPa 0,0 l/m 14,6 km/h (3 Bft) NW 321 16,4 C 22,0 km/h (4 Bft) 100 %
12.07.2018 17:05 24,4 C 61 % 1015,6 hPa 0,0 l/m 14,9 km/h (3 Bft) NW 309 16,4 C 25,1 km/h (4 Bft) 100 %
12.07.2018 17:06 24,4 C 62 % 1015,5 hPa 0,0 l/m 6,8 km/h (2 Bft) W-NW 291 16,6 C 15,7 km/h (3 Bft) 100 %
12.07.2018 17:07 24,4 C 61 % 1015,6 hPa 0,0 l/m 15,1 km/h (3 Bft) W-NW 298 16,4 C 25,1 km/h (4 Bft) 100 %
12.07.2018 17:08 24,3 C 61 % 1015,6 hPa 0,0 l/m 18,8 km/h (3 Bft) NW 304 16,3 C 31,4 km/h (5 Bft) 100 %
12.07.2018 17:09 24,3 C 61 % 1015,7 hPa 0,0 l/m 18,6 km/h (3 Bft) W-SW 251 16,3 C 28,2 km/h (4 Bft) 100 %
12.07.2018 17:10 24,1 C 62 % 1015,6 hPa 0,0 l/m 15,1 km/h (3 Bft) W-SW 243 16,4 C 25,1 km/h (4 Bft) 100 %
12.07.2018 17:11 24,0 C 63 % 1015,6 hPa 0,0 l/m 13,7 km/h (3 Bft) SW 229 16,5 C 25,1 km/h (4 Bft) 100 %
12.07.2018 17:12 23,9 C 63 % 1015,7 hPa 0,0 l/m 15,0 km/h (3 Bft) W-NW 288 16,4 C 28,2 km/h (4 Bft) 100 %
12.07.2018 17:13 23,8 C 63 % 1015,7 hPa 0,0 l/m 16,8 km/h (3 Bft) W-NW 283 16,3 C 31,4 km/h (5 Bft) 100 %
12.07.2018 17:14 23,7 C 63 % 1015,7 hPa 0,0 l/m 11,8 km/h (2 Bft) W-SW 248 16,2 C 15,7 km/h (3 Bft) 100 %
12.07.2018 17:15 23,6 C 64 % 1015,8 hPa 0,0 l/m 14,1 km/h (3 Bft) N-NW 328 16,4 C 31,4 km/h (5 Bft) 100 %
12.07.2018 17:16 23,4 C 64 % 1015,7 hPa 0,0 l/m 14,3 km/h (3 Bft) W 281 16,2 C 22,0 km/h (4 Bft) 100 %
12.07.2018 17:17 23,4 C 64 % 1015,8 hPa 0,0 l/m 16,4 km/h (3 Bft) W 268 16,2 C 25,1 km/h (4 Bft) 100 %
12.07.2018 17:18 23,3 C 64 % 1015,8 hPa 0,0 l/m 12,4 km/h (3 Bft) W-NW 297 16,1 C 22,0 km/h (4 Bft) 100 %
12.07.2018 17:19 23,2 C 65 % 1015,7 hPa 0,0 l/m 10,7 km/h (2 Bft) W-NW 290 16,2 C 25,1 km/h (4 Bft) 100 %
12.07.2018 17:20 23,1 C 65 % 1015,8 hPa 0,0 l/m 15,8 km/h (3 Bft) W-NW 292 16,2 C 22,0 km/h (4 Bft) 100 %
12.07.2018 17:21 22,9 C 65 % 1015,8 hPa 0,0 l/m 12,4 km/h (3 Bft) W-NW 300 16,0 C 31,4 km/h (5 Bft) 100 %
12.07.2018 17:22 22,7 C 66 % 1015,8 hPa 0,0 l/m 8,0 km/h (2 Bft) SW 231 16,0 C 15,7 km/h (3 Bft) 100 %
12.07.2018 17:23 22,7 C 67 % 1015,8 hPa 0,0 l/m 7,0 km/h (2 Bft) N-NW 344 16,2 C 28,2 km/h (4 Bft) 100 %
12.07.2018 17:24 22,6 C 67 % 1015,8 hPa 0,0 l/m 10,9 km/h (2 Bft) W-NW 286 16,2 C 18,8 km/h (3 Bft) 100 %
12.07.2018 17:25 22,4 C 67 % 1015,8 hPa 0,0 l/m 10,5 km/h (2 Bft) W-NW 295 16,0 C 18,8 km/h (3 Bft) 100 %
12.07.2018 17:26 22,4 C 67 % 1015,8 hPa 0,0 l/m 8,1 km/h (2 Bft) W 270 16,0 C 12,6 km/h (3 Bft) 92 %
12.07.2018 17:27 22,3 C 68 % 1015,8 hPa 0,0 l/m 3,1 km/h (1 Bft) SW 230 16,1 C 9,4 km/h (2 Bft) 100 %
12.07.2018 17:28 22,2 C 67 % 1015,8 hPa 0,0 l/m 9,1 km/h (2 Bft) SW 222 15,8 C 22,0 km/h (4 Bft) 100 %
12.07.2018 17:29 22,2 C 68 % 1015,8 hPa 0,0 l/m 6,4 km/h (2 Bft) W 281 16,0 C 12,6 km/h (3 Bft) 92 %
12.07.2018 17:30 22,1 C 68 % 1015,7 hPa 0,0 l/m 7,4 km/h (2 Bft) NW 311 15,9 C 12,6 km/h (3 Bft) 100 %
12.07.2018 17:31 22,1 C 68 % 1015,8 hPa 0,0 l/m 10,9 km/h (2 Bft) NW 320 15,9 C 18,8 km/h (3 Bft) 96 %
12.07.2018 17:32 22,0 C 69 % 1015,7 hPa 0,0 l/m 5,0 km/h (1 Bft) SW 217 16,0 C 12,6 km/h (3 Bft) 96 %
12.07.2018 17:33 21,9 C 69 % 1015,8 hPa 0,0 l/m 6,8 km/h (2 Bft) W-NW 284 15,9 C 12,6 km/h (3 Bft) 100 %
12.07.2018 17:34 21,9 C 69 % 1015,8 hPa 0,0 l/m 9,9 km/h (2 Bft) W-NW 282 15,9 C 15,7 km/h (3 Bft) 96 %
12.07.2018 17:35 21,9 C 69 % 1015,8 hPa 0,0 l/m 5,6 km/h (1 Bft) W-NW 291 15,9 C 12,6 km/h (3 Bft) 100 %
12.07.2018 17:36 21,9 C 69 % 1015,8 hPa 0,0 l/m 7,2 km/h (2 Bft) SW 236 15,9 C 15,7 km/h (3 Bft) 96 %
12.07.2018 17:37 21,8 C 70 % 1015,8 hPa 0,0 l/m 6,5 km/h (2 Bft) W-NW 298 16,1 C 12,6 km/h (3 Bft) 100 %
12.07.2018 17:38 21,8 C 70 % 1015,8 hPa 0,0 l/m 3,4 km/h (1 Bft) NW 304 16,1 C 6,3 km/h (2 Bft) 100 %
12.07.2018 17:39 21,8 C 70 % 1015,8 hPa 0,0 l/m 7,1 km/h (2 Bft) W-NW 300 16,1 C 15,7 km/h (3 Bft) 100 %
12.07.2018 17:40 21,8 C 70 % 1015,8 hPa 0,0 l/m 8,9 km/h (2 Bft) W-SW 250 16,1 C 18,8 km/h (3 Bft) 100 %
12.07.2018 17:41 21,8 C 70 % 1015,8 hPa 0,0 l/m 6,0 km/h (2 Bft) W 274 16,1 C 12,6 km/h (3 Bft) 100 %
12.07.2018 17:42 21,8 C 70 % 1015,9 hPa 0,0 l/m 6,3 km/h (2 Bft) W-NW 287 16,1 C 15,7 km/h (3 Bft) 100 %
12.07.2018 17:43 21,7 C 70 % 1015,8 hPa 0,0 l/m 10,1 km/h (2 Bft) W-NW 291 16,0 C 18,8 km/h (3 Bft) 100 %
12.07.2018 17:44 21,7 C 71 % 1015,8 hPa 0,0 l/m 4,3 km/h (1 Bft) NW 326 16,2 C 9,4 km/h (2 Bft) 100 %
12.07.2018 17:45 21,7 C 70 % 1015,8 hPa 0,0 l/m 4,7 km/h (1 Bft) W 274 16,0 C 9,4 km/h (2 Bft) 100 %
12.07.2018 17:46 21,8 C 71 % 1015,8 hPa 0,0 l/m 3,5 km/h (1 Bft) W 268 16,3 C 6,3 km/h (2 Bft) 100 %
12.07.2018 17:47 21,8 C 71 % 1015,8 hPa 0,0 l/m 2,2 km/h (1 Bft) NW 319 16,3 C 3,1 km/h (1 Bft) 100 %
12.07.2018 17:48 21,9 C 71 % 1015,7 hPa 0,0 l/m 4,0 km/h (1 Bft) NW 326 16,4 C 6,3 km/h (2 Bft) 100 %
12.07.2018 17:49 22,1 C 70 % 1015,7 hPa 0,0 l/m 9,0 km/h (2 Bft) W-NW 295 16,4 C 18,8 km/h (3 Bft) 100 %
12.07.2018 17:50 22,1 C 69 % 1015,7 hPa 0,0 l/m 6,3 km/h (2 Bft) W-NW 290 16,1 C 15,7 km/h (3 Bft) 100 %
12.07.2018 17:51 22,1 C 69 % 1015,7 hPa 0,0 l/m 6,8 km/h (2 Bft) SW 225 16,1 C 15,7 km/h (3 Bft) 100 %
12.07.2018 17:52 22,2 C 69 % 1015,7 hPa 0,0 l/m 6,4 km/h (2 Bft) W-NW 297 16,2 C 15,7 km/h (3 Bft) 100 %
12.07.2018 17:53 22,2 C 68 % 1015,7 hPa 0,0 l/m 4,3 km/h (1 Bft) W-NW 283 16,0 C 15,7 km/h (3 Bft) 100 %
12.07.2018 17:54 22,2 C 68 % 1015,7 hPa 0,0 l/m 10,5 km/h (2 Bft) W-NW 297 16,0 C 18,8 km/h (3 Bft) 100 %
12.07.2018 17:55 22,2 C 68 % 1015,8 hPa 0,0 l/m 9,3 km/h (2 Bft) S-SW 202 16,0 C 18,8 km/h (3 Bft) 100 %
12.07.2018 17:56 22,1 C 68 % 1015,8 hPa 0,0 l/m 5,5 km/h (1 Bft) W 281 15,9 C 9,4 km/h (2 Bft) 99 %
12.07.2018 17:57 22,1 C 68 % 1015,8 hPa 0,0 l/m 8,2 km/h (2 Bft) W-NW 300 15,9 C 18,8 km/h (3 Bft) 100 %
12.07.2018 17:58 22,1 C 69 % 1015,8 hPa 0,0 l/m 4,7 km/h (1 Bft) W 259 16,1 C 9,4 km/h (2 Bft) 100 %
12.07.2018 17:59 22,1 C 70 % 1015,7 hPa 0,0 l/m 0,6 km/h (0 Bft) W-NW 296 16,4 C 3,1 km/h (1 Bft) 100 %
12.07.2018 18:00 22,1 C 69 % 1015,8 hPa 0,0 l/m 4,5 km/h (1 Bft) W-NW 288 16,1 C 9,4 km/h (2 Bft) 100 %
12.07.2018 18:01 22,1 C 68 % 1015,8 hPa 0,0 l/m 6,3 km/h (2 Bft) W-NW 293 15,9 C 12,6 km/h (3 Bft) 100 %
12.07.2018 18:02 22,2 C 68 % 1015,8 hPa 0,0 l/m 11,9 km/h (2 Bft) W 281 16,0 C 18,8 km/h (3 Bft) 100 %
12.07.2018 18:03 22,2 C 68 % 1015,8 hPa 0,0 l/m 4,6 km/h (1 Bft) W 280 16,0 C 12,6 km/h (3 Bft) 100 %
12.07.2018 18:04 22,2 C 69 % 1015,8 hPa 0,0 l/m 4,4 km/h (1 Bft) W-NW 284 16,2 C 9,4 km/h (2 Bft) 100 %
12.07.2018 18:05 22,3 C 68 % 1015,8 hPa 0,0 l/m 6,4 km/h (2 Bft) NW 324 16,1 C 12,6 km/h (3 Bft) 100 %
12.07.2018 18:06 22,3 C 68 % 1015,8 hPa 0,0 l/m 1,8 km/h (1 Bft) NW 309 16,1 C 9,4 km/h (2 Bft) 100 %
12.07.2018 18:07 22,4 C 68 % 1015,8 hPa 0,0 l/m 10,9 km/h (2 Bft) W 266 16,2 C 15,7 km/h (3 Bft) 100 %
12.07.2018 18:08 22,4 C 68 % 1015,8 hPa 0,0 l/m 6,8 km/h (2 Bft) SW 224 16,2 C 15,7 km/h (3 Bft) 100 %
12.07.2018 18:09 22,5 C 68 % 1015,7 hPa 0,0 l/m 6,5 km/h (2 Bft) W 279 16,3 C 15,7 km/h (3 Bft) 100 %
12.07.2018 18:10 22,5 C 68 % 1015,8 hPa 0,0 l/m 7,6 km/h (2 Bft) SW 216 16,3 C 12,6 km/h (3 Bft) 100 %
12.07.2018 18:11 22,5 C 68 % 1015,8 hPa 0,0 l/m 9,4 km/h (2 Bft) W 274 16,3 C 18,8 km/h (3 Bft) 100 %
12.07.2018 18:12 22,5 C 68 % 1015,8 hPa 0,0 l/m 10,2 km/h (2 Bft) W 276 16,3 C 15,7 km/h (3 Bft) 100 %
12.07.2018 18:13 22,4 C 68 % 1015,8 hPa 0,0 l/m 6,4 km/h (2 Bft) S-SW 213 16,2 C 15,7 km/h (3 Bft) 100 %
12.07.2018 18:14 22,4 C 68 % 1015,8 hPa 0,0 l/m 8,2 km/h (2 Bft) N-NW 330 16,2 C 12,6 km/h (3 Bft) 100 %
12.07.2018 18:15 22,4 C 69 % 1015,7 hPa 0,0 l/m 8,4 km/h (2 Bft) W 267 16,4 C 12,6 km/h (3 Bft) 100 %
12.07.2018 18:16 22,4 C 69 % 1015,8 hPa 0,0 l/m 10,8 km/h (2 Bft) W-SW 253 16,4 C 18,8 km/h (3 Bft) 100 %
12.07.2018 18:17 22,4 C 69 % 1015,8 hPa 0,0 l/m 9,0 km/h (2 Bft) NW 322 16,4 C 18,8 km/h (3 Bft) 100 %
12.07.2018 18:18 22,4 C 69 % 1015,8 hPa 0,0 l/m 12,4 km/h (3 Bft) W-SW 247 16,4 C 25,1 km/h (4 Bft) 93 %
12.07.2018 18:19 22,3 C 69 % 1015,8 hPa 0,0 l/m 8,2 km/h (2 Bft) NW 311 16,3 C 15,7 km/h (3 Bft) 98 %
12.07.2018 18:20 22,3 C 69 % 1015,8 hPa 0,0 l/m 9,6 km/h (2 Bft) W-SW 243 16,3 C 18,8 km/h (3 Bft) 99 %
12.07.2018 18:21 22,3 C 70 % 1015,8 hPa 0,0 l/m 8,2 km/h (2 Bft) W-NW 300 16,6 C 18,8 km/h (3 Bft) 100 %
12.07.2018 18:22 22,3 C 69 % 1015,8 hPa 0,0 l/m 5,8 km/h (2 Bft) NW 318 16,3 C 12,6 km/h (3 Bft) 100 %
12.07.2018 18:23 22,3 C 70 % 1015,8 hPa 0,0 l/m 10,1 km/h (2 Bft) W-SW 255 16,6 C 22,0 km/h (4 Bft) 96 %
12.07.2018 18:24 22,2 C 70 % 1015,8 hPa 0,0 l/m 9,6 km/h (2 Bft) W 264 16,5 C 15,7 km/h (3 Bft) 96 %
12.07.2018 18:25 22,2 C 69 % 1015,8 hPa 0,0 l/m 9,1 km/h (2 Bft) W-SW 249 16,2 C 22,0 km/h (4 Bft) 100 %
12.07.2018 18:26 22,1 C 70 % 1015,8 hPa 0,0 l/m 8,7 km/h (2 Bft) W-SW 242 16,4 C 18,8 km/h (3 Bft) 96 %
12.07.2018 18:27 22,0 C 70 % 1015,8 hPa 0,0 l/m 10,3 km/h (2 Bft) W-NW 296 16,3 C 12,6 km/h (3 Bft) 100 %
12.07.2018 18:28 21,9 C 70 % 1015,8 hPa 0,0 l/m 11,9 km/h (2 Bft) W 277 16,2 C 15,7 km/h (3 Bft) 100 %
12.07.2018 18:29 21,9 C 71 % 1015,8 hPa 0,0 l/m 5,2 km/h (1 Bft) W-SW 243 16,4 C 9,4 km/h (2 Bft) 97 %
12.07.2018 18:30 21,8 C 70 % 1015,8 hPa 0,0 l/m 7,6 km/h (2 Bft) NW 314 16,1 C 9,4 km/h (2 Bft) 99 %
12.07.2018 18:31 21,8 C 71 % 1015,8 hPa 0,0 l/m 8,3 km/h (2 Bft) W-SW 250 16,3 C 18,8 km/h (3 Bft) 98 %
12.07.2018 18:32 21,8 C 71 % 1015,8 hPa 0,0 l/m 12,2 km/h (2 Bft) W-NW 293 16,3 C 22,0 km/h (4 Bft) 99 %
12.07.2018 18:33 21,7 C 71 % 1015,8 hPa 0,0 l/m 5,1 km/h (1 Bft) SW 220 16,2 C 18,8 km/h (3 Bft) 100 %
12.07.2018 18:34 21,7 C 71 % 1015,8 hPa 0,0 l/m 7,2 km/h (2 Bft) W-NW 284 16,2 C 12,6 km/h (3 Bft) 100 %
12.07.2018 18:35 21,7 C 71 % 1015,8 hPa 0,0 l/m 7,1 km/h (2 Bft) W-SW 250 16,2 C 12,6 km/h (3 Bft) 100 %
12.07.2018 18:36 21,7 C 71 % 1015,9 hPa 0,0 l/m 6,8 km/h (2 Bft) W 265 16,2 C 12,6 km/h (3 Bft) 100 %
12.07.2018 18:37 21,7 C 71 % 1015,8 hPa 0,0 l/m 6,0 km/h (2 Bft) W-NW 297 16,2 C 12,6 km/h (3 Bft) 100 %
12.07.2018 18:38 21,7 C 71 % 1015,8 hPa 0,0 l/m 8,8 km/h (2 Bft) W-NW 297 16,2 C 18,8 km/h (3 Bft) 100 %
12.07.2018 18:39 21,7 C 72 % 1015,8 hPa 0,0 l/m 8,2 km/h (2 Bft) W 281 16,4 C 18,8 km/h (3 Bft) 100 %
12.07.2018 18:40 21,7 C 72 % 1015,8 hPa 0,0 l/m 8,5 km/h (2 Bft) W 276 16,4 C 18,8 km/h (3 Bft) 100 %
12.07.2018 18:41 21,7 C 71 % 1015,9 hPa 0,0 l/m 12,0 km/h (2 Bft) N-NW 328 16,2 C 18,8 km/h (3 Bft) 100 %
12.07.2018 18:42 21,7 C 72 % 1015,9 hPa 0,0 l/m 7,5 km/h (2 Bft) W 259 16,4 C 12,6 km/h (3 Bft) 100 %
12.07.2018 18:43 21,7 C 72 % 1015,8 hPa 0,0 l/m 4,6 km/h (1 Bft) W-NW 301 16,4 C 9,4 km/h (2 Bft) 100 %
12.07.2018 18:44 21,7 C 72 % 1015,9 hPa 0,0 l/m 6,8 km/h (2 Bft) NW 304 16,4 C 12,6 km/h (3 Bft) 100 %
12.07.2018 18:45 21,7 C 72 % 1015,9 hPa 0,0 l/m 8,2 km/h (2 Bft) W 268 16,4 C 12,6 km/h (3 Bft) 100 %
12.07.2018 18:46 21,6 C 72 % 1015,9 hPa 0,0 l/m 6,4 km/h (2 Bft) W-NW 299 16,3 C 12,6 km/h (3 Bft) 100 %
12.07.2018 18:47 21,6 C 73 % 1015,9 hPa 0,0 l/m 5,5 km/h (1 Bft) W 269 16,5 C 9,4 km/h (2 Bft) 100 %
12.07.2018 18:48 21,5 C 72 % 1015,9 hPa 0,0 l/m 6,6 km/h (2 Bft) W 278 16,2 C 9,4 km/h (2 Bft) 100 %
12.07.2018 18:49 21,5 C 73 % 1015,9 hPa 0,0 l/m 4,1 km/h (1 Bft) W 277 16,4 C 6,3 km/h (2 Bft) 100 %
12.07.2018 18:50 21,5 C 73 % 1015,9 hPa 0,0 l/m 4,8 km/h (1 Bft) S-SW 212 16,4 C 9,4 km/h (2 Bft) 100 %
12.07.2018 18:51 21,4 C 73 % 1015,9 hPa 0,0 l/m 8,9 km/h (2 Bft) W 266 16,4 C 15,7 km/h (3 Bft) 100 %
12.07.2018 18:52 21,4 C 73 % 1015,9 hPa 0,0 l/m 6,7 km/h (2 Bft) W-SW 238 16,4 C 15,7 km/h (3 Bft) 100 %
12.07.2018 18:53 21,3 C 73 % 1015,9 hPa 0,0 l/m 7,4 km/h (2 Bft) W-SW 243 16,3 C 12,6 km/h (3 Bft) 100 %
12.07.2018 18:54 21,3 C 73 % 1015,9 hPa 0,0 l/m 7,8 km/h (2 Bft) W-SW 257 16,3 C 12,6 km/h (3 Bft) 100 %
12.07.2018 18:55 21,3 C 74 % 1015,9 hPa 0,0 l/m 4,5 km/h (1 Bft) W 272 16,5 C 6,3 km/h (2 Bft) 100 %
12.07.2018 18:56 21,3 C 73 % 1015,8 hPa 0,0 l/m 8,6 km/h (2 Bft) W-NW 285 16,3 C 15,7 km/h (3 Bft) 100 %
12.07.2018 18:57 21,3 C 73 % 1015,9 hPa 0,0 l/m 8,6 km/h (2 Bft) W 277 16,3 C 15,7 km/h (3 Bft) 100 %
12.07.2018 18:58 21,3 C 73 % 1015,9 hPa 0,0 l/m 5,5 km/h (1 Bft) SW 234 16,3 C 12,6 km/h (3 Bft) 100 %
12.07.2018 18:59 21,2 C 73 % 1015,9 hPa 0,0 l/m 6,4 km/h (2 Bft) NW 307 16,2 C 9,4 km/h (2 Bft) 100 %
12.07.2018 19:00 21,2 C 73 % 1015,9 hPa 0,0 l/m 6,7 km/h (2 Bft) W-SW 257 16,2 C 15,7 km/h (3 Bft) 100 %
12.07.2018 19:01 21,2 C 73 % 1015,9 hPa 0,0 l/m 3,5 km/h (1 Bft) W-SW 247 16,2 C 9,4 km/h (2 Bft) 100 %
12.07.2018 19:02 21,2 C 73 % 1015,9 hPa 0,0 l/m 6,8 km/h (2 Bft) W 259 16,2 C 12,6 km/h (3 Bft) 100 %
12.07.2018 19:03 21,2 C 73 % 1015,8 hPa 0,0 l/m 12,6 km/h (3 Bft) W-NW 290 16,2 C 22,0 km/h (4 Bft) 100 %
12.07.2018 19:04 21,2 C 73 % 1015,9 hPa 0,0 l/m 6,9 km/h (2 Bft) NW 320 16,2 C 9,4 km/h (2 Bft) 100 %
12.07.2018 19:05 21,2 C 73 % 1015,9 hPa 0,0 l/m 5,8 km/h (2 Bft) NW 306 16,2 C 12,6 km/h (3 Bft) 100 %
12.07.2018 19:06 21,2 C 74 % 1015,9 hPa 0,0 l/m 2,0 km/h (1 Bft) W-NW 292 16,4 C 3,1 km/h (1 Bft) 100 %
12.07.2018 19:07 21,2 C 74 % 1015,9 hPa 0,0 l/m 4,2 km/h (1 Bft) W-NW 295 16,4 C 9,4 km/h (2 Bft) 100 %
12.07.2018 19:08 21,2 C 73 % 1015,8 hPa 0,0 l/m 6,3 km/h (2 Bft) W 262 16,2 C 12,6 km/h (3 Bft) 100 %
12.07.2018 19:09 21,3 C 73 % 1015,8 hPa 0,0 l/m 3,7 km/h (1 Bft) W-NW 302 16,3 C 9,4 km/h (2 Bft) 100 %
12.07.2018 19:10 21,3 C 73 % 1015,9 hPa 0,0 l/m 5,9 km/h (2 Bft) NW 313 16,3 C 12,6 km/h (3 Bft) 96 %
12.07.2018 19:11 21,4 C 73 % 1015,8 hPa 0,0 l/m 1,8 km/h (1 Bft) NW 318 16,4 C 6,3 km/h (2 Bft) 100 %
12.07.2018 19:12 21,4 C 73 % 1015,8 hPa 0,0 l/m 4,8 km/h (1 Bft) W-NW 298 16,4 C 9,4 km/h (2 Bft) 96 %
12.07.2018 19:13 21,5 C 72 % 1015,8 hPa 0,0 l/m 3,3 km/h (1 Bft) W-SW 245 16,2 C 9,4 km/h (2 Bft) 96 %
12.07.2018 19:14 21,5 C 73 % 1015,8 hPa 0,0 l/m 1,6 km/h (1 Bft) W 262 16,4 C 3,1 km/h (1 Bft) 100 %
12.07.2018 19:15 21,6 C 73 % 1015,8 hPa 0,0 l/m 6,1 km/h (2 Bft) W-SW 252 16,5 C 12,6 km/h (3 Bft) 96 %
12.07.2018 19:16 21,5 C 72 % 1015,8 hPa 0,0 l/m 7,2 km/h (2 Bft) W-SW 249 16,2 C 15,7 km/h (3 Bft) 100 %
12.07.2018 19:17 21,6 C 72 % 1015,8 hPa 0,0 l/m 0,5 km/h (0 Bft) W-NW 286 16,3 C 3,1 km/h (1 Bft) 96 %
12.07.2018 19:18 21,6 C 73 % 1015,8 hPa 0,0 l/m 2,2 km/h (1 Bft) W 259 16,5 C 6,3 km/h (2 Bft) 96 %
12.07.2018 19:19 21,6 C 72 % 1015,8 hPa 0,0 l/m 4,4 km/h (1 Bft) W-NW 300 16,3 C 9,4 km/h (2 Bft) 100 %
12.07.2018 19:20 21,6 C 72 % 1015,8 hPa 0,0 l/m 1,2 km/h (1 Bft) S-SW 200 16,3 C 3,1 km/h (1 Bft) 96 %
12.07.2018 19:21 21,6 C 72 % 1015,9 hPa 0,0 l/m 6,0 km/h (2 Bft) N-NO 24 16,3 C 12,6 km/h (3 Bft) 100 %
12.07.2018 19:22 21,6 C 72 % 1015,8 hPa 0,0 l/m 8,9 km/h (2 Bft) W-NW 292 16,3 C 15,7 km/h (3 Bft) 96 %
12.07.2018 19:23 21,6 C 71 % 1015,8 hPa 0,0 l/m 5,2 km/h (1 Bft) W-SW 255 16,1 C 9,4 km/h (2 Bft) 100 %
12.07.2018 19:24 21,6 C 72 % 1015,8 hPa 0,0 l/m 3,5 km/h (1 Bft) W-NW 293 16,3 C 6,3 km/h (2 Bft) 100 %
12.07.2018 19:25 21,6 C 72 % 1015,8 hPa 0,0 l/m 4,9 km/h (1 Bft) W-SW 245 16,3 C 12,6 km/h (3 Bft) 100 %
12.07.2018 19:26 21,5 C 71 % 1015,8 hPa 0,0 l/m 5,7 km/h (1 Bft) NW 313 16,0 C 9,4 km/h (2 Bft) 100 %
12.07.2018 19:27 21,5 C 72 % 1015,9 hPa 0,0 l/m 4,6 km/h (1 Bft) W-NW 285 16,2 C 9,4 km/h (2 Bft) 100 %
12.07.2018 19:28 21,4 C 71 % 1015,9 hPa 0,0 l/m 5,8 km/h (2 Bft) SW 218 15,9 C 12,6 km/h (3 Bft) 100 %
12.07.2018 19:29 21,4 C 72 % 1015,8 hPa 0,0 l/m 5,2 km/h (1 Bft) W 267 16,1 C 12,6 km/h (3 Bft) 100 %
12.07.2018 19:30 21,4 C 72 % 1015,9 hPa 0,0 l/m 1,6 km/h (1 Bft) W-NW 282 16,1 C 6,3 km/h (2 Bft) 100 %
12.07.2018 19:31 21,4 C 72 % 1015,9 hPa 0,0 l/m 4,6 km/h (1 Bft) W-SW 243 16,1 C 9,4 km/h (2 Bft) 100 %
12.07.2018 19:32 21,4 C 72 % 1015,9 hPa 0,0 l/m 1,8 km/h (1 Bft) W 264 16,1 C 3,1 km/h (1 Bft) 100 %
12.07.2018 19:33 21,3 C 73 % 1015,9 hPa 0,0 l/m 4,0 km/h (1 Bft) W-NW 295 16,3 C 12,6 km/h (3 Bft) 100 %
12.07.2018 19:34 21,3 C 72 % 1015,9 hPa 0,0 l/m 1,7 km/h (1 Bft) NW 318 16,0 C 6,3 km/h (2 Bft) 100 %
12.07.2018 19:35 21,3 C 73 % 1015,9 hPa 0,0 l/m 3,3 km/h (1 Bft) SW 226 16,3 C 9,4 km/h (2 Bft) 100 %
12.07.2018 19:36 21,3 C 73 % 1015,9 hPa 0,0 l/m 7,3 km/h (2 Bft) W 279 16,3 C 12,6 km/h (3 Bft) 100 %
12.07.2018 19:37 21,3 C 72 % 1015,9 hPa 0,0 l/m 4,8 km/h (1 Bft) W 271 16,0 C 6,3 km/h (2 Bft) 100 %
12.07.2018 19:38 21,3 C 72 % 1015,9 hPa 0,0 l/m 7,2 km/h (2 Bft) NW 313 16,0 C 9,4 km/h (2 Bft) 100 %
12.07.2018 19:39 21,3 C 72 % 1015,9 hPa 0,0 l/m 7,5 km/h (2 Bft) W-NW 302 16,0 C 12,6 km/h (3 Bft) 100 %
12.07.2018 19:40 21,3 C 72 % 1015,9 hPa 0,0 l/m 5,0 km/h (1 Bft) W-NW 303 16,0 C 9,4 km/h (2 Bft) 99 %
12.07.2018 19:41 21,3 C 73 % 1015,9 hPa 0,0 l/m 3,0 km/h (1 Bft) NW 309 16,3 C 6,3 km/h (2 Bft) 100 %
12.07.2018 19:42 21,3 C 72 % 1015,9 hPa 0,0 l/m 4,8 km/h (1 Bft) SW 224 16,0 C 15,7 km/h (3 Bft) 100 %
12.07.2018 19:43 21,3 C 72 % 1015,9 hPa 0,0 l/m 6,6 km/h (2 Bft) NW 316 16,0 C 15,7 km/h (3 Bft) 100 %
12.07.2018 19:44 21,3 C 72 % 1015,9 hPa 0,0 l/m 3,1 km/h (1 Bft) W-NW 297 16,0 C 6,3 km/h (2 Bft) 100 %
12.07.2018 19:45 21,3 C 72 % 1015,9 hPa 0,0 l/m 4,6 km/h (1 Bft) W-NW 292 16,0 C 9,4 km/h (2 Bft) 100 %
12.07.2018 19:46 21,3 C 72 % 1016,0 hPa 0,0 l/m 1,9 km/h (1 Bft) W-SW 255 16,0 C 3,1 km/h (1 Bft) 100 %
12.07.2018 19:47 21,3 C 73 % 1015,9 hPa 0,0 l/m 6,1 km/h (2 Bft) W-NW 289 16,3 C 9,4 km/h (2 Bft) 100 %
12.07.2018 19:48 21,3 C 73 % 1016,0 hPa 0,0 l/m 5,3 km/h (1 Bft) W-NW 294 16,3 C 9,4 km/h (2 Bft) 100 %
12.07.2018 19:49 21,3 C 73 % 1015,9 hPa 0,0 l/m 4,8 km/h (1 Bft) W-NW 301 16,3 C 12,6 km/h (3 Bft) 100 %
12.07.2018 19:50 21,3 C 73 % 1016,0 hPa 0,0 l/m 0,8 km/h (0 Bft) W-NW 297 16,3 C 6,3 km/h (2 Bft) 100 %
12.07.2018 19:51 21,3 C 73 % 1016,0 hPa 0,0 l/m 5,2 km/h (1 Bft) W-NW 301 16,3 C 9,4 km/h (2 Bft) 100 %
12.07.2018 19:52 21,3 C 73 % 1016,0 hPa 0,0 l/m 8,3 km/h (2 Bft) NW 315 16,3 C 12,6 km/h (3 Bft) 100 %
12.07.2018 19:53 21,3 C 73 % 1016,0 hPa 0,0 l/m 4,9 km/h (1 Bft) W-NW 290 16,3 C 9,4 km/h (2 Bft) 100 %
12.07.2018 19:54 21,2 C 74 % 1016,0 hPa 0,0 l/m 0,8 km/h (0 Bft) W-NW 290 16,4 C 3,1 km/h (1 Bft) 100 %
12.07.2018 19:55 21,2 C 74 % 1016,0 hPa 0,0 l/m 3,4 km/h (1 Bft) W-NW 293 16,4 C 6,3 km/h (2 Bft) 100 %
12.07.2018 19:56 21,2 C 74 % 1016,0 hPa 0,0 l/m 5,6 km/h (1 Bft) W-NW 302 16,4 C 12,6 km/h (3 Bft) 100 %
12.07.2018 19:57 21,2 C 74 % 1016,1 hPa 0,0 l/m 3,4 km/h (1 Bft) NW 304 16,4 C 9,4 km/h (2 Bft) 100 %
12.07.2018 19:58 21,2 C 74 % 1016,1 hPa 0,0 l/m 4,1 km/h (1 Bft) SW 218 16,4 C 12,6 km/h (3 Bft) 100 %
12.07.2018 19:59 21,1 C 74 % 1016,0 hPa 0,0 l/m 9,1 km/h (2 Bft) W-SW 247 16,3 C 15,7 km/h (3 Bft) 100 %
12.07.2018 20:00 21,1 C 74 % 1016,0 hPa 0,0 l/m 6,5 km/h (2 Bft) NW 315 16,3 C 15,7 km/h (3 Bft) 100 %
12.07.2018 20:01 21,1 C 74 % 1016,0 hPa 0,0 l/m 9,9 km/h (2 Bft) W-SW 240 16,3 C 18,8 km/h (3 Bft) 99 %
12.07.2018 20:02 21,0 C 74 % 1016,0 hPa 0,0 l/m 2,2 km/h (1 Bft) SW 231 16,2 C 6,3 km/h (2 Bft) 100 %
12.07.2018 20:03 21,0 C 74 % 1016,1 hPa 0,0 l/m 5,6 km/h (1 Bft) SW 225 16,2 C 9,4 km/h (2 Bft) 100 %
12.07.2018 20:04 20,9 C 75 % 1016,1 hPa 0,0 l/m 0,9 km/h (0 Bft) NW 311 16,3 C 3,1 km/h (1 Bft) 100 %
12.07.2018 20:05 20,9 C 75 % 1016,1 hPa 0,0 l/m 3,9 km/h (1 Bft) W-NW 283 16,3 C 9,4 km/h (2 Bft) 100 %
12.07.2018 20:06 20,9 C 75 % 1016,1 hPa 0,0 l/m 10,8 km/h (2 Bft) W 277 16,3 C 12,6 km/h (3 Bft) 100 %
12.07.2018 20:07 20,9 C 75 % 1016,1 hPa 0,0 l/m 6,3 km/h (2 Bft) W 280 16,3 C 9,4 km/h (2 Bft) 100 %
12.07.2018 20:08 20,9 C 75 % 1016,1 hPa 0,0 l/m 2,2 km/h (1 Bft) W 281 16,3 C 6,3 km/h (2 Bft) 96 %
12.07.2018 20:09 20,9 C 75 % 1016,1 hPa 0,0 l/m 5,2 km/h (1 Bft) W-NW 301 16,3 C 12,6 km/h (3 Bft) 100 %
12.07.2018 20:10 20,9 C 75 % 1016,1 hPa 0,0 l/m 5,6 km/h (1 Bft) W 278 16,3 C 9,4 km/h (2 Bft) 96 %
12.07.2018 20:11 20,8 C 75 % 1016,1 hPa 0,0 l/m 6,3 km/h (2 Bft) W-SW 257 16,2 C 12,6 km/h (3 Bft) 100 %
12.07.2018 20:12 20,8 C 75 % 1016,1 hPa 0,0 l/m 6,7 km/h (2 Bft) NW 306 16,2 C 12,6 km/h (3 Bft) 96 %
12.07.2018 20:13 20,8 C 76 % 1016,1 hPa 0,0 l/m 0,6 km/h (0 Bft) W 262 16,4 C 3,1 km/h (1 Bft) 100 %
12.07.2018 20:14 20,8 C 76 % 1016,1 hPa 0,0 l/m 2,4 km/h (1 Bft) W 265 16,4 C 9,4 km/h (2 Bft) 96 %
12.07.2018 20:15 20,8 C 76 % 1016,2 hPa 0,0 l/m 0,9 km/h (0 Bft) W-SW 250 16,4 C 6,3 km/h (2 Bft) 100 %
12.07.2018 20:16 20,7 C 76 % 1016,1 hPa 0,0 l/m 5,2 km/h (1 Bft) W 276 16,3 C 12,6 km/h (3 Bft) 96 %
12.07.2018 20:17 20,7 C 76 % 1016,1 hPa 0,0 l/m 5,5 km/h (1 Bft) W-NW 286 16,3 C 18,8 km/h (3 Bft) 100 %
12.07.2018 20:18 20,7 C 76 % 1016,1 hPa 0,0 l/m 7,1 km/h (2 Bft) W-NW 300 16,3 C 15,7 km/h (3 Bft) 100 %
12.07.2018 20:19 20,7 C 76 % 1016,2 hPa 0,0 l/m 4,3 km/h (1 Bft) W-NW 299 16,3 C 9,4 km/h (2 Bft) 100 %
12.07.2018 20:20 20,7 C 76 % 1016,1 hPa 0,0 l/m 1,7 km/h (1 Bft) W-NW 297 16,3 C 3,1 km/h (1 Bft) 100 %
12.07.2018 20:21 20,7 C 76 % 1016,1 hPa 0,0 l/m 3,8 km/h (1 Bft) W 264 16,3 C 6,3 km/h (2 Bft) 100 %
12.07.2018 20:22 20,7 C 76 % 1016,1 hPa 0,0 l/m 4,6 km/h (1 Bft) W-NW 292 16,3 C 9,4 km/h (2 Bft) 100 %
12.07.2018 20:23 20,6 C 76 % 1016,1 hPa 0,0 l/m 5,0 km/h (1 Bft) W-NW 299 16,2 C 12,6 km/h (3 Bft) 100 %
12.07.2018 20:24 20,6 C 76 % 1016,1 hPa 0,0 l/m 3,4 km/h (1 Bft) W-NW 293 16,2 C 9,4 km/h (2 Bft) 100 %
12.07.2018 20:25 20,6 C 76 % 1016,1 hPa 0,0 l/m 0,8 km/h (0 Bft) W-NW 294 16,2 C 3,1 km/h (1 Bft) 100 %
12.07.2018 20:26 20,6 C 76 % 1016,2 hPa 0,0 l/m 0,3 km/h (0 Bft) SW 230 16,2 C 3,1 km/h (1 Bft) 100 %
12.07.2018 20:27 20,6 C 76 % 1016,2 hPa 0,0 l/m 1,3 km/h (1 Bft) W 280 16,2 C 6,3 km/h (2 Bft) 100 %
12.07.2018 20:28 20,6 C 76 % 1016,2 hPa 0,0 l/m 0,4 km/h (0 Bft) W 281 16,2 C 3,1 km/h (1 Bft) 100 %
12.07.2018 20:29 20,6 C 76 % 1016,2 hPa 0,0 l/m 0,8 km/h (0 Bft) W 277 16,2 C 3,1 km/h (1 Bft) 100 %
12.07.2018 20:30 20,6 C 77 % 1016,2 hPa 0,0 l/m 0,0 km/h (0 Bft) W 277 16,4 C 0,0 km/h (0 Bft) 100 %
12.07.2018 20:31 20,6 C 77 % 1016,2 hPa 0,0 l/m 0,0 km/h (0 Bft) W 278 16,4 C 0,0 km/h (0 Bft) 100 %
12.07.2018 20:32 20,5 C 77 % 1016,2 hPa 0,0 l/m 0,0 km/h (0 Bft) W 278 16,3 C 0,0 km/h (0 Bft) 100 %
12.07.2018 20:33 20,5 C 77 % 1016,2 hPa 0,0 l/m 0,0 km/h (0 Bft) W 278 16,3 C 0,0 km/h (0 Bft) 100 %
12.07.2018 20:34 20,5 C 77 % 1016,2 hPa 0,0 l/m 0,3 km/h (0 Bft) W-NW 284 16,3 C 3,1 km/h (1 Bft) 100 %
12.07.2018 20:35 20,4 C 77 % 1016,2 hPa 0,0 l/m 1,2 km/h (1 Bft) NW 325 16,2 C 6,3 km/h (2 Bft) 100 %
12.07.2018 20:36 20,4 C 77 % 1016,2 hPa 0,0 l/m 2,0 km/h (1 Bft) NW 309 16,2 C 3,1 km/h (1 Bft) 100 %
12.07.2018 20:37 20,4 C 77 % 1016,2 hPa 0,0 l/m 0,5 km/h (0 Bft) W 281 16,2 C 3,1 km/h (1 Bft) 100 %
12.07.2018 20:38 20,4 C 77 % 1016,2 hPa 0,0 l/m 0,4 km/h (0 Bft) W-NW 300 16,2 C 3,1 km/h (1 Bft) 100 %
12.07.2018 20:39 20,4 C 77 % 1016,2 hPa 0,0 l/m 0,0 km/h (0 Bft) W 276 16,2 C 0,0 km/h (0 Bft) 100 %
12.07.2018 20:40 20,3 C 76 % 1016,2 hPa 0,0 l/m 1,9 km/h (1 Bft) W-NW 288 15,9 C 6,3 km/h (2 Bft) 100 %
12.07.2018 20:41 20,3 C 77 % 1016,2 hPa 0,0 l/m 0,0 km/h (0 Bft) W-SW 258 16,1 C 0,0 km/h (0 Bft) 100 %
12.07.2018 20:42 20,3 C 77 % 1016,3 hPa 0,0 l/m 0,0 km/h (0 Bft) W-SW 258 16,1 C 0,0 km/h (0 Bft) 100 %
12.07.2018 20:43 20,3 C 77 % 1016,3 hPa 0,0 l/m 0,0 km/h (0 Bft) NW 309 16,1 C 0,0 km/h (0 Bft) 96 %
12.07.2018 20:44 20,3 C 77 % 1016,3 hPa 0,0 l/m 0,1 km/h (0 Bft) W 269 16,1 C 3,1 km/h (1 Bft) 100 %
12.07.2018 20:45 20,3 C 77 % 1016,3 hPa 0,0 l/m 1,3 km/h (1 Bft) W-NW 289 16,1 C 3,1 km/h (1 Bft) 100 %
12.07.2018 20:46 20,2 C 77 % 1016,3 hPa 0,0 l/m 1,4 km/h (1 Bft) W-NW 297 16,0 C 3,1 km/h (1 Bft) 100 %
12.07.2018 20:47 20,2 C 77 % 1016,3 hPa 0,0 l/m 0,0 km/h (0 Bft) W-NW 297 16,0 C 0,0 km/h (0 Bft) 100 %
12.07.2018 20:48 20,2 C 77 % 1016,3 hPa 0,0 l/m 0,0 km/h (0 Bft) W-NW 297 16,0 C 0,0 km/h (0 Bft) 100 %
12.07.2018 20:49 20,2 C 77 % 1016,3 hPa 0,0 l/m 3,3 km/h (1 Bft) W-NW 302 16,0 C 6,3 km/h (2 Bft) 100 %
12.07.2018 20:50 20,2 C 77 % 1016,4 hPa 0,0 l/m 1,6 km/h (1 Bft) W-NW 300 16,0 C 6,3 km/h (2 Bft) 100 %
12.07.2018 20:51 20,2 C 77 % 1016,3 hPa 0,0 l/m 0,0 km/h (0 Bft) W-NW 289 16,0 C 0,0 km/h (0 Bft) 100 %
12.07.2018 20:52 20,2 C 78 % 1016,3 hPa 0,0 l/m 0,3 km/h (0 Bft) W 262 16,2 C 3,1 km/h (1 Bft) 100 %
12.07.2018 20:53 20,1 C 78 % 1016,3 hPa 0,0 l/m 0,0 km/h (0 Bft) S-SW 212 16,1 C 0,0 km/h (0 Bft) 100 %
12.07.2018 20:54 20,1 C 77 % 1016,3 hPa 0,0 l/m 3,1 km/h (1 Bft) W-NW 287 15,9 C 9,4 km/h (2 Bft) 100 %
12.07.2018 20:55 20,1 C 77 % 1016,4 hPa 0,0 l/m 2,0 km/h (1 Bft) W-NW 299 15,9 C 3,1 km/h (1 Bft) 100 %
12.07.2018 20:56 20,1 C 77 % 1016,4 hPa 0,0 l/m 0,3 km/h (0 Bft) W-NW 300 15,9 C 3,1 km/h (1 Bft) 100 %
12.07.2018 20:57 20,1 C 77 % 1016,4 hPa 0,0 l/m 0,2 km/h (0 Bft) W-NW 300 15,9 C 3,1 km/h (1 Bft) 100 %
12.07.2018 20:58 20,0 C 77 % 1016,4 hPa 0,0 l/m 0,5 km/h (0 Bft) SW 229 15,8 C 3,1 km/h (1 Bft) 100 %
12.07.2018 20:59 20,0 C 77 % 1016,4 hPa 0,0 l/m 0,8 km/h (0 Bft) NW 310 15,8 C 3,1 km/h (1 Bft) 94 %
12.07.2018 21:00 20,0 C 78 % 1016,4 hPa 0,0 l/m 0,0 km/h (0 Bft) NW 309 16,0 C 0,0 km/h (0 Bft) 96 %
12.07.2018 21:01 19,9 C 78 % 1016,5 hPa 0,0 l/m 0,0 km/h (0 Bft) NW 309 15,9 C 0,0 km/h (0 Bft) 100 %
12.07.2018 21:02 19,9 C 78 % 1016,4 hPa 0,0 l/m 0,0 km/h (0 Bft) NW 309 15,9 C 0,0 km/h (0 Bft) 96 %
12.07.2018 21:03 19,9 C 78 % 1016,5 hPa 0,0 l/m 0,0 km/h (0 Bft) NW 309 15,9 C 0,0 km/h (0 Bft) 100 %
12.07.2018 21:04 19,9 C 78 % 1016,5 hPa 0,0 l/m 0,4 km/h (0 Bft) W 266 15,9 C 3,1 km/h (1 Bft) 96 %
12.07.2018 21:05 19,9 C 78 % 1016,5 hPa 0,0 l/m 0,5 km/h (0 Bft) W-NW 301 15,9 C 3,1 km/h (1 Bft) 99 %
12.07.2018 21:06 19,9 C 78 % 1016,5 hPa 0,0 l/m 0,9 km/h (0 Bft) W-NW 300 15,9 C 3,1 km/h (1 Bft) 98 %
12.07.2018 21:07 19,8 C 78 % 1016,5 hPa 0,0 l/m 0,1 km/h (0 Bft) W 279 15,8 C 3,1 km/h (1 Bft) 100 %
12.07.2018 21:08 19,8 C 78 % 1016,5 hPa 0,0 l/m 2,6 km/h (1 Bft) W-NW 302 15,8 C 6,3 km/h (2 Bft) 96 %
12.07.2018 21:09 19,8 C 78 % 1016,5 hPa 0,0 l/m 3,3 km/h (1 Bft) W-NW 285 15,8 C 6,3 km/h (2 Bft) 96 %
12.07.2018 21:10 19,8 C 78 % 1016,5 hPa 0,0 l/m 1,2 km/h (1 Bft) W-SW 238 15,8 C 3,1 km/h (1 Bft) 100 %
12.07.2018 21:11 19,8 C 78 % 1016,5 hPa 0,0 l/m 0,7 km/h (0 Bft) W-NW 288 15,8 C 3,1 km/h (1 Bft) 100 %
12.07.2018 21:12 19,7 C 78 % 1016,5 hPa 0,0 l/m 2,4 km/h (1 Bft) W-NW 300 15,8 C 6,3 km/h (2 Bft) 100 %
12.07.2018 21:13 19,7 C 78 % 1016,5 hPa 0,0 l/m 2,5 km/h (1 Bft) W 262 15,8 C 3,1 km/h (1 Bft) 100 %
12.07.2018 21:14 19,7 C 78 % 1016,6 hPa 0,0 l/m 6,3 km/h (2 Bft) W-NW 299 15,8 C 15,7 km/h (3 Bft) 100 %
12.07.2018 21:15 19,7 C 78 % 1016,6 hPa 0,0 l/m 1,2 km/h (1 Bft) W 274 15,8 C 3,1 km/h (1 Bft) 100 %
12.07.2018 21:16 19,7 C 78 % 1016,6 hPa 0,0 l/m 3,7 km/h (1 Bft) W-NW 302 15,8 C 9,4 km/h (2 Bft) 100 %
12.07.2018 21:17 19,7 C 78 % 1016,6 hPa 0,0 l/m 0,3 km/h (0 Bft) W-NW 302 15,8 C 3,1 km/h (1 Bft) 100 %
12.07.2018 21:18 19,6 C 78 % 1016,6 hPa 0,0 l/m 1,4 km/h (1 Bft) W-NW 300 15,7 C 9,4 km/h (2 Bft) 100 %
12.07.2018 21:19 19,6 C 78 % 1016,5 hPa 0,0 l/m 2,2 km/h (1 Bft) W 276 15,7 C 9,4 km/h (2 Bft) 100 %
12.07.2018 21:20 19,6 C 78 % 1016,6 hPa 0,0 l/m 4,4 km/h (1 Bft) W-NW 300 15,7 C 9,4 km/h (2 Bft) 100 %
12.07.2018 21:21 19,6 C 78 % 1016,6 hPa 0,0 l/m 0,7 km/h (0 Bft) W-NW 294 15,7 C 3,1 km/h (1 Bft) 100 %
12.07.2018 21:22 19,6 C 78 % 1016,6 hPa 0,0 l/m 2,2 km/h (1 Bft) W 259 15,7 C 3,1 km/h (1 Bft) 100 %
12.07.2018 21:23 19,6 C 78 % 1016,5 hPa 0,0 l/m 0,4 km/h (0 Bft) W-NW 288 15,7 C 3,1 km/h (1 Bft) 100 %
12.07.2018 21:24 19,6 C 78 % 1016,6 hPa 0,0 l/m 3,1 km/h (1 Bft) W-NW 299 15,7 C 3,1 km/h (1 Bft) 100 %
12.07.2018 21:25 19,5 C 78 % 1016,6 hPa 0,0 l/m 3,5 km/h (1 Bft) W-NW 292 15,6 C 6,3 km/h (2 Bft) 100 %
12.07.2018 21:26 19,5 C 78 % 1016,5 hPa 0,0 l/m 0,3 km/h (0 Bft) W-SW 253 15,6 C 3,1 km/h (1 Bft) 100 %
12.07.2018 21:27 19,5 C 78 % 1016,6 hPa 0,0 l/m 3,4 km/h (1 Bft) NW 323 15,6 C 9,4 km/h (2 Bft) 100 %
12.07.2018 21:28 19,5 C 77 % 1016,6 hPa 0,0 l/m 3,8 km/h (1 Bft) W-NW 291 15,4 C 6,3 km/h (2 Bft) 100 %
12.07.2018 21:29 19,4 C 77 % 1016,6 hPa 0,0 l/m 1,7 km/h (1 Bft) W 274 15,3 C 3,1 km/h (1 Bft) 100 %
12.07.2018 21:30 19,4 C 78 % 1016,6 hPa 0,0 l/m 0,1 km/h (0 Bft) W 274 15,5 C 3,1 km/h (1 Bft) 100 %
12.07.2018 21:31 19,4 C 77 % 1016,6 hPa 0,0 l/m 0,9 km/h (0 Bft) NW 305 15,3 C 3,1 km/h (1 Bft) 100 %
12.07.2018 21:32 19,4 C 77 % 1016,6 hPa 0,0 l/m 0,3 km/h (0 Bft) W 259 15,3 C 3,1 km/h (1 Bft) 100 %
12.07.2018 21:33 19,4 C 77 % 1016,7 hPa 0,0 l/m 0,4 km/h (0 Bft) W-SW 248 15,3 C 3,1 km/h (1 Bft) 100 %
12.07.2018 21:34 19,4 C 77 % 1016,6 hPa 0,0 l/m 0,0 km/h (0 Bft) W-SW 248 15,3 C 0,0 km/h (0 Bft) 100 %
12.07.2018 21:35 19,4 C 78 % 1016,7 hPa 0,0 l/m 0,0 km/h (0 Bft) W-SW 248 15,5 C 0,0 km/h (0 Bft) 100 %
12.07.2018 21:36 19,4 C 78 % 1016,6 hPa 0,0 l/m 0,0 km/h (0 Bft) W-SW 248 15,5 C 0,0 km/h (0 Bft) 100 %
12.07.2018 21:37 19,4 C 77 % 1016,6 hPa 0,0 l/m 0,3 km/h (0 Bft) W-SW 248 15,3 C 3,1 km/h (1 Bft) 100 %
12.07.2018 21:38 19,3 C 77 % 1016,7 hPa 0,0 l/m 0,0 km/h (0 Bft) W-SW 248 15,2 C 0,0 km/h (0 Bft) 100 %
12.07.2018 21:39 19,3 C 77 % 1016,7 hPa 0,0 l/m 0,0 km/h (0 Bft) NW 319 15,2 C 0,0 km/h (0 Bft) 100 %
12.07.2018 21:40 19,3 C 77 % 1016,7 hPa 0,0 l/m 0,0 km/h (0 Bft) W 269 15,2 C 0,0 km/h (0 Bft) 99 %
12.07.2018 21:41 19,3 C 77 % 1016,7 hPa 0,0 l/m 0,3 km/h (0 Bft) W 269 15,2 C 3,1 km/h (1 Bft) 100 %
12.07.2018 21:42 19,3 C 77 % 1016,8 hPa 0,0 l/m 0,0 km/h (0 Bft) W 269 15,2 C 0,0 km/h (0 Bft) 100 %
12.07.2018 21:43 19,2 C 77 % 1016,7 hPa 0,0 l/m 0,0 km/h (0 Bft) W 269 15,1 C 0,0 km/h (0 Bft) 100 %
12.07.2018 21:44 19,2 C 77 % 1016,8 hPa 0,0 l/m 0,0 km/h (0 Bft) SW 220 15,1 C 0,0 km/h (0 Bft) 100 %
12.07.2018 21:45 19,2 C 77 % 1016,8 hPa 0,0 l/m 0,0 km/h (0 Bft) SW 220 15,1 C 0,0 km/h (0 Bft) 100 %
12.07.2018 21:46 19,2 C 77 % 1016,8 hPa 0,0 l/m 1,6 km/h (1 Bft) W-SW 238 15,1 C 6,3 km/h (2 Bft) 100 %
12.07.2018 21:47 19,2 C 77 % 1016,8 hPa 0,0 l/m 0,4 km/h (0 Bft) NW 308 15,1 C 3,1 km/h (1 Bft) 100 %
12.07.2018 21:48 19,2 C 77 % 1016,8 hPa 0,0 l/m 0,8 km/h (0 Bft) W-SW 250 15,1 C 3,1 km/h (1 Bft) 100 %
12.07.2018 21:49 19,2 C 77 % 1016,8 hPa 0,0 l/m 0,0 km/h (0 Bft) W-SW 250 15,1 C 0,0 km/h (0 Bft) 100 %
12.07.2018 21:50 19,2 C 77 % 1016,9 hPa 0,0 l/m 0,6 km/h (0 Bft) W 270 15,1 C 3,1 km/h (1 Bft) 100 %
12.07.2018 21:51 19,1 C 77 % 1016,9 hPa 0,0 l/m 0,0 km/h (0 Bft) W-NW 283 15,0 C 0,0 km/h (0 Bft) 100 %
12.07.2018 21:52 19,1 C 77 % 1016,9 hPa 0,0 l/m 0,2 km/h (0 Bft) W-SW 243 15,0 C 3,1 km/h (1 Bft) 96 %
12.07.2018 21:53 19,1 C 77 % 1016,9 hPa 0,0 l/m 0,7 km/h (0 Bft) NW 309 15,0 C 3,1 km/h (1 Bft) 92 %
12.07.2018 21:54 19,1 C 77 % 1016,9 hPa 0,0 l/m 0,0 km/h (0 Bft) NW 309 15,0 C 0,0 km/h (0 Bft) 100 %
12.07.2018 21:55 19,1 C 77 % 1016,9 hPa 0,0 l/m 4,0 km/h (1 Bft) W-NW 294 15,0 C 9,4 km/h (2 Bft) 100 %
12.07.2018 21:56 19,1 C 76 % 1016,9 hPa 0,0 l/m 1,0 km/h (0 Bft) SW 226 14,8 C 6,3 km/h (2 Bft) 100 %
12.07.2018 21:57 19,1 C 77 % 1017,0 hPa 0,0 l/m 0,0 km/h (0 Bft) SW 226 15,0 C 0,0 km/h (0 Bft) 100 %
12.07.2018 21:58 19,1 C 77 % 1016,9 hPa 0,0 l/m 0,0 km/h (0 Bft) SW 226 15,0 C 0,0 km/h (0 Bft) 96 %
12.07.2018 21:59 19,1 C 77 % 1017,0 hPa 0,0 l/m 0,1 km/h (0 Bft) W-SW 251 15,0 C 3,1 km/h (1 Bft) 96 %
12.07.2018 22:00 19,1 C 77 % 1016,9 hPa 0,0 l/m 0,1 km/h (0 Bft) NW 311 15,0 C 3,1 km/h (1 Bft) 100 %
12.07.2018 22:01 19,1 C 77 % 1017,0 hPa 0,0 l/m 0,0 km/h (0 Bft) NW 311 15,0 C 0,0 km/h (0 Bft) 96 %
12.07.2018 22:02 19,1 C 77 % 1017,0 hPa 0,0 l/m 0,6 km/h (0 Bft) NW 310 15,0 C 3,1 km/h (1 Bft) 100 %
12.07.2018 22:03 19,1 C 76 % 1017,0 hPa 0,0 l/m 0,0 km/h (0 Bft) NW 309 14,8 C 0,0 km/h (0 Bft) 97 %
12.07.2018 22:04 19,1 C 76 % 1016,9 hPa 0,0 l/m 0,0 km/h (0 Bft) NW 309 14,8 C 0,0 km/h (0 Bft) 100 %
12.07.2018 22:05 19,0 C 77 % 1016,9 hPa 0,0 l/m 0,0 km/h (0 Bft) NW 310 14,9 C 0,0 km/h (0 Bft) 96 %
12.07.2018 22:06 19,0 C 77 % 1017,0 hPa 0,0 l/m 0,9 km/h (0 Bft) W-NW 302 14,9 C 3,1 km/h (1 Bft) 100 %
12.07.2018 22:07 19,0 C 76 % 1017,0 hPa 0,0 l/m 0,0 km/h (0 Bft) W-NW 302 14,7 C 0,0 km/h (0 Bft) 100 %
12.07.2018 22:08 19,0 C 76 % 1017,0 hPa 0,0 l/m 0,0 km/h (0 Bft) W-NW 302 14,7 C 0,0 km/h (0 Bft) 100 %
12.07.2018 22:09 19,0 C 76 % 1017,0 hPa 0,0 l/m 0,0 km/h (0 Bft) W-NW 302 14,7 C 0,0 km/h (0 Bft) 100 %
12.07.2018 22:10 19,0 C 77 % 1017,0 hPa 0,0 l/m 0,0 km/h (0 Bft) W-NW 302 14,9 C 0,0 km/h (0 Bft) 100 %
12.07.2018 22:11 19,0 C 77 % 1017,0 hPa 0,0 l/m 0,4 km/h (0 Bft) W-NW 301 14,9 C 3,1 km/h (1 Bft) 100 %
12.07.2018 22:12 18,9 C 76 % 1017,1 hPa 0,0 l/m 2,7 km/h (1 Bft) SW 229 14,6 C 6,3 km/h (2 Bft) 100 %
12.07.2018 22:13 19,0 C 76 % 1017,1 hPa 0,0 l/m 0,0 km/h (0 Bft) W-SW 249 14,7 C 0,0 km/h (0 Bft) 100 %
12.07.2018 22:14 18,9 C 77 % 1017,1 hPa 0,0 l/m 0,7 km/h (0 Bft) W-SW 252 14,8 C 3,1 km/h (1 Bft) 100 %
12.07.2018 22:15 18,9 C 77 % 1017,1 hPa 0,0 l/m 0,0 km/h (0 Bft) W-SW 252 14,8 C 0,0 km/h (0 Bft) 100 %
12.07.2018 22:16 18,9 C 77 % 1017,1 hPa 0,0 l/m 0,2 km/h (0 Bft) W-SW 252 14,8 C 3,1 km/h (1 Bft) 100 %
12.07.2018 22:17 18,9 C 76 % 1017,1 hPa 0,0 l/m 0,1 km/h (0 Bft) W-SW 252 14,6 C 3,1 km/h (1 Bft) 100 %
12.07.2018 22:18 18,9 C 76 % 1017,1 hPa 0,0 l/m 0,1 km/h (0 Bft) W-SW 253 14,6 C 3,1 km/h (1 Bft) 100 %
12.07.2018 22:19 18,9 C 77 % 1017,1 hPa 0,0 l/m 0,1 km/h (0 Bft) W-SW 253 14,8 C 3,1 km/h (1 Bft) 100 %
12.07.2018 22:20 18,9 C 77 % 1017,0 hPa 0,0 l/m 0,0 km/h (0 Bft) W-SW 253 14,8 C 0,0 km/h (0 Bft) 100 %
12.07.2018 22:21 18,9 C 77 % 1017,1 hPa 0,0 l/m 0,1 km/h (0 Bft) W-SW 253 14,8 C 3,1 km/h (1 Bft) 100 %
12.07.2018 22:22 18,9 C 77 % 1017,1 hPa 0,0 l/m 0,0 km/h (0 Bft) W-SW 253 14,8 C 0,0 km/h (0 Bft) 100 %
12.07.2018 22:23 18,8 C 77 % 1017,1 hPa 0,0 l/m 0,1 km/h (0 Bft) W-SW 253 14,7 C 3,1 km/h (1 Bft) 100 %
12.07.2018 22:24 18,8 C 77 % 1017,0 hPa 0,0 l/m 0,0 km/h (0 Bft) W-SW 253 14,7 C 0,0 km/h (0 Bft) 100 %
12.07.2018 22:25 18,8 C 78 % 1017,0 hPa 0,0 l/m 0,0 km/h (0 Bft) W-SW 253 14,9 C 0,0 km/h (0 Bft) 100 %
12.07.2018 22:26 18,8 C 78 % 1017,0 hPa 0,0 l/m 0,0 km/h (0 Bft) W-SW 253 14,9 C 0,0 km/h (0 Bft) 100 %
12.07.2018 22:27 18,8 C 78 % 1017,1 hPa 0,0 l/m 0,0 km/h (0 Bft) SW 233 14,9 C 0,0 km/h (0 Bft) 100 %
12.07.2018 22:28 18,7 C 78 % 1017,1 hPa 0,0 l/m 0,0 km/h (0 Bft) SW 233 14,8 C 0,0 km/h (0 Bft) 100 %
12.07.2018 22:29 18,7 C 78 % 1017,1 hPa 0,0 l/m 0,1 km/h (0 Bft) SW 233 14,8 C 3,1 km/h (1 Bft) 100 %
12.07.2018 22:30 18,7 C 78 % 1017,1 hPa 0,0 l/m 0,0 km/h (0 Bft) SW 233 14,8 C 0,0 km/h (0 Bft) 100 %
12.07.2018 22:31 18,7 C 79 % 1017,0 hPa 0,0 l/m 0,0 km/h (0 Bft) SW 233 15,0 C 0,0 km/h (0 Bft) 100 %
12.07.2018 22:32 18,7 C 78 % 1017,0 hPa 0,0 l/m 0,0 km/h (0 Bft) SW 233 14,8 C 0,0 km/h (0 Bft) 100 %
12.07.2018 22:33 18,6 C 79 % 1017,0 hPa 0,0 l/m 0,0 km/h (0 Bft) SW 233 14,9 C 0,0 km/h (0 Bft) 100 %
12.07.2018 22:34 18,6 C 78 % 1017,0 hPa 0,0 l/m 0,0 km/h (0 Bft) SW 233 14,7 C 0,0 km/h (0 Bft) 100 %
12.07.2018 22:35 18,6 C 78 % 1017,1 hPa 0,0 l/m 0,0 km/h (0 Bft) SW 233 14,7 C 0,0 km/h (0 Bft) 100 %
12.07.2018 22:36 18,6 C 78 % 1017,0 hPa 0,0 l/m 0,0 km/h (0 Bft) SW 233 14,7 C 0,0 km/h (0 Bft) 100 %
12.07.2018 22:37 18,6 C 78 % 1017,0 hPa 0,0 l/m 0,0 km/h (0 Bft) SW 233 14,7 C 0,0 km/h (0 Bft) 100 %
12.07.2018 22:38 18,5 C 78 % 1017,1 hPa 0,0 l/m 0,0 km/h (0 Bft) SW 233 14,6 C 0,0 km/h (0 Bft) 100 %
12.07.2018 22:39 18,5 C 79 % 1017,0 hPa 0,0 l/m 0,0 km/h (0 Bft) SW 233 14,8 C 0,0 km/h (0 Bft) 100 %
12.07.2018 22:40 18,4 C 78 % 1017,1 hPa 0,0 l/m 0,0 km/h (0 Bft) SW 233 14,5 C 0,0 km/h (0 Bft) 100 %
12.07.2018 22:41 18,4 C 78 % 1017,1 hPa 0,0 l/m 0,1 km/h (0 Bft) SW 233 14,5 C 3,1 km/h (1 Bft) 100 %
12.07.2018 22:42 18,4 C 78 % 1017,1 hPa 0,0 l/m 0,0 km/h (0 Bft) SW 233 14,5 C 0,0 km/h (0 Bft) 100 %
12.07.2018 22:43 18,4 C 78 % 1017,1 hPa 0,0 l/m 0,0 km/h (0 Bft) SW 233 14,5 C 0,0 km/h (0 Bft) 100 %
12.07.2018 22:44 18,4 C 78 % 1017,1 hPa 0,0 l/m 0,0 km/h (0 Bft) SW 233 14,5 C 0,0 km/h (0 Bft) 100 %
12.07.2018 22:45 18,4 C 78 % 1017,1 hPa 0,0 l/m 0,0 km/h (0 Bft) SW 233 14,5 C 0,0 km/h (0 Bft) 100 %
12.07.2018 22:46 18,4 C 78 % 1017,1 hPa 0,0 l/m 0,0 km/h (0 Bft) W-NW 283 14,5 C 0,0 km/h (0 Bft) 99 %
12.07.2018 22:47 18,4 C 78 % 1017,1 hPa 0,0 l/m 0,0 km/h (0 Bft) W-NW 283 14,5 C 0,0 km/h (0 Bft) 100 %
12.07.2018 22:48 18,4 C 78 % 1017,2 hPa 0,0 l/m 0,0 km/h (0 Bft) W-NW 283 14,5 C 0,0 km/h (0 Bft) 100 %
12.07.2018 22:49 18,4 C 79 % 1017,1 hPa 0,0 l/m 0,8 km/h (0 Bft) W 270 14,7 C 3,1 km/h (1 Bft) 100 %
12.07.2018 22:50 18,4 C 79 % 1017,1 hPa 0,0 l/m 0,6 km/h (0 Bft) SW 231 14,7 C 3,1 km/h (1 Bft) 100 %
12.07.2018 22:51 18,4 C 79 % 1017,2 hPa 0,0 l/m 0,1 km/h (0 Bft) W-NW 299 14,7 C 3,1 km/h (1 Bft) 96 %
12.07.2018 22:52 18,4 C 79 % 1017,1 hPa 0,0 l/m 0,3 km/h (0 Bft) W-NW 298 14,7 C 3,1 km/h (1 Bft) 100 %
12.07.2018 22:53 18,4 C 79 % 1017,2 hPa 0,0 l/m 0,3 km/h (0 Bft) W-NW 298 14,7 C 3,1 km/h (1 Bft) 96 %
12.07.2018 22:54 18,4 C 79 % 1017,1 hPa 0,0 l/m 0,0 km/h (0 Bft) W-NW 298 14,7 C 0,0 km/h (0 Bft) 100 %
12.07.2018 22:55 18,4 C 78 % 1017,1 hPa 0,0 l/m 0,2 km/h (0 Bft) W-NW 298 14,5 C 3,1 km/h (1 Bft) 92 %
12.07.2018 22:56 18,4 C 78 % 1017,1 hPa 0,0 l/m 0,7 km/h (0 Bft) W-NW 298 14,5 C 3,1 km/h (1 Bft) 100 %
12.07.2018 22:57 18,4 C 78 % 1017,1 hPa 0,0 l/m 1,3 km/h (1 Bft) NW 322 14,5 C 3,1 km/h (1 Bft) 96 %
12.07.2018 22:58 18,4 C 79 % 1017,1 hPa 0,0 l/m 0,0 km/h (0 Bft) NW 322 14,7 C 0,0 km/h (0 Bft) 100 %
12.07.2018 22:59 18,4 C 79 % 1017,2 hPa 0,0 l/m 0,0 km/h (0 Bft) SW 224 14,7 C 0,0 km/h (0 Bft) 96 %
12.07.2018 23:00 18,4 C 78 % 1017,2 hPa 0,0 l/m 0,3 km/h (0 Bft) W-SW 255 14,5 C 3,1 km/h (1 Bft) 100 %
12.07.2018 23:01 18,4 C 78 % 1017,2 hPa 0,0 l/m 0,0 km/h (0 Bft) W-SW 255 14,5 C 0,0 km/h (0 Bft) 96 %
12.07.2018 23:02 18,4 C 78 % 1017,2 hPa 0,0 l/m 0,0 km/h (0 Bft) W-SW 255 14,5 C 0,0 km/h (0 Bft) 100 %
12.07.2018 23:03 18,4 C 78 % 1017,2 hPa 0,0 l/m 0,0 km/h (0 Bft) W-SW 255 14,5 C 0,0 km/h (0 Bft) 100 %
12.07.2018 23:04 18,4 C 78 % 1017,2 hPa 0,0 l/m 0,0 km/h (0 Bft) W-SW 247 14,5 C 0,0 km/h (0 Bft) 100 %
12.07.2018 23:05 18,4 C 79 % 1017,2 hPa 0,0 l/m 0,1 km/h (0 Bft) W-SW 250 14,7 C 3,1 km/h (1 Bft) 100 %
12.07.2018 23:06 18,4 C 79 % 1017,2 hPa 0,0 l/m 0,5 km/h (0 Bft) W-NW 301 14,7 C 6,3 km/h (2 Bft) 100 %
12.07.2018 23:07 18,4 C 79 % 1017,2 hPa 0,0 l/m 3,0 km/h (1 Bft) W-NW 300 14,7 C 9,4 km/h (2 Bft) 100 %
12.07.2018 23:08 18,3 C 79 % 1017,1 hPa 0,0 l/m 0,0 km/h (0 Bft) NW 306 14,6 C 0,0 km/h (0 Bft) 100 %
12.07.2018 23:09 18,3 C 79 % 1017,2 hPa 0,0 l/m 0,0 km/h (0 Bft) NW 315 14,6 C 0,0 km/h (0 Bft) 100 %
12.07.2018 23:10 18,3 C 79 % 1017,2 hPa 0,0 l/m 0,0 km/h (0 Bft) NW 315 14,6 C 0,0 km/h (0 Bft) 100 %
12.07.2018 23:11 18,3 C 79 % 1017,2 hPa 0,0 l/m 0,0 km/h (0 Bft) NW 316 14,6 C 0,0 km/h (0 Bft) 100 %
12.07.2018 23:12 18,3 C 79 % 1017,2 hPa 0,0 l/m 0,0 km/h (0 Bft) NW 316 14,6 C 0,0 km/h (0 Bft) 100 %
12.07.2018 23:13 18,3 C 79 % 1017,2 hPa 0,0 l/m 0,0 km/h (0 Bft) NW 316 14,6 C 0,0 km/h (0 Bft) 100 %
12.07.2018 23:14 18,3 C 79 % 1017,2 hPa 0,0 l/m 0,0 km/h (0 Bft) NW 316 14,6 C 0,0 km/h (0 Bft) 100 %
12.07.2018 23:15 18,3 C 79 % 1017,2 hPa 0,0 l/m 0,0 km/h (0 Bft) NW 317 14,6 C 0,0 km/h (0 Bft) 100 %
12.07.2018 23:16 18,3 C 79 % 1017,2 hPa 0,0 l/m 0,0 km/h (0 Bft) NW 317 14,6 C 0,0 km/h (0 Bft) 100 %
12.07.2018 23:17 18,3 C 79 % 1017,2 hPa 0,0 l/m 0,0 km/h (0 Bft) NW 317 14,6 C 0,0 km/h (0 Bft) 100 %
12.07.2018 23:18 18,3 C 79 % 1017,2 hPa 0,0 l/m 0,7 km/h (0 Bft) NW 315 14,6 C 3,1 km/h (1 Bft) 100 %
12.07.2018 23:19 18,3 C 79 % 1017,2 hPa 0,0 l/m 0,0 km/h (0 Bft) NW 315 14,6 C 0,0 km/h (0 Bft) 100 %
12.07.2018 23:20 18,3 C 79 % 1017,2 hPa 0,0 l/m 0,0 km/h (0 Bft) NW 317 14,6 C 0,0 km/h (0 Bft) 100 %
12.07.2018 23:21 18,3 C 79 % 1017,2 hPa 0,0 l/m 0,0 km/h (0 Bft) NW 317 14,6 C 0,0 km/h (0 Bft) 100 %
12.07.2018 23:22 18,3 C 80 % 1017,2 hPa 0,0 l/m 0,0 km/h (0 Bft) NW 317 14,8 C 0,0 km/h (0 Bft) 100 %
12.07.2018 23:23 18,3 C 79 % 1017,3 hPa 0,0 l/m 0,0 km/h (0 Bft) NW 321 14,6 C 0,0 km/h (0 Bft) 100 %
12.07.2018 23:24 18,3 C 80 % 1017,3 hPa 0,0 l/m 0,3 km/h (0 Bft) NW 321 14,8 C 3,1 km/h (1 Bft) 100 %
12.07.2018 23:25 18,3 C 80 % 1017,3 hPa 0,0 l/m 0,0 km/h (0 Bft) NW 321 14,8 C 0,0 km/h (0 Bft) 100 %
12.07.2018 23:26 18,3 C 80 % 1017,3 hPa 0,0 l/m 0,0 km/h (0 Bft) NW 321 14,8 C 0,0 km/h (0 Bft) 100 %
12.07.2018 23:27 18,3 C 80 % 1017,3 hPa 0,0 l/m 0,0 km/h (0 Bft) NW 321 14,8 C 0,0 km/h (0 Bft) 100 %
12.07.2018 23:28 18,3 C 80 % 1017,3 hPa 0,0 l/m 0,0 km/h (0 Bft) NW 321 14,8 C 0,0 km/h (0 Bft) 100 %
12.07.2018 23:29 18,3 C 80 % 1017,3 hPa 0,0 l/m 0,0 km/h (0 Bft) NW 321 14,8 C 0,0 km/h (0 Bft) 100 %
12.07.2018 23:30 18,2 C 80 % 1017,3 hPa 0,0 l/m 0,0 km/h (0 Bft) NW 321 14,7 C 0,0 km/h (0 Bft) 100 %
12.07.2018 23:31 18,2 C 80 % 1017,3 hPa 0,0 l/m 0,0 km/h (0 Bft) NW 321 14,7 C 0,0 km/h (0 Bft) 100 %
12.07.2018 23:32 18,2 C 80 % 1017,3 hPa 0,0 l/m 0,0 km/h (0 Bft) NW 321 14,7 C 0,0 km/h (0 Bft) 100 %
12.07.2018 23:33 18,2 C 80 % 1017,3 hPa 0,0 l/m 0,0 km/h (0 Bft) NW 321 14,7 C 0,0 km/h (0 Bft) 100 %
12.07.2018 23:34 18,2 C 80 % 1017,4 hPa 0,0 l/m 0,0 km/h (0 Bft) NW 321 14,7 C 0,0 km/h (0 Bft) 100 %
12.07.2018 23:35 18,2 C 80 % 1017,4 hPa 0,0 l/m 0,0 km/h (0 Bft) NW 321 14,7 C 0,0 km/h (0 Bft) 96 %
12.07.2018 23:36 18,2 C 80 % 1017,4 hPa 0,0 l/m 0,0 km/h (0 Bft) NW 321 14,7 C 0,0 km/h (0 Bft) 100 %
12.07.2018 23:37 18,2 C 80 % 1017,4 hPa 0,0 l/m 0,0 km/h (0 Bft) NW 321 14,7 C 0,0 km/h (0 Bft) 100 %
12.07.2018 23:38 18,2 C 80 % 1017,4 hPa 0,0 l/m 0,0 km/h (0 Bft) NW 321 14,7 C 0,0 km/h (0 Bft) 100 %
12.07.2018 23:39 18,1 C 80 % 1017,4 hPa 0,0 l/m 0,0 km/h (0 Bft) NW 321 14,6 C 0,0 km/h (0 Bft) 100 %
12.07.2018 23:40 18,1 C 80 % 1017,4 hPa 0,0 l/m 0,0 km/h (0 Bft) NW 321 14,6 C 0,0 km/h (0 Bft) 100 %
12.07.2018 23:41 18,1 C 81 % 1017,4 hPa 0,0 l/m 0,0 km/h (0 Bft) NW 321 14,8 C 0,0 km/h (0 Bft) 100 %
12.07.2018 23:42 18,1 C 81 % 1017,4 hPa 0,0 l/m 0,0 km/h (0 Bft) NW 321 14,8 C 0,0 km/h (0 Bft) 100 %
12.07.2018 23:43 18,1 C 81 % 1017,5 hPa 0,0 l/m 0,0 km/h (0 Bft) NW 321 14,8 C 0,0 km/h (0 Bft) 100 %
12.07.2018 23:44 18,1 C 81 % 1017,5 hPa 0,0 l/m 0,0 km/h (0 Bft) NW 321 14,8 C 0,0 km/h (0 Bft) 100 %
12.07.2018 23:45 18,1 C 81 % 1017,5 hPa 0,0 l/m 0,0 km/h (0 Bft) NW 321 14,8 C 0,0 km/h (0 Bft) 99 %
12.07.2018 23:46 18,0 C 81 % 1017,5 hPa 0,0 l/m 0,0 km/h (0 Bft) NW 321 14,7 C 0,0 km/h (0 Bft) 98 %
12.07.2018 23:47 18,0 C 81 % 1017,5 hPa 0,0 l/m 0,0 km/h (0 Bft) NW 321 14,7 C 0,0 km/h (0 Bft) 100 %
12.07.2018 23:48 18,0 C 81 % 1017,5 hPa 0,0 l/m 0,0 km/h (0 Bft) NW 321 14,7 C 0,0 km/h (0 Bft) 99 %
12.07.2018 23:49 17,9 C 81 % 1017,5 hPa 0,0 l/m 0,0 km/h (0 Bft) NW 321 14,6 C 0,0 km/h (0 Bft) 100 %
12.07.2018 23:50 18,0 C 81 % 1017,5 hPa 0,0 l/m 0,0 km/h (0 Bft) NW 321 14,7 C 0,0 km/h (0 Bft) 100 %
12.07.2018 23:51 17,9 C 82 % 1017,5 hPa 0,0 l/m 0,7 km/h (0 Bft) NW 321 14,8 C 3,1 km/h (1 Bft) 96 %
12.07.2018 23:52 17,9 C 81 % 1017,6 hPa 0,0 l/m 0,6 km/h (0 Bft) NW 321 14,6 C 3,1 km/h (1 Bft) 96 %
12.07.2018 23:53 17,9 C 82 % 1017,5 hPa 0,0 l/m 0,0 km/h (0 Bft) NW 321 14,8 C 0,0 km/h (0 Bft) 100 %
12.07.2018 23:54 17,9 C 82 % 1017,5 hPa 0,0 l/m 0,0 km/h (0 Bft) NW 321 14,8 C 0,0 km/h (0 Bft) 100 %
12.07.2018 23:55 17,9 C 82 % 1017,6 hPa 0,0 l/m 0,0 km/h (0 Bft) NW 321 14,8 C 0,0 km/h (0 Bft) 99 %
12.07.2018 23:56 17,9 C 82 % 1017,6 hPa 0,0 l/m 0,0 km/h (0 Bft) NW 321 14,8 C 0,0 km/h (0 Bft) 97 %
12.07.2018 23:57 17,9 C 82 % 1017,5 hPa 0,0 l/m 0,0 km/h (0 Bft) NW 321 14,8 C 0,0 km/h (0 Bft) 100 %
12.07.2018 23:58 17,9 C 82 % 1017,6 hPa 0,0 l/m 0,0 km/h (0 Bft) NW 321 14,8 C 0,0 km/h (0 Bft) 96 %
12.07.2018 23:59 17,9 C 82 % 1017,5 hPa 0,0 l/m 0,0 km/h (0 Bft) NW 321 14,8 C 0,0 km/h (0 Bft) 100 %
_ Min-Zeit 02:58 16:38 00:02 - 00:00 - - 02:58 00:00 01:08
Minimum _ 11,2 C 59 % 1014,7 hPa - 0,0 km/h (0 Bft) - - 10,7 C 0,0 km/h (0 Bft) 92 %
_ Max-Zeit 16:54 05:15 23:52 03:40 17:08 - - 16:54 15:13 00:00
Maximum _ 24,9 C 99 % 1017,6 hPa 0,2 l/m 18,8 km/h
NW (3 Bft)
- - 16,8 C 34,5 km/h
W-SW (5 Bft)
100 %
Durchschnitt _ 17,6 C 83 % 1015,8 hPa #0,2 l/m 3,3 km/h (1 Bft) W-NW - 14,5 C 6,9 km/h (2 Bft) 99 %